<?xml version="1.0" encoding="utf-8"?>
<gpx xmlns:xsi="http://www.w3.org/2001/XMLSchema-instance" xmlns:xsd="http://www.w3.org/2001/XMLSchema" version="1.1" creator="Shapelink.com" xmlns="http://www.topografix.com/GPX/1/1" xmlns:gpxtpx="http://www.garmin.com/xmlschemas/TrackPointExtension/v1">
  <metadata>
    <name>Löpning 6.02 km, 2018-03-21</name>
    <desc></desc>
    <author><name>Bengt-Åke Forslund</name></author> 
    <time>2018-03-21T17:53:13Z</time>
  </metadata>
  <trk>
    <name>Löpning 6.02 km, 2018-03-21</name>
    <trkseg>
      <trkpt lat="62.635831657978" lon="17.91564740352">
        <ele>24.4</ele>
        <time>2018-03-21T17:53:13Z</time>
      </trkpt>
      <trkpt lat="62.635756723792" lon="17.915933813043">
        <ele>24.6</ele>
        <time>2018-03-21T17:53:20Z</time>
      </trkpt>
      <trkpt lat="62.635744821494" lon="17.915980500226">
        <ele>24.6</ele>
        <time>2018-03-21T17:53:21Z</time>
      </trkpt>
      <trkpt lat="62.635731494273" lon="17.916026600676">
        <ele>24.4</ele>
        <time>2018-03-21T17:53:22Z</time>
      </trkpt>
      <trkpt lat="62.635720933079" lon="17.916062559027">
        <ele>24.4</ele>
        <time>2018-03-21T17:53:23Z</time>
      </trkpt>
      <trkpt lat="62.635708779324" lon="17.916106228726">
        <ele>24.4</ele>
        <time>2018-03-21T17:53:24Z</time>
      </trkpt>
      <trkpt lat="62.635694949189" lon="17.916155514298">
        <ele>24</ele>
        <time>2018-03-21T17:53:25Z</time>
      </trkpt>
      <trkpt lat="62.635684136538" lon="17.916204129318">
        <ele>23.8</ele>
        <time>2018-03-21T17:53:26Z</time>
      </trkpt>
      <trkpt lat="62.635672066602" lon="17.916250565044">
        <ele>24</ele>
        <time>2018-03-21T17:53:27Z</time>
      </trkpt>
      <trkpt lat="62.63566049958" lon="17.916295994942">
        <ele>23.6</ele>
        <time>2018-03-21T17:53:28Z</time>
      </trkpt>
      <trkpt lat="62.635646837083" lon="17.91634561579">
        <ele>23.2</ele>
        <time>2018-03-21T17:53:29Z</time>
      </trkpt>
      <trkpt lat="62.635635856794" lon="17.916384088711">
        <ele>23.2</ele>
        <time>2018-03-21T17:53:30Z</time>
      </trkpt>
      <trkpt lat="62.635620937012" lon="17.916435050663">
        <ele>23.2</ele>
        <time>2018-03-21T17:53:31Z</time>
      </trkpt>
      <trkpt lat="62.635606939239" lon="17.916480983475">
        <ele>22.8</ele>
        <time>2018-03-21T17:53:32Z</time>
      </trkpt>
      <trkpt lat="62.63559428257" lon="17.916528927943">
        <ele>22.8</ele>
        <time>2018-03-21T17:53:33Z</time>
      </trkpt>
      <trkpt lat="62.635578021684" lon="17.91657863261">
        <ele>22.8</ele>
        <time>2018-03-21T17:53:34Z</time>
      </trkpt>
      <trkpt lat="62.635564359187" lon="17.916620709748">
        <ele>22.6</ele>
        <time>2018-03-21T17:53:35Z</time>
      </trkpt>
      <trkpt lat="62.635551618699" lon="17.916674018632">
        <ele>22.4</ele>
        <time>2018-03-21T17:53:36Z</time>
      </trkpt>
      <trkpt lat="62.63553812384" lon="17.916727159878">
        <ele>22.2</ele>
        <time>2018-03-21T17:53:37Z</time>
      </trkpt>
      <trkpt lat="62.635525048076" lon="17.916769572292">
        <ele>22.2</ele>
        <time>2018-03-21T17:53:38Z</time>
      </trkpt>
      <trkpt lat="62.635510547389" lon="17.916816175656">
        <ele>21.8</ele>
        <time>2018-03-21T17:53:39Z</time>
      </trkpt>
      <trkpt lat="62.635494118865" lon="17.916848110695">
        <ele>21.6</ele>
        <time>2018-03-21T17:53:40Z</time>
      </trkpt>
      <trkpt lat="62.635473499391" lon="17.916869149264">
        <ele>21.4</ele>
        <time>2018-03-21T17:53:41Z</time>
      </trkpt>
      <trkpt lat="62.635457573781" lon="17.916882560304">
        <ele>21.4</ele>
        <time>2018-03-21T17:53:42Z</time>
      </trkpt>
      <trkpt lat="62.635432008986" lon="17.916902928321">
        <ele>21.4</ele>
        <time>2018-03-21T17:53:43Z</time>
      </trkpt>
      <trkpt lat="62.635410467503" lon="17.91692145232">
        <ele>21</ele>
        <time>2018-03-21T17:53:44Z</time>
      </trkpt>
      <trkpt lat="62.635387501097" lon="17.916927235831">
        <ele>21.2</ele>
        <time>2018-03-21T17:53:45Z</time>
      </trkpt>
      <trkpt lat="62.635365791976" lon="17.916923799252">
        <ele>21.2</ele>
        <time>2018-03-21T17:53:46Z</time>
      </trkpt>
      <trkpt lat="62.635346262149" lon="17.916905359072">
        <ele>21.2</ele>
        <time>2018-03-21T17:53:47Z</time>
      </trkpt>
      <trkpt lat="62.635331007091" lon="17.916881638295">
        <ele>21.2</ele>
        <time>2018-03-21T17:53:48Z</time>
      </trkpt>
      <trkpt lat="62.63531013616" lon="17.916851211998">
        <ele>21.4</ele>
        <time>2018-03-21T17:53:49Z</time>
      </trkpt>
      <trkpt lat="62.635294797283" lon="17.916826150117">
        <ele>21.6</ele>
        <time>2018-03-21T17:53:50Z</time>
      </trkpt>
      <trkpt lat="62.635275015999" lon="17.916803016073">
        <ele>21.4</ele>
        <time>2018-03-21T17:53:51Z</time>
      </trkpt>
      <trkpt lat="62.635256659638" lon="17.916773595604">
        <ele>21.6</ele>
        <time>2018-03-21T17:53:52Z</time>
      </trkpt>
      <trkpt lat="62.635238806191" lon="17.91674878518">
        <ele>21.8</ele>
        <time>2018-03-21T17:53:53Z</time>
      </trkpt>
      <trkpt lat="62.635219444002" lon="17.91671861034">
        <ele>21.6</ele>
        <time>2018-03-21T17:53:54Z</time>
      </trkpt>
      <trkpt lat="62.635202596383" lon="17.916693297002">
        <ele>21.6</ele>
        <time>2018-03-21T17:53:55Z</time>
      </trkpt>
      <trkpt lat="62.635182647461" lon="17.916666558741">
        <ele>21.6</ele>
        <time>2018-03-21T17:53:56Z</time>
      </trkpt>
      <trkpt lat="62.635163285272" lon="17.916635294254">
        <ele>21.8</ele>
        <time>2018-03-21T17:53:57Z</time>
      </trkpt>
      <trkpt lat="62.635144593635" lon="17.91660964564">
        <ele>22.2</ele>
        <time>2018-03-21T17:53:58Z</time>
      </trkpt>
      <trkpt lat="62.635125315265" lon="17.916584835216">
        <ele>22</ele>
        <time>2018-03-21T17:53:59Z</time>
      </trkpt>
      <trkpt lat="62.635109557293" lon="17.916562120267">
        <ele>22.2</ele>
        <time>2018-03-21T17:54:00Z</time>
      </trkpt>
      <trkpt lat="62.63508969219" lon="17.916530185228">
        <ele>22.4</ele>
        <time>2018-03-21T17:54:01Z</time>
      </trkpt>
      <trkpt lat="62.635072509295" lon="17.916499926569">
        <ele>22.8</ele>
        <time>2018-03-21T17:54:02Z</time>
      </trkpt>
      <trkpt lat="62.635054991124" lon="17.91647637343">
        <ele>23</ele>
        <time>2018-03-21T17:54:03Z</time>
      </trkpt>
      <trkpt lat="62.635034204012" lon="17.916444270753">
        <ele>23.2</ele>
        <time>2018-03-21T17:54:04Z</time>
      </trkpt>
      <trkpt lat="62.635014338909" lon="17.916412838628">
        <ele>23.2</ele>
        <time>2018-03-21T17:54:05Z</time>
      </trkpt>
      <trkpt lat="62.635000676412" lon="17.916392219154">
        <ele>23.2</ele>
        <time>2018-03-21T17:54:06Z</time>
      </trkpt>
      <trkpt lat="62.634981733318" lon="17.916360535572">
        <ele>23.4</ele>
        <time>2018-03-21T17:54:07Z</time>
      </trkpt>
      <trkpt lat="62.634965137156" lon="17.916336311881">
        <ele>23.2</ele>
        <time>2018-03-21T17:54:08Z</time>
      </trkpt>
      <trkpt lat="62.634949043908" lon="17.916306472317">
        <ele>23.2</ele>
        <time>2018-03-21T17:54:09Z</time>
      </trkpt>
      <trkpt lat="62.634931944832" lon="17.916284595558">
        <ele>23.4</ele>
        <time>2018-03-21T17:54:10Z</time>
      </trkpt>
      <trkpt lat="62.634912079729" lon="17.916256851469">
        <ele>23.4</ele>
        <time>2018-03-21T17:54:11Z</time>
      </trkpt>
      <trkpt lat="62.634893807187" lon="17.916226341353">
        <ele>23.2</ele>
        <time>2018-03-21T17:54:12Z</time>
      </trkpt>
      <trkpt lat="62.634873942084" lon="17.916194909228">
        <ele>23.4</ele>
        <time>2018-03-21T17:54:13Z</time>
      </trkpt>
      <trkpt lat="62.634851143316" lon="17.916168338605">
        <ele>23.4</ele>
        <time>2018-03-21T17:54:14Z</time>
      </trkpt>
      <trkpt lat="62.634829434195" lon="17.916146797122">
        <ele>23.4</ele>
        <time>2018-03-21T17:54:15Z</time>
      </trkpt>
      <trkpt lat="62.634808311807" lon="17.916108156563">
        <ele>23.4</ele>
        <time>2018-03-21T17:54:16Z</time>
      </trkpt>
      <trkpt lat="62.634790374541" lon="17.916076724438">
        <ele>23.2</ele>
        <time>2018-03-21T17:54:17Z</time>
      </trkpt>
      <trkpt lat="62.634773275465" lon="17.916052752204">
        <ele>23.4</ele>
        <time>2018-03-21T17:54:18Z</time>
      </trkpt>
      <trkpt lat="62.634750979611" lon="17.916020984803">
        <ele>23.4</ele>
        <time>2018-03-21T17:54:19Z</time>
      </trkpt>
      <trkpt lat="62.634734048173" lon="17.915999694777">
        <ele>23.2</ele>
        <time>2018-03-21T17:54:20Z</time>
      </trkpt>
      <trkpt lat="62.634713009604" lon="17.915971363955">
        <ele>23.2</ele>
        <time>2018-03-21T17:54:21Z</time>
      </trkpt>
      <trkpt lat="62.634692809225" lon="17.91594579916">
        <ele>23.4</ele>
        <time>2018-03-21T17:54:22Z</time>
      </trkpt>
      <trkpt lat="62.63467562633" lon="17.91592232984">
        <ele>23.6</ele>
        <time>2018-03-21T17:54:23Z</time>
      </trkpt>
      <trkpt lat="62.63465802434" lon="17.91589383138">
        <ele>23.4</ele>
        <time>2018-03-21T17:54:24Z</time>
      </trkpt>
      <trkpt lat="62.634640757626" lon="17.915867679852">
        <ele>23.6</ele>
        <time>2018-03-21T17:54:25Z</time>
      </trkpt>
      <trkpt lat="62.634619132324" lon="17.915839181392">
        <ele>23.8</ele>
        <time>2018-03-21T17:54:26Z</time>
      </trkpt>
      <trkpt lat="62.634595914461" lon="17.915816047348">
        <ele>23.6</ele>
        <time>2018-03-21T17:54:27Z</time>
      </trkpt>
      <trkpt lat="62.634578144833" lon="17.915794002951">
        <ele>23.6</ele>
        <time>2018-03-21T17:54:28Z</time>
      </trkpt>
      <trkpt lat="62.634556687169" lon="17.915768689613">
        <ele>23.6</ele>
        <time>2018-03-21T17:54:29Z</time>
      </trkpt>
      <trkpt lat="62.634540510102" lon="17.915747064311">
        <ele>23.6</ele>
        <time>2018-03-21T17:54:30Z</time>
      </trkpt>
      <trkpt lat="62.634519555352" lon="17.91572786976">
        <ele>23.4</ele>
        <time>2018-03-21T17:54:31Z</time>
      </trkpt>
      <trkpt lat="62.634499187335" lon="17.915703394612">
        <ele>23.4</ele>
        <time>2018-03-21T17:54:32Z</time>
      </trkpt>
      <trkpt lat="62.634481920621" lon="17.91568009293">
        <ele>23.4</ele>
        <time>2018-03-21T17:54:33Z</time>
      </trkpt>
      <trkpt lat="62.634466497925" lon="17.915646984425">
        <ele>23.8</ele>
        <time>2018-03-21T17:54:34Z</time>
      </trkpt>
      <trkpt lat="62.634445878451" lon="17.915622090182">
        <ele>23.6</ele>
        <time>2018-03-21T17:54:35Z</time>
      </trkpt>
      <trkpt lat="62.634423666416" lon="17.915596106292">
        <ele>23.6</ele>
        <time>2018-03-21T17:54:36Z</time>
      </trkpt>
      <trkpt lat="62.634399107449" lon="17.915564171253">
        <ele>24</ele>
        <time>2018-03-21T17:54:37Z</time>
      </trkpt>
      <trkpt lat="62.634376895414" lon="17.91554346796">
        <ele>24</ele>
        <time>2018-03-21T17:54:38Z</time>
      </trkpt>
      <trkpt lat="62.634361137442" lon="17.91551999864">
        <ele>23.8</ele>
        <time>2018-03-21T17:54:39Z</time>
      </trkpt>
      <trkpt lat="62.634341356158" lon="17.915496026406">
        <ele>24</ele>
        <time>2018-03-21T17:54:40Z</time>
      </trkpt>
      <trkpt lat="62.634323083616" lon="17.915475993665">
        <ele>24.2</ele>
        <time>2018-03-21T17:54:41Z</time>
      </trkpt>
      <trkpt lat="62.634303553789" lon="17.915447327567">
        <ele>24.2</ele>
        <time>2018-03-21T17:54:42Z</time>
      </trkpt>
      <trkpt lat="62.634284107781" lon="17.915426372817">
        <ele>24.2</ele>
        <time>2018-03-21T17:54:43Z</time>
      </trkpt>
      <trkpt lat="62.634261979565" lon="17.915401730031">
        <ele>24.2</ele>
        <time>2018-03-21T17:54:44Z</time>
      </trkpt>
      <trkpt lat="62.634243874661" lon="17.915381529652">
        <ele>24.4</ele>
        <time>2018-03-21T17:54:45Z</time>
      </trkpt>
      <trkpt lat="62.634222919911" lon="17.915354623753">
        <ele>24.4</ele>
        <time>2018-03-21T17:54:46Z</time>
      </trkpt>
      <trkpt lat="62.634203306265" lon="17.915333585184">
        <ele>24.4</ele>
        <time>2018-03-21T17:54:47Z</time>
      </trkpt>
      <trkpt lat="62.634189895225" lon="17.915316150832">
        <ele>24.4</ele>
        <time>2018-03-21T17:54:48Z</time>
      </trkpt>
      <trkpt lat="62.634166593543" lon="17.915291256589">
        <ele>24.4</ele>
        <time>2018-03-21T17:54:49Z</time>
      </trkpt>
      <trkpt lat="62.634147818087" lon="17.915268709278">
        <ele>24.6</ele>
        <time>2018-03-21T17:54:50Z</time>
      </trkpt>
      <trkpt lat="62.634123762034" lon="17.91524171956">
        <ele>24.6</ele>
        <time>2018-03-21T17:54:51Z</time>
      </trkpt>
      <trkpt lat="62.634103394017" lon="17.915213304919">
        <ele>24.6</ele>
        <time>2018-03-21T17:54:52Z</time>
      </trkpt>
      <trkpt lat="62.634083948009" lon="17.915193607454">
        <ele>24.8</ele>
        <time>2018-03-21T17:54:53Z</time>
      </trkpt>
      <trkpt lat="62.634065172553" lon="17.915173071799">
        <ele>25</ele>
        <time>2018-03-21T17:54:54Z</time>
      </trkpt>
      <trkpt lat="62.634048073477" lon="17.915152787601">
        <ele>25.2</ele>
        <time>2018-03-21T17:54:55Z</time>
      </trkpt>
      <trkpt lat="62.634027370184" lon="17.915123115675">
        <ele>25</ele>
        <time>2018-03-21T17:54:56Z</time>
      </trkpt>
      <trkpt lat="62.634009516737" lon="17.915098053794">
        <ele>25</ele>
        <time>2018-03-21T17:54:57Z</time>
      </trkpt>
      <trkpt lat="62.633992082385" lon="17.915076009397">
        <ele>25.2</ele>
        <time>2018-03-21T17:54:58Z</time>
      </trkpt>
      <trkpt lat="62.633971211454" lon="17.915052623896">
        <ele>25.2</ele>
        <time>2018-03-21T17:54:59Z</time>
      </trkpt>
      <trkpt lat="62.633954280016" lon="17.915035357182">
        <ele>25.2</ele>
        <time>2018-03-21T17:55:00Z</time>
      </trkpt>
      <trkpt lat="62.633929972506" lon="17.915009708568">
        <ele>25.2</ele>
        <time>2018-03-21T17:55:01Z</time>
      </trkpt>
      <trkpt lat="62.633907257557" lon="17.914989340551">
        <ele>25.4</ele>
        <time>2018-03-21T17:55:02Z</time>
      </trkpt>
      <trkpt lat="62.63388688954" lon="17.914970229819">
        <ele>25.4</ele>
        <time>2018-03-21T17:55:03Z</time>
      </trkpt>
      <trkpt lat="62.633862079116" lon="17.9149450003">
        <ele>25.4</ele>
        <time>2018-03-21T17:55:04Z</time>
      </trkpt>
      <trkpt lat="62.633844225669" lon="17.914926811577">
        <ele>25.4</ele>
        <time>2018-03-21T17:55:05Z</time>
      </trkpt>
      <trkpt lat="62.633822181272" lon="17.914904180447">
        <ele>25.6</ele>
        <time>2018-03-21T17:55:06Z</time>
      </trkpt>
      <trkpt lat="62.633800388332" lon="17.914880794946">
        <ele>25.4</ele>
        <time>2018-03-21T17:55:07Z</time>
      </trkpt>
      <trkpt lat="62.633783875989" lon="17.914859672558">
        <ele>25.6</ele>
        <time>2018-03-21T17:55:08Z</time>
      </trkpt>
      <trkpt lat="62.633764597619" lon="17.914834275401">
        <ele>25.6</ele>
        <time>2018-03-21T17:55:09Z</time>
      </trkpt>
      <trkpt lat="62.63374607362" lon="17.914813488289">
        <ele>25.6</ele>
        <time>2018-03-21T17:55:10Z</time>
      </trkpt>
      <trkpt lat="62.633725202689" lon="17.914791360073">
        <ele>25.4</ele>
        <time>2018-03-21T17:55:11Z</time>
      </trkpt>
      <trkpt lat="62.633707684518" lon="17.914770321504">
        <ele>25.6</ele>
        <time>2018-03-21T17:55:12Z</time>
      </trkpt>
      <trkpt lat="62.633687567958" lon="17.91475137841">
        <ele>25.8</ele>
        <time>2018-03-21T17:55:13Z</time>
      </trkpt>
      <trkpt lat="62.633665691199" lon="17.914735117524">
        <ele>25.6</ele>
        <time>2018-03-21T17:55:14Z</time>
      </trkpt>
      <trkpt lat="62.633648173028" lon="17.914719611009">
        <ele>25.6</ele>
        <time>2018-03-21T17:55:15Z</time>
      </trkpt>
      <trkpt lat="62.633635683997" lon="17.9147019252">
        <ele>25.8</ele>
        <time>2018-03-21T17:55:16Z</time>
      </trkpt>
      <trkpt lat="62.633619255473" lon="17.914686670142">
        <ele>25.8</ele>
        <time>2018-03-21T17:55:17Z</time>
      </trkpt>
      <trkpt lat="62.633609867745" lon="17.91467510312">
        <ele>25.8</ele>
        <time>2018-03-21T17:55:18Z</time>
      </trkpt>
      <trkpt lat="62.633590086461" lon="17.914656830578">
        <ele>25.6</ele>
        <time>2018-03-21T17:55:19Z</time>
      </trkpt>
      <trkpt lat="62.633576926878" lon="17.914640234416">
        <ele>25.6</ele>
        <time>2018-03-21T17:55:20Z</time>
      </trkpt>
      <trkpt lat="62.633558235241" lon="17.914619698761">
        <ele>25.8</ele>
        <time>2018-03-21T17:55:21Z</time>
      </trkpt>
      <trkpt lat="62.633535520292" lon="17.914596564717">
        <ele>25.8</ele>
        <time>2018-03-21T17:55:22Z</time>
      </trkpt>
      <trkpt lat="62.633511045144" lon="17.914574604139">
        <ele>25.6</ele>
        <time>2018-03-21T17:55:23Z</time>
      </trkpt>
      <trkpt lat="62.633496376819" lon="17.914556666873">
        <ele>25.8</ele>
        <time>2018-03-21T17:55:24Z</time>
      </trkpt>
      <trkpt lat="62.633473075137" lon="17.914538981064">
        <ele>25.8</ele>
        <time>2018-03-21T17:55:25Z</time>
      </trkpt>
      <trkpt lat="62.633452036568" lon="17.914528000775">
        <ele>25.6</ele>
        <time>2018-03-21T17:55:26Z</time>
      </trkpt>
      <trkpt lat="62.633429656895" lon="17.91451500883">
        <ele>25.8</ele>
        <time>2018-03-21T17:55:27Z</time>
      </trkpt>
      <trkpt lat="62.633408450688" lon="17.914499167039">
        <ele>25.8</ele>
        <time>2018-03-21T17:55:28Z</time>
      </trkpt>
      <trkpt lat="62.6333873283" lon="17.914485001628">
        <ele>25.8</ele>
        <time>2018-03-21T17:55:29Z</time>
      </trkpt>
      <trkpt lat="62.633370648319" lon="17.914467651095">
        <ele>25.8</ele>
        <time>2018-03-21T17:55:30Z</time>
      </trkpt>
      <trkpt lat="62.633347598094" lon="17.914448875639">
        <ele>26</ele>
        <time>2018-03-21T17:55:31Z</time>
      </trkpt>
      <trkpt lat="62.633322033299" lon="17.914427250337">
        <ele>26</ele>
        <time>2018-03-21T17:55:32Z</time>
      </trkpt>
      <trkpt lat="62.63330434749" lon="17.914402272275">
        <ele>25.8</ele>
        <time>2018-03-21T17:55:33Z</time>
      </trkpt>
      <trkpt lat="62.633284901482" lon="17.914381485163">
        <ele>26</ele>
        <time>2018-03-21T17:55:34Z</time>
      </trkpt>
      <trkpt lat="62.633265874569" lon="17.914363883173">
        <ele>26</ele>
        <time>2018-03-21T17:55:35Z</time>
      </trkpt>
      <trkpt lat="62.633245422733" lon="17.914347454649">
        <ele>26</ele>
        <time>2018-03-21T17:55:36Z</time>
      </trkpt>
      <trkpt lat="62.633225641449" lon="17.914334043609">
        <ele>25.8</ele>
        <time>2018-03-21T17:55:37Z</time>
      </trkpt>
      <trkpt lat="62.633202507405" lon="17.914317950361">
        <ele>25.8</ele>
        <time>2018-03-21T17:55:38Z</time>
      </trkpt>
      <trkpt lat="62.633180882103" lon="17.914303030579">
        <ele>26</ele>
        <time>2018-03-21T17:55:39Z</time>
      </trkpt>
      <trkpt lat="62.633159927353" lon="17.914291295919">
        <ele>25.8</ele>
        <time>2018-03-21T17:55:40Z</time>
      </trkpt>
      <trkpt lat="62.63313754768" lon="17.914268329513">
        <ele>25.8</ele>
        <time>2018-03-21T17:55:41Z</time>
      </trkpt>
      <trkpt lat="62.633118520767" lon="17.914250643704">
        <ele>25.8</ele>
        <time>2018-03-21T17:55:42Z</time>
      </trkpt>
      <trkpt lat="62.633094883809" lon="17.914226336194">
        <ele>25.8</ele>
        <time>2018-03-21T17:55:43Z</time>
      </trkpt>
      <trkpt lat="62.633074012878" lon="17.91420823129">
        <ele>25.8</ele>
        <time>2018-03-21T17:55:44Z</time>
      </trkpt>
      <trkpt lat="62.633054818327" lon="17.914192389499">
        <ele>26</ele>
        <time>2018-03-21T17:55:45Z</time>
      </trkpt>
      <trkpt lat="62.633027996247" lon="17.91416967455">
        <ele>26</ele>
        <time>2018-03-21T17:55:46Z</time>
      </trkpt>
      <trkpt lat="62.633001844719" lon="17.914150060904">
        <ele>26</ele>
        <time>2018-03-21T17:55:47Z</time>
      </trkpt>
      <trkpt lat="62.632978626856" lon="17.914133213285">
        <ele>26.2</ele>
        <time>2018-03-21T17:55:48Z</time>
      </trkpt>
      <trkpt lat="62.632950296034" lon="17.914105301558">
        <ele>26.2</ele>
        <time>2018-03-21T17:55:49Z</time>
      </trkpt>
      <trkpt lat="62.632929089827" lon="17.914090297957">
        <ele>26</ele>
        <time>2018-03-21T17:55:50Z</time>
      </trkpt>
      <trkpt lat="62.632901597195" lon="17.914071941596">
        <ele>26</ele>
        <time>2018-03-21T17:55:51Z</time>
      </trkpt>
      <trkpt lat="62.632879217522" lon="17.914058949651">
        <ele>26.2</ele>
        <time>2018-03-21T17:55:52Z</time>
      </trkpt>
      <trkpt lat="62.632862118446" lon="17.91404394605">
        <ele>26</ele>
        <time>2018-03-21T17:55:53Z</time>
      </trkpt>
      <trkpt lat="62.632839906411" lon="17.914028607173">
        <ele>25.8</ele>
        <time>2018-03-21T17:55:54Z</time>
      </trkpt>
      <trkpt lat="62.632818867842" lon="17.914017710703">
        <ele>26</ele>
        <time>2018-03-21T17:55:55Z</time>
      </trkpt>
      <trkpt lat="62.632793470685" lon="17.91400119836">
        <ele>26.2</ele>
        <time>2018-03-21T17:55:56Z</time>
      </trkpt>
      <trkpt lat="62.632768073528" lon="17.913982506723">
        <ele>25.8</ele>
        <time>2018-03-21T17:55:57Z</time>
      </trkpt>
      <trkpt lat="62.632744268932" lon="17.913966497294">
        <ele>25.8</ele>
        <time>2018-03-21T17:55:58Z</time>
      </trkpt>
      <trkpt lat="62.632721637802" lon="17.91395258334">
        <ele>26</ele>
        <time>2018-03-21T17:55:59Z</time>
      </trkpt>
      <trkpt lat="62.632700263957" lon="17.913940513404">
        <ele>26</ele>
        <time>2018-03-21T17:56:00Z</time>
      </trkpt>
      <trkpt lat="62.632674531524" lon="17.913928611106">
        <ele>25.8</ele>
        <time>2018-03-21T17:56:01Z</time>
      </trkpt>
      <trkpt lat="62.632650475471" lon="17.913911176754">
        <ele>25.8</ele>
        <time>2018-03-21T17:56:02Z</time>
      </trkpt>
      <trkpt lat="62.632632705843" lon="17.913899861189">
        <ele>25.8</ele>
        <time>2018-03-21T17:56:03Z</time>
      </trkpt>
      <trkpt lat="62.632607643962" lon="17.913882259199">
        <ele>25.6</ele>
        <time>2018-03-21T17:56:04Z</time>
      </trkpt>
      <trkpt lat="62.632585431927" lon="17.913865076304">
        <ele>25.6</ele>
        <time>2018-03-21T17:56:05Z</time>
      </trkpt>
      <trkpt lat="62.632559531856" lon="17.913848731599">
        <ele>25.8</ele>
        <time>2018-03-21T17:56:06Z</time>
      </trkpt>
      <trkpt lat="62.632533631785" lon="17.91383439855">
        <ele>25.8</ele>
        <time>2018-03-21T17:56:07Z</time>
      </trkpt>
      <trkpt lat="62.632510497741" lon="17.913822244795">
        <ele>25.6</ele>
        <time>2018-03-21T17:56:08Z</time>
      </trkpt>
      <trkpt lat="62.632486693145" lon="17.913808498479">
        <ele>25.8</ele>
        <time>2018-03-21T17:56:09Z</time>
      </trkpt>
      <trkpt lat="62.632465403119" lon="17.913797685828">
        <ele>26</ele>
        <time>2018-03-21T17:56:10Z</time>
      </trkpt>
      <trkpt lat="62.632440508876" lon="17.913779832381">
        <ele>25.8</ele>
        <time>2018-03-21T17:56:11Z</time>
      </trkpt>
      <trkpt lat="62.632416369004" lon="17.913764409685">
        <ele>25.8</ele>
        <time>2018-03-21T17:56:12Z</time>
      </trkpt>
      <trkpt lat="62.632395917168" lon="17.913756111604">
        <ele>26</ele>
        <time>2018-03-21T17:56:13Z</time>
      </trkpt>
      <trkpt lat="62.632373705133" lon="17.913745215134">
        <ele>25.8</ele>
        <time>2018-03-21T17:56:14Z</time>
      </trkpt>
      <trkpt lat="62.632351074003" lon="17.913732642284">
        <ele>25.8</ele>
        <time>2018-03-21T17:56:15Z</time>
      </trkpt>
      <trkpt lat="62.632327269407" lon="17.91371789014">
        <ele>25.6</ele>
        <time>2018-03-21T17:56:16Z</time>
      </trkpt>
      <trkpt lat="62.63231528329" lon="17.913707496584">
        <ele>25.6</ele>
        <time>2018-03-21T17:56:17Z</time>
      </trkpt>
      <trkpt lat="62.632292735979" lon="17.913691151879">
        <ele>25.6</ele>
        <time>2018-03-21T17:56:18Z</time>
      </trkpt>
      <trkpt lat="62.63226750646" lon="17.913678662848">
        <ele>25.6</ele>
        <time>2018-03-21T17:56:19Z</time>
      </trkpt>
      <trkpt lat="62.632244456235" lon="17.913662150505">
        <ele>25.4</ele>
        <time>2018-03-21T17:56:20Z</time>
      </trkpt>
      <trkpt lat="62.632219645811" lon="17.913649074741">
        <ele>25.4</ele>
        <time>2018-03-21T17:56:21Z</time>
      </trkpt>
      <trkpt lat="62.63219374574" lon="17.913636166615">
        <ele>25.4</ele>
        <time>2018-03-21T17:56:22Z</time>
      </trkpt>
      <trkpt lat="62.632172371895" lon="17.913622085023">
        <ele>25.2</ele>
        <time>2018-03-21T17:56:23Z</time>
      </trkpt>
      <trkpt lat="62.632151920059" lon="17.913605824137">
        <ele>25.2</ele>
        <time>2018-03-21T17:56:24Z</time>
      </trkpt>
      <trkpt lat="62.632129959481" lon="17.9135871325">
        <ele>25.2</ele>
        <time>2018-03-21T17:56:25Z</time>
      </trkpt>
      <trkpt lat="62.632106238704" lon="17.913570201062">
        <ele>25</ele>
        <time>2018-03-21T17:56:26Z</time>
      </trkpt>
      <trkpt lat="62.632086038325" lon="17.913555197461">
        <ele>25</ele>
        <time>2018-03-21T17:56:27Z</time>
      </trkpt>
      <trkpt lat="62.632064413023" lon="17.913542373154">
        <ele>25</ele>
        <time>2018-03-21T17:56:28Z</time>
      </trkpt>
      <trkpt lat="62.632042117169" lon="17.913532817788">
        <ele>25</ele>
        <time>2018-03-21T17:56:29Z</time>
      </trkpt>
      <trkpt lat="62.632020408048" lon="17.913518987653">
        <ele>25</ele>
        <time>2018-03-21T17:56:30Z</time>
      </trkpt>
      <trkpt lat="62.631995597624" lon="17.913505995708">
        <ele>25.2</ele>
        <time>2018-03-21T17:56:31Z</time>
      </trkpt>
      <trkpt lat="62.631972547399" lon="17.913490153917">
        <ele>25.2</ele>
        <time>2018-03-21T17:56:32Z</time>
      </trkpt>
      <trkpt lat="62.631949497174" lon="17.913480095637">
        <ele>25</ele>
        <time>2018-03-21T17:56:33Z</time>
      </trkpt>
      <trkpt lat="62.631924100017" lon="17.913470540271">
        <ele>25</ele>
        <time>2018-03-21T17:56:34Z</time>
      </trkpt>
      <trkpt lat="62.631900965973" lon="17.913461990733">
        <ele>25.4</ele>
        <time>2018-03-21T17:56:35Z</time>
      </trkpt>
      <trkpt lat="62.631873221884" lon="17.913449501702">
        <ele>25.4</ele>
        <time>2018-03-21T17:56:36Z</time>
      </trkpt>
      <trkpt lat="62.631849417288" lon="17.913439946336">
        <ele>25</ele>
        <time>2018-03-21T17:56:37Z</time>
      </trkpt>
      <trkpt lat="62.63182494214" lon="17.913427708762">
        <ele>25.2</ele>
        <time>2018-03-21T17:56:38Z</time>
      </trkpt>
      <trkpt lat="62.631802897743" lon="17.913419745957">
        <ele>25.2</ele>
        <time>2018-03-21T17:56:39Z</time>
      </trkpt>
      <trkpt lat="62.631776494758" lon="17.91340943622">
        <ele>25</ele>
        <time>2018-03-21T17:56:40Z</time>
      </trkpt>
      <trkpt lat="62.631751349058" lon="17.913398036836">
        <ele>24.8</ele>
        <time>2018-03-21T17:56:41Z</time>
      </trkpt>
      <trkpt lat="62.631728298833" lon="17.913387559461">
        <ele>24.6</ele>
        <time>2018-03-21T17:56:42Z</time>
      </trkpt>
      <trkpt lat="62.631702314943" lon="17.913376914448">
        <ele>24.8</ele>
        <time>2018-03-21T17:56:43Z</time>
      </trkpt>
      <trkpt lat="62.631677588338" lon="17.91336668853">
        <ele>24.8</ele>
        <time>2018-03-21T17:56:44Z</time>
      </trkpt>
      <trkpt lat="62.631654119018" lon="17.913358725725">
        <ele>24.6</ele>
        <time>2018-03-21T17:56:45Z</time>
      </trkpt>
      <trkpt lat="62.631632409897" lon="17.913347242522">
        <ele>24.8</ele>
        <time>2018-03-21T17:56:46Z</time>
      </trkpt>
      <trkpt lat="62.631615562278" lon="17.913336346052">
        <ele>25</ele>
        <time>2018-03-21T17:56:47Z</time>
      </trkpt>
      <trkpt lat="62.631593685519" lon="17.913320504261">
        <ele>24.8</ele>
        <time>2018-03-21T17:56:48Z</time>
      </trkpt>
      <trkpt lat="62.631562085756" lon="17.913310697438">
        <ele>24.6</ele>
        <time>2018-03-21T17:56:49Z</time>
      </trkpt>
      <trkpt lat="62.631537023875" lon="17.913309775429">
        <ele>24.6</ele>
        <time>2018-03-21T17:56:50Z</time>
      </trkpt>
      <trkpt lat="62.631512381089" lon="17.913297705493">
        <ele>24.6</ele>
        <time>2018-03-21T17:56:51Z</time>
      </trkpt>
      <trkpt lat="62.631493270357" lon="17.913283875358">
        <ele>24.4</ele>
        <time>2018-03-21T17:56:52Z</time>
      </trkpt>
      <trkpt lat="62.631473153797" lon="17.913280774055">
        <ele>24.6</ele>
        <time>2018-03-21T17:56:53Z</time>
      </trkpt>
      <trkpt lat="62.631450103572" lon="17.913277756571">
        <ele>24.8</ele>
        <time>2018-03-21T17:56:54Z</time>
      </trkpt>
      <trkpt lat="62.63143602198" lon="17.913275074363">
        <ele>24.6</ele>
        <time>2018-03-21T17:56:55Z</time>
      </trkpt>
      <trkpt lat="62.631404757493" lon="17.913273481802">
        <ele>24.4</ele>
        <time>2018-03-21T17:56:56Z</time>
      </trkpt>
      <trkpt lat="62.631376426671" lon="17.913269123214">
        <ele>24.6</ele>
        <time>2018-03-21T17:56:57Z</time>
      </trkpt>
      <trkpt lat="62.6313505266" lon="17.913266021911">
        <ele>24.4</ele>
        <time>2018-03-21T17:56:58Z</time>
      </trkpt>
      <trkpt lat="62.631327308737" lon="17.913256801821">
        <ele>24.2</ele>
        <time>2018-03-21T17:56:59Z</time>
      </trkpt>
      <trkpt lat="62.631306353987" lon="17.913250850672">
        <ele>24.4</ele>
        <time>2018-03-21T17:57:00Z</time>
      </trkpt>
      <trkpt lat="62.63127928045" lon="17.913242720229">
        <ele>24.4</ele>
        <time>2018-03-21T17:57:01Z</time>
      </trkpt>
      <trkpt lat="62.631254721483" lon="17.913238529279">
        <ele>24.2</ele>
        <time>2018-03-21T17:57:02Z</time>
      </trkpt>
      <trkpt lat="62.631233515276" lon="17.913238696917">
        <ele>24.2</ele>
        <time>2018-03-21T17:57:03Z</time>
      </trkpt>
      <trkpt lat="62.631206106463" lon="17.913236601442">
        <ele>24.2</ele>
        <time>2018-03-21T17:57:04Z</time>
      </trkpt>
      <trkpt lat="62.631182972419" lon="17.913234338329">
        <ele>24.4</ele>
        <time>2018-03-21T17:57:05Z</time>
      </trkpt>
      <trkpt lat="62.631157407624" lon="17.913234003053">
        <ele>24.4</ele>
        <time>2018-03-21T17:57:06Z</time>
      </trkpt>
      <trkpt lat="62.631130166449" lon="17.913230734112">
        <ele>24.2</ele>
        <time>2018-03-21T17:57:07Z</time>
      </trkpt>
      <trkpt lat="62.631103595826" lon="17.913233667777">
        <ele>24.2</ele>
        <time>2018-03-21T17:57:08Z</time>
      </trkpt>
      <trkpt lat="62.631076941384" lon="17.913238110184">
        <ele>24.2</ele>
        <time>2018-03-21T17:57:09Z</time>
      </trkpt>
      <trkpt lat="62.631052717693" lon="17.913229728284">
        <ele>24</ele>
        <time>2018-03-21T17:57:10Z</time>
      </trkpt>
      <trkpt lat="62.631028242545" lon="17.913216820158">
        <ele>24</ele>
        <time>2018-03-21T17:57:11Z</time>
      </trkpt>
      <trkpt lat="62.631005779053" lon="17.913209024991">
        <ele>24</ele>
        <time>2018-03-21T17:57:12Z</time>
      </trkpt>
      <trkpt lat="62.630988679977" lon="17.913179604522">
        <ele>24</ele>
        <time>2018-03-21T17:57:13Z</time>
      </trkpt>
      <trkpt lat="62.63097501748" lon="17.913138197936">
        <ele>23.8</ele>
        <time>2018-03-21T17:57:14Z</time>
      </trkpt>
      <trkpt lat="62.630959762422" lon="17.913085140509">
        <ele>23.6</ele>
        <time>2018-03-21T17:57:15Z</time>
      </trkpt>
      <trkpt lat="62.630946351382" lon="17.913030490521">
        <ele>23.6</ele>
        <time>2018-03-21T17:57:16Z</time>
      </trkpt>
      <trkpt lat="62.630926653917" lon="17.912998806939">
        <ele>23.4</ele>
        <time>2018-03-21T17:57:17Z</time>
      </trkpt>
      <trkpt lat="62.630906704995" lon="17.912986569365">
        <ele>23</ele>
        <time>2018-03-21T17:57:18Z</time>
      </trkpt>
      <trkpt lat="62.630881894571" lon="17.912979863845">
        <ele>23</ele>
        <time>2018-03-21T17:57:19Z</time>
      </trkpt>
      <trkpt lat="62.630861442735" lon="17.912979612388">
        <ele>23</ele>
        <time>2018-03-21T17:57:20Z</time>
      </trkpt>
      <trkpt lat="62.630833531008" lon="17.912977684551">
        <ele>23</ele>
        <time>2018-03-21T17:57:21Z</time>
      </trkpt>
      <trkpt lat="62.630810564602" lon="17.912972823049">
        <ele>23.2</ele>
        <time>2018-03-21T17:57:22Z</time>
      </trkpt>
      <trkpt lat="62.630784245436" lon="17.91296603371">
        <ele>23.4</ele>
        <time>2018-03-21T17:57:23Z</time>
      </trkpt>
      <trkpt lat="62.630760859935" lon="17.912959076733">
        <ele>23.4</ele>
        <time>2018-03-21T17:57:24Z</time>
      </trkpt>
      <trkpt lat="62.630740072823" lon="17.912951616842">
        <ele>23.2</ele>
        <time>2018-03-21T17:57:25Z</time>
      </trkpt>
      <trkpt lat="62.630714508028" lon="17.912940971829">
        <ele>23.2</ele>
        <time>2018-03-21T17:57:26Z</time>
      </trkpt>
      <trkpt lat="62.630693301821" lon="17.912934601585">
        <ele>23</ele>
        <time>2018-03-21T17:57:27Z</time>
      </trkpt>
      <trkpt lat="62.630669664863" lon="17.91293250611">
        <ele>22.6</ele>
        <time>2018-03-21T17:57:28Z</time>
      </trkpt>
      <trkpt lat="62.630645189715" lon="17.912928147522">
        <ele>22.8</ele>
        <time>2018-03-21T17:57:29Z</time>
      </trkpt>
      <trkpt lat="62.63062465406" lon="17.912922531649">
        <ele>22.6</ele>
        <time>2018-03-21T17:57:30Z</time>
      </trkpt>
      <trkpt lat="62.630598586351" lon="17.912916748138">
        <ele>22.4</ele>
        <time>2018-03-21T17:57:31Z</time>
      </trkpt>
      <trkpt lat="62.630575452307" lon="17.912912724826">
        <ele>22.6</ele>
        <time>2018-03-21T17:57:32Z</time>
      </trkpt>
      <trkpt lat="62.630553659367" lon="17.912906103125">
        <ele>22.6</ele>
        <time>2018-03-21T17:57:33Z</time>
      </trkpt>
      <trkpt lat="62.630527172563" lon="17.912890261334">
        <ele>22.2</ele>
        <time>2018-03-21T17:57:34Z</time>
      </trkpt>
      <trkpt lat="62.63050730746" lon="17.912878694312">
        <ele>22.2</ele>
        <time>2018-03-21T17:57:35Z</time>
      </trkpt>
      <trkpt lat="62.630480988294" lon="17.912873748991">
        <ele>22.4</ele>
        <time>2018-03-21T17:57:36Z</time>
      </trkpt>
      <trkpt lat="62.630451903101" lon="17.91287383281">
        <ele>22.2</ele>
        <time>2018-03-21T17:57:37Z</time>
      </trkpt>
      <trkpt lat="62.630427511772" lon="17.912873246077">
        <ele>22</ele>
        <time>2018-03-21T17:57:38Z</time>
      </trkpt>
      <trkpt lat="62.630404377728" lon="17.912875928285">
        <ele>22</ele>
        <time>2018-03-21T17:57:39Z</time>
      </trkpt>
      <trkpt lat="62.630380489313" lon="17.91287970014">
        <ele>21.8</ele>
        <time>2018-03-21T17:57:40Z</time>
      </trkpt>
      <trkpt lat="62.630355008337" lon="17.912880286873">
        <ele>21.4</ele>
        <time>2018-03-21T17:57:41Z</time>
      </trkpt>
      <trkpt lat="62.630330030275" lon="17.912881544158">
        <ele>21.4</ele>
        <time>2018-03-21T17:57:42Z</time>
      </trkpt>
      <trkpt lat="62.630306477136" lon="17.912887160031">
        <ele>21.2</ele>
        <time>2018-03-21T17:57:43Z</time>
      </trkpt>
      <trkpt lat="62.630283929825" lon="17.912892021533">
        <ele>21</ele>
        <time>2018-03-21T17:57:44Z</time>
      </trkpt>
      <trkpt lat="62.630260209048" lon="17.912895458112">
        <ele>21</ele>
        <time>2018-03-21T17:57:45Z</time>
      </trkpt>
      <trkpt lat="62.630235482443" lon="17.912899146148">
        <ele>21</ele>
        <time>2018-03-21T17:57:46Z</time>
      </trkpt>
      <trkpt lat="62.630211761666" lon="17.912903923831">
        <ele>20.8</ele>
        <time>2018-03-21T17:57:47Z</time>
      </trkpt>
      <trkpt lat="62.630188376165" lon="17.91290652222">
        <ele>20.8</ele>
        <time>2018-03-21T17:57:48Z</time>
      </trkpt>
      <trkpt lat="62.630162140818" lon="17.912911132265">
        <ele>20.6</ele>
        <time>2018-03-21T17:57:49Z</time>
      </trkpt>
      <trkpt lat="62.630141772801" lon="17.912913479197">
        <ele>20.6</ele>
        <time>2018-03-21T17:57:50Z</time>
      </trkpt>
      <trkpt lat="62.63011503454" lon="17.912915071758">
        <ele>20.6</ele>
        <time>2018-03-21T17:57:51Z</time>
      </trkpt>
      <trkpt lat="62.630091984315" lon="17.912920687631">
        <ele>20.4</ele>
        <time>2018-03-21T17:57:52Z</time>
      </trkpt>
      <trkpt lat="62.630067760624" lon="17.912922615468">
        <ele>20.4</ele>
        <time>2018-03-21T17:57:53Z</time>
      </trkpt>
      <trkpt lat="62.63004378839" lon="17.912926219685">
        <ele>20.4</ele>
        <time>2018-03-21T17:57:54Z</time>
      </trkpt>
      <trkpt lat="62.630021073441" lon="17.912929907721">
        <ele>20.2</ele>
        <time>2018-03-21T17:57:55Z</time>
      </trkpt>
      <trkpt lat="62.629992155886" lon="17.912931248825">
        <ele>20.2</ele>
        <time>2018-03-21T17:57:56Z</time>
      </trkpt>
      <trkpt lat="62.629967848376" lon="17.912935188318">
        <ele>20.2</ele>
        <time>2018-03-21T17:57:57Z</time>
      </trkpt>
      <trkpt lat="62.629944714332" lon="17.912941558562">
        <ele>20</ele>
        <time>2018-03-21T17:57:58Z</time>
      </trkpt>
      <trkpt lat="62.629919484813" lon="17.912946503883">
        <ele>19.8</ele>
        <time>2018-03-21T17:57:59Z</time>
      </trkpt>
      <trkpt lat="62.629898446244" lon="17.912953125584">
        <ele>20</ele>
        <time>2018-03-21T17:58:00Z</time>
      </trkpt>
      <trkpt lat="62.629874390191" lon="17.912958741457">
        <ele>19.8</ele>
        <time>2018-03-21T17:58:01Z</time>
      </trkpt>
      <trkpt lat="62.629850585595" lon="17.912960753113">
        <ele>19.6</ele>
        <time>2018-03-21T17:58:02Z</time>
      </trkpt>
      <trkpt lat="62.629829127931" lon="17.912963770597">
        <ele>19.6</ele>
        <time>2018-03-21T17:58:03Z</time>
      </trkpt>
      <trkpt lat="62.629805239516" lon="17.912972068678">
        <ele>19.6</ele>
        <time>2018-03-21T17:58:04Z</time>
      </trkpt>
      <trkpt lat="62.629783698033" lon="17.912977349275">
        <ele>19.4</ele>
        <time>2018-03-21T17:58:05Z</time>
      </trkpt>
      <trkpt lat="62.62976215655" lon="17.912987742831">
        <ele>19.4</ele>
        <time>2018-03-21T17:58:06Z</time>
      </trkpt>
      <trkpt lat="62.629736088841" lon="17.912995957093">
        <ele>19.2</ele>
        <time>2018-03-21T17:58:07Z</time>
      </trkpt>
      <trkpt lat="62.629710356408" lon="17.913000986233">
        <ele>19.2</ele>
        <time>2018-03-21T17:58:08Z</time>
      </trkpt>
      <trkpt lat="62.629683701966" lon="17.913004255174">
        <ele>19</ele>
        <time>2018-03-21T17:58:09Z</time>
      </trkpt>
      <trkpt lat="62.629657634257" lon="17.913005344821">
        <ele>19</ele>
        <time>2018-03-21T17:58:10Z</time>
      </trkpt>
      <trkpt lat="62.629635673679" lon="17.913014145816">
        <ele>19</ele>
        <time>2018-03-21T17:58:11Z</time>
      </trkpt>
      <trkpt lat="62.629616143852" lon="17.913021102793">
        <ele>19</ele>
        <time>2018-03-21T17:58:12Z</time>
      </trkpt>
      <trkpt lat="62.629581526605" lon="17.913034430014">
        <ele>19</ele>
        <time>2018-03-21T17:58:13Z</time>
      </trkpt>
      <trkpt lat="62.629530145558" lon="17.913060162447">
        <ele>18.8</ele>
        <time>2018-03-21T17:58:15Z</time>
      </trkpt>
      <trkpt lat="62.629504413125" lon="17.913066029777">
        <ele>18.8</ele>
        <time>2018-03-21T17:58:16Z</time>
      </trkpt>
      <trkpt lat="62.629487314049" lon="17.913061000637">
        <ele>18.8</ele>
        <time>2018-03-21T17:58:17Z</time>
      </trkpt>
      <trkpt lat="62.629461078702" lon="17.913064521035">
        <ele>18.8</ele>
        <time>2018-03-21T17:58:18Z</time>
      </trkpt>
      <trkpt lat="62.629435681545" lon="17.913070053089">
        <ele>18.6</ele>
        <time>2018-03-21T17:58:19Z</time>
      </trkpt>
      <trkpt lat="62.62942185141" lon="17.913078602627">
        <ele>18.4</ele>
        <time>2018-03-21T17:58:20Z</time>
      </trkpt>
      <trkpt lat="62.629394610235" lon="17.913092097486">
        <ele>18.6</ele>
        <time>2018-03-21T17:58:21Z</time>
      </trkpt>
      <trkpt lat="62.629371057096" lon="17.91309930592">
        <ele>18.4</ele>
        <time>2018-03-21T17:58:22Z</time>
      </trkpt>
      <trkpt lat="62.629349850889" lon="17.913115566806">
        <ele>18.4</ele>
        <time>2018-03-21T17:58:23Z</time>
      </trkpt>
      <trkpt lat="62.629325711017" lon="17.913125122172">
        <ele>18.4</ele>
        <time>2018-03-21T17:58:24Z</time>
      </trkpt>
      <trkpt lat="62.629303498982" lon="17.913134593719">
        <ele>18.4</ele>
        <time>2018-03-21T17:58:25Z</time>
      </trkpt>
      <trkpt lat="62.629280784033" lon="17.91314708275">
        <ele>18.4</ele>
        <time>2018-03-21T17:58:26Z</time>
      </trkpt>
      <trkpt lat="62.629257817627" lon="17.913162337808">
        <ele>18.4</ele>
        <time>2018-03-21T17:58:27Z</time>
      </trkpt>
      <trkpt lat="62.629238371619" lon="17.913177173771">
        <ele>18.4</ele>
        <time>2018-03-21T17:58:28Z</time>
      </trkpt>
      <trkpt lat="62.62921817124" lon="17.913187232051">
        <ele>18.4</ele>
        <time>2018-03-21T17:58:29Z</time>
      </trkpt>
      <trkpt lat="62.629196462119" lon="17.91319821234">
        <ele>18.2</ele>
        <time>2018-03-21T17:58:30Z</time>
      </trkpt>
      <trkpt lat="62.629176345559" lon="17.913215562873">
        <ele>18.2</ele>
        <time>2018-03-21T17:58:31Z</time>
      </trkpt>
      <trkpt lat="62.629149355841" lon="17.913229644465">
        <ele>18</ele>
        <time>2018-03-21T17:58:32Z</time>
      </trkpt>
      <trkpt lat="62.629130664204" lon="17.91324263641">
        <ele>18.2</ele>
        <time>2018-03-21T17:58:33Z</time>
      </trkpt>
      <trkpt lat="62.629110631463" lon="17.913263172065">
        <ele>18</ele>
        <time>2018-03-21T17:58:34Z</time>
      </trkpt>
      <trkpt lat="62.629090514903" lon="17.913276750743">
        <ele>18</ele>
        <time>2018-03-21T17:58:35Z</time>
      </trkpt>
      <trkpt lat="62.629068219049" lon="17.913292760172">
        <ele>18</ele>
        <time>2018-03-21T17:58:36Z</time>
      </trkpt>
      <trkpt lat="62.629046593747" lon="17.913305416841">
        <ele>18</ele>
        <time>2018-03-21T17:58:37Z</time>
      </trkpt>
      <trkpt lat="62.629023124427" lon="17.913313798741">
        <ele>17.8</ele>
        <time>2018-03-21T17:58:38Z</time>
      </trkpt>
      <trkpt lat="62.629003175505" lon="17.913322180641">
        <ele>18</ele>
        <time>2018-03-21T17:58:39Z</time>
      </trkpt>
      <trkpt lat="62.62898263985" lon="17.913323689383">
        <ele>17.8</ele>
        <time>2018-03-21T17:58:40Z</time>
      </trkpt>
      <trkpt lat="62.628964115851" lon="17.913331652188">
        <ele>17.8</ele>
        <time>2018-03-21T17:58:41Z</time>
      </trkpt>
      <trkpt lat="62.628940646531" lon="17.913340034088">
        <ele>17.6</ele>
        <time>2018-03-21T17:58:42Z</time>
      </trkpt>
      <trkpt lat="62.62891558465" lon="17.913341375192">
        <ele>17.8</ele>
        <time>2018-03-21T17:58:43Z</time>
      </trkpt>
      <trkpt lat="62.628891696235" lon="17.913345566142">
        <ele>17.8</ele>
        <time>2018-03-21T17:58:44Z</time>
      </trkpt>
      <trkpt lat="62.628875435349" lon="17.913365263607">
        <ele>17.8</ele>
        <time>2018-03-21T17:58:45Z</time>
      </trkpt>
      <trkpt lat="62.628851463115" lon="17.913381692131">
        <ele>17.8</ele>
        <time>2018-03-21T17:58:46Z</time>
      </trkpt>
      <trkpt lat="62.62883176565" lon="17.913413794808">
        <ele>17.8</ele>
        <time>2018-03-21T17:58:47Z</time>
      </trkpt>
      <trkpt lat="62.628813912203" lon="17.913421589975">
        <ele>17.8</ele>
        <time>2018-03-21T17:58:48Z</time>
      </trkpt>
      <trkpt lat="62.628788682684" lon="17.913437264128">
        <ele>17.8</ele>
        <time>2018-03-21T17:58:49Z</time>
      </trkpt>
      <trkpt lat="62.628769152857" lon="17.913453357376">
        <ele>17.8</ele>
        <time>2018-03-21T17:58:50Z</time>
      </trkpt>
      <trkpt lat="62.628748449564" lon="17.913465511131">
        <ele>17.8</ele>
        <time>2018-03-21T17:58:51Z</time>
      </trkpt>
      <trkpt lat="62.628726237529" lon="17.913479592723">
        <ele>17.8</ele>
        <time>2018-03-21T17:58:52Z</time>
      </trkpt>
      <trkpt lat="62.628707294435" lon="17.913495853609">
        <ele>17.6</ele>
        <time>2018-03-21T17:58:53Z</time>
      </trkpt>
      <trkpt lat="62.628688854255" lon="17.913508761735">
        <ele>17.8</ele>
        <time>2018-03-21T17:58:54Z</time>
      </trkpt>
      <trkpt lat="62.628666139306" lon="17.913521166947">
        <ele>17.8</ele>
        <time>2018-03-21T17:58:55Z</time>
      </trkpt>
      <trkpt lat="62.628643843452" lon="17.913542121697">
        <ele>17.6</ele>
        <time>2018-03-21T17:58:56Z</time>
      </trkpt>
      <trkpt lat="62.628620625589" lon="17.913562657352">
        <ele>17.8</ele>
        <time>2018-03-21T17:58:57Z</time>
      </trkpt>
      <trkpt lat="62.628600592848" lon="17.913578415324">
        <ele>17.8</ele>
        <time>2018-03-21T17:58:58Z</time>
      </trkpt>
      <trkpt lat="62.628582487944" lon="17.913591826364">
        <ele>17.6</ele>
        <time>2018-03-21T17:58:59Z</time>
      </trkpt>
      <trkpt lat="62.628561533194" lon="17.913599202436">
        <ele>17.8</ele>
        <time>2018-03-21T17:59:00Z</time>
      </trkpt>
      <trkpt lat="62.628540997539" lon="17.913616888245">
        <ele>18</ele>
        <time>2018-03-21T17:59:01Z</time>
      </trkpt>
      <trkpt lat="62.628522054445" lon="17.913637842995">
        <ele>17.8</ele>
        <time>2018-03-21T17:59:02Z</time>
      </trkpt>
      <trkpt lat="62.628501183514" lon="17.913658294831">
        <ele>18</ele>
        <time>2018-03-21T17:59:03Z</time>
      </trkpt>
      <trkpt lat="62.628481988963" lon="17.91368352435">
        <ele>18</ele>
        <time>2018-03-21T17:59:04Z</time>
      </trkpt>
      <trkpt lat="62.628463464964" lon="17.913710514068">
        <ele>18</ele>
        <time>2018-03-21T17:59:05Z</time>
      </trkpt>
      <trkpt lat="62.628443013128" lon="17.913732223189">
        <ele>18</ele>
        <time>2018-03-21T17:59:06Z</time>
      </trkpt>
      <trkpt lat="62.628424237672" lon="17.913760051097">
        <ele>18.2</ele>
        <time>2018-03-21T17:59:07Z</time>
      </trkpt>
      <trkpt lat="62.628404540207" lon="17.913782346951">
        <ele>18.2</ele>
        <time>2018-03-21T17:59:08Z</time>
      </trkpt>
      <trkpt lat="62.628383753095" lon="17.91380841466">
        <ele>18.2</ele>
        <time>2018-03-21T17:59:09Z</time>
      </trkpt>
      <trkpt lat="62.628369503865" lon="17.913826771021">
        <ele>18.4</ele>
        <time>2018-03-21T17:59:10Z</time>
      </trkpt>
      <trkpt lat="62.628347124192" lon="17.913857448775">
        <ele>18.6</ele>
        <time>2018-03-21T17:59:11Z</time>
      </trkpt>
      <trkpt lat="62.628327845822" lon="17.913879241715">
        <ele>18.6</ele>
        <time>2018-03-21T17:59:12Z</time>
      </trkpt>
      <trkpt lat="62.628308315995" lon="17.913908243089">
        <ele>18.8</ele>
        <time>2018-03-21T17:59:13Z</time>
      </trkpt>
      <trkpt lat="62.628290881643" lon="17.913939842852">
        <ele>19</ele>
        <time>2018-03-21T17:59:14Z</time>
      </trkpt>
      <trkpt lat="62.628275626585" lon="17.91396767076">
        <ele>19</ele>
        <time>2018-03-21T17:59:15Z</time>
      </trkpt>
      <trkpt lat="62.628258276052" lon="17.914000611627">
        <ele>19.4</ele>
        <time>2018-03-21T17:59:16Z</time>
      </trkpt>
      <trkpt lat="62.628239668234" lon="17.914027014612">
        <ele>19.4</ele>
        <time>2018-03-21T17:59:17Z</time>
      </trkpt>
      <trkpt lat="62.628227514479" lon="17.91405148976">
        <ele>19.4</ele>
        <time>2018-03-21T17:59:18Z</time>
      </trkpt>
      <trkpt lat="62.628207984652" lon="17.914088453939">
        <ele>19.6</ele>
        <time>2018-03-21T17:59:19Z</time>
      </trkpt>
      <trkpt lat="62.628194908888" lon="17.914115108381">
        <ele>20</ele>
        <time>2018-03-21T17:59:20Z</time>
      </trkpt>
      <trkpt lat="62.628182000762" lon="17.914148216886">
        <ele>20</ele>
        <time>2018-03-21T17:59:21Z</time>
      </trkpt>
      <trkpt lat="62.628163644401" lon="17.914180151925">
        <ele>20.2</ele>
        <time>2018-03-21T17:59:22Z</time>
      </trkpt>
      <trkpt lat="62.628150400999" lon="17.914210829679">
        <ele>20.4</ele>
        <time>2018-03-21T17:59:23Z</time>
      </trkpt>
      <trkpt lat="62.628148389343" lon="17.914213847163">
        <ele>20.4</ele>
        <time>2018-03-21T17:59:24Z</time>
      </trkpt>
      <trkpt lat="62.628125422937" lon="17.914262378364">
        <ele>20.4</ele>
        <time>2018-03-21T17:59:25Z</time>
      </trkpt>
      <trkpt lat="62.628106228386" lon="17.914298001439">
        <ele>20.4</ele>
        <time>2018-03-21T17:59:26Z</time>
      </trkpt>
      <trkpt lat="62.6280899675" lon="17.914326248442">
        <ele>20.6</ele>
        <time>2018-03-21T17:59:27Z</time>
      </trkpt>
      <trkpt lat="62.628071359682" lon="17.914358518757">
        <ele>21</ele>
        <time>2018-03-21T17:59:28Z</time>
      </trkpt>
      <trkpt lat="62.62805476352" lon="17.914383077724">
        <ele>21</ele>
        <time>2018-03-21T17:59:29Z</time>
      </trkpt>
      <trkpt lat="62.628040179014" lon="17.914410486537">
        <ele>21.2</ele>
        <time>2018-03-21T17:59:30Z</time>
      </trkpt>
      <trkpt lat="62.628019810997" lon="17.914438314445">
        <ele>21.4</ele>
        <time>2018-03-21T17:59:31Z</time>
      </trkpt>
      <trkpt lat="62.628006064681" lon="17.914468992199">
        <ele>21.6</ele>
        <time>2018-03-21T17:59:32Z</time>
      </trkpt>
      <trkpt lat="62.627987037768" lon="17.914498496487">
        <ele>21.6</ele>
        <time>2018-03-21T17:59:33Z</time>
      </trkpt>
      <trkpt lat="62.627968094674" lon="17.91452339073">
        <ele>21.8</ele>
        <time>2018-03-21T17:59:34Z</time>
      </trkpt>
      <trkpt lat="62.627954515996" lon="17.914542585281">
        <ele>22</ele>
        <time>2018-03-21T17:59:35Z</time>
      </trkpt>
      <trkpt lat="62.627935321445" lon="17.91458122584">
        <ele>22</ele>
        <time>2018-03-21T17:59:36Z</time>
      </trkpt>
      <trkpt lat="62.627915037247" lon="17.914612155051">
        <ele>22.2</ele>
        <time>2018-03-21T17:59:37Z</time>
      </trkpt>
      <trkpt lat="62.627899866008" lon="17.914638474217">
        <ele>22.4</ele>
        <time>2018-03-21T17:59:38Z</time>
      </trkpt>
      <trkpt lat="62.627879665629" lon="17.914661608261">
        <ele>22.2</ele>
        <time>2018-03-21T17:59:39Z</time>
      </trkpt>
      <trkpt lat="62.627863572381" lon="17.914686586323">
        <ele>22.4</ele>
        <time>2018-03-21T17:59:40Z</time>
      </trkpt>
      <trkpt lat="62.627847646771" lon="17.914716928801">
        <ele>22.6</ele>
        <time>2018-03-21T17:59:41Z</time>
      </trkpt>
      <trkpt lat="62.627829122772" lon="17.914750037306">
        <ele>22.4</ele>
        <time>2018-03-21T17:59:42Z</time>
      </trkpt>
      <trkpt lat="62.627810598773" lon="17.914781972345">
        <ele>22.6</ele>
        <time>2018-03-21T17:59:43Z</time>
      </trkpt>
      <trkpt lat="62.627793834973" lon="17.914810722262">
        <ele>22.4</ele>
        <time>2018-03-21T17:59:44Z</time>
      </trkpt>
      <trkpt lat="62.627773802232" lon="17.914838633989">
        <ele>22.4</ele>
        <time>2018-03-21T17:59:45Z</time>
      </trkpt>
      <trkpt lat="62.627755864966" lon="17.914872329227">
        <ele>22.6</ele>
        <time>2018-03-21T17:59:46Z</time>
      </trkpt>
      <trkpt lat="62.62774211865" lon="17.914897307289">
        <ele>22.6</ele>
        <time>2018-03-21T17:59:47Z</time>
      </trkpt>
      <trkpt lat="62.627720996262" lon="17.914934439106">
        <ele>22.6</ele>
        <time>2018-03-21T17:59:48Z</time>
      </trkpt>
      <trkpt lat="62.62770859105" lon="17.91496595505">
        <ele>22.6</ele>
        <time>2018-03-21T17:59:49Z</time>
      </trkpt>
      <trkpt lat="62.627687301024" lon="17.914990178741">
        <ele>22.8</ele>
        <time>2018-03-21T17:59:50Z</time>
      </trkpt>
      <trkpt lat="62.627670369586" lon="17.915023538703">
        <ele>22.6</ele>
        <time>2018-03-21T17:59:51Z</time>
      </trkpt>
      <trkpt lat="62.627656371813" lon="17.915047427118">
        <ele>22.8</ele>
        <time>2018-03-21T17:59:52Z</time>
      </trkpt>
      <trkpt lat="62.627637596357" lon="17.915081206175">
        <ele>22.8</ele>
        <time>2018-03-21T17:59:53Z</time>
      </trkpt>
      <trkpt lat="62.627625358783" lon="17.915112554481">
        <ele>22.8</ele>
        <time>2018-03-21T17:59:54Z</time>
      </trkpt>
      <trkpt lat="62.627605828956" lon="17.915135185611">
        <ele>23</ele>
        <time>2018-03-21T17:59:55Z</time>
      </trkpt>
      <trkpt lat="62.627583030188" lon="17.915163516433">
        <ele>23</ele>
        <time>2018-03-21T17:59:56Z</time>
      </trkpt>
      <trkpt lat="62.627568361863" lon="17.915187153391">
        <ele>23</ele>
        <time>2018-03-21T17:59:57Z</time>
      </trkpt>
      <trkpt lat="62.627549837864" lon="17.915217076774">
        <ele>23.2</ele>
        <time>2018-03-21T17:59:58Z</time>
      </trkpt>
      <trkpt lat="62.627533241702" lon="17.915254711505">
        <ele>23.2</ele>
        <time>2018-03-21T17:59:59Z</time>
      </trkpt>
      <trkpt lat="62.627523267241" lon="17.915281868861">
        <ele>23.2</ele>
        <time>2018-03-21T18:00:00Z</time>
      </trkpt>
      <trkpt lat="62.627509353287" lon="17.91533392046">
        <ele>23.4</ele>
        <time>2018-03-21T18:00:01Z</time>
      </trkpt>
      <trkpt lat="62.627492505668" lon="17.915379937091">
        <ele>23.4</ele>
        <time>2018-03-21T18:00:02Z</time>
      </trkpt>
      <trkpt lat="62.627478424076" lon="17.915412375044">
        <ele>23.6</ele>
        <time>2018-03-21T18:00:03Z</time>
      </trkpt>
      <trkpt lat="62.62746300138" lon="17.915448417214">
        <ele>23.8</ele>
        <time>2018-03-21T18:00:04Z</time>
      </trkpt>
      <trkpt lat="62.627450847625" lon="17.915481190443">
        <ele>23.8</ele>
        <time>2018-03-21T18:00:05Z</time>
      </trkpt>
      <trkpt lat="62.627436933671" lon="17.915524608685">
        <ele>23.8</ele>
        <time>2018-03-21T18:00:06Z</time>
      </trkpt>
      <trkpt lat="62.627423690269" lon="17.915568529841">
        <ele>24</ele>
        <time>2018-03-21T18:00:07Z</time>
      </trkpt>
      <trkpt lat="62.627412123247" lon="17.915609768789">
        <ele>24</ele>
        <time>2018-03-21T18:00:08Z</time>
      </trkpt>
      <trkpt lat="62.627401226777" lon="17.915648996081">
        <ele>24</ele>
        <time>2018-03-21T18:00:09Z</time>
      </trkpt>
      <trkpt lat="62.627387061366" lon="17.915683780966">
        <ele>24.2</ele>
        <time>2018-03-21T18:00:10Z</time>
      </trkpt>
      <trkpt lat="62.627379685294" lon="17.915721583335">
        <ele>24.2</ele>
        <time>2018-03-21T18:00:11Z</time>
      </trkpt>
      <trkpt lat="62.627367782996" lon="17.915761732636">
        <ele>24.2</ele>
        <time>2018-03-21T18:00:12Z</time>
      </trkpt>
      <trkpt lat="62.627350264825" lon="17.91580330686">
        <ele>24.4</ele>
        <time>2018-03-21T18:00:13Z</time>
      </trkpt>
      <trkpt lat="62.627339955088" lon="17.915840438677">
        <ele>24.4</ele>
        <time>2018-03-21T18:00:14Z</time>
      </trkpt>
      <trkpt lat="62.627327633695" lon="17.915881426168">
        <ele>24.4</ele>
        <time>2018-03-21T18:00:15Z</time>
      </trkpt>
      <trkpt lat="62.627311540447" lon="17.915930795559">
        <ele>24.6</ele>
        <time>2018-03-21T18:00:16Z</time>
      </trkpt>
      <trkpt lat="62.627303158547" lon="17.915961808589">
        <ele>24.6</ele>
        <time>2018-03-21T18:00:17Z</time>
      </trkpt>
      <trkpt lat="62.627287149118" lon="17.916014195464">
        <ele>24.4</ele>
        <time>2018-03-21T18:00:18Z</time>
      </trkpt>
      <trkpt lat="62.627272564612" lon="17.916055350593">
        <ele>24.6</ele>
        <time>2018-03-21T18:00:19Z</time>
      </trkpt>
      <trkpt lat="62.627263009246" lon="17.91609583517">
        <ele>24.6</ele>
        <time>2018-03-21T18:00:20Z</time>
      </trkpt>
      <trkpt lat="62.627247670369" lon="17.916144617828">
        <ele>24.6</ele>
        <time>2018-03-21T18:00:21Z</time>
      </trkpt>
      <trkpt lat="62.627234678424" lon="17.916180157084">
        <ele>24.8</ele>
        <time>2018-03-21T18:00:22Z</time>
      </trkpt>
      <trkpt lat="62.627225039239" lon="17.916219803471">
        <ele>24.8</ele>
        <time>2018-03-21T18:00:23Z</time>
      </trkpt>
      <trkpt lat="62.627209700362" lon="17.916266323016">
        <ele>24.8</ele>
        <time>2018-03-21T18:00:24Z</time>
      </trkpt>
      <trkpt lat="62.62719980972" lon="17.916306891412">
        <ele>25</ele>
        <time>2018-03-21T18:00:25Z</time>
      </trkpt>
      <trkpt lat="62.627187320689" lon="17.916351734577">
        <ele>25</ele>
        <time>2018-03-21T18:00:26Z</time>
      </trkpt>
      <trkpt lat="62.627171478898" lon="17.916393560258">
        <ele>25</ele>
        <time>2018-03-21T18:00:27Z</time>
      </trkpt>
      <trkpt lat="62.627159325143" lon="17.916424740926">
        <ele>25.2</ele>
        <time>2018-03-21T18:00:28Z</time>
      </trkpt>
      <trkpt lat="62.627144908275" lon="17.916461705105">
        <ele>25.2</ele>
        <time>2018-03-21T18:00:29Z</time>
      </trkpt>
      <trkpt lat="62.627125126991" lon="17.916488862461">
        <ele>25.2</ele>
        <time>2018-03-21T18:00:30Z</time>
      </trkpt>
      <trkpt lat="62.627110374847" lon="17.916533621807">
        <ele>25.4</ele>
        <time>2018-03-21T18:00:31Z</time>
      </trkpt>
      <trkpt lat="62.627094281599" lon="17.916577040049">
        <ele>25.4</ele>
        <time>2018-03-21T18:00:32Z</time>
      </trkpt>
      <trkpt lat="62.62708078674" lon="17.916616434979">
        <ele>25.4</ele>
        <time>2018-03-21T18:00:33Z</time>
      </trkpt>
      <trkpt lat="62.627069387356" lon="17.916654237348">
        <ele>25.4</ele>
        <time>2018-03-21T18:00:34Z</time>
      </trkpt>
      <trkpt lat="62.627055557221" lon="17.916687932586">
        <ele>25.4</ele>
        <time>2018-03-21T18:00:35Z</time>
      </trkpt>
      <trkpt lat="62.627051533909" lon="17.916696985038">
        <ele>25.4</ele>
        <time>2018-03-21T18:00:36Z</time>
      </trkpt>
      <trkpt lat="62.627027813132" lon="17.916759933107">
        <ele>25.4</ele>
        <time>2018-03-21T18:00:37Z</time>
      </trkpt>
      <trkpt lat="62.627009037676" lon="17.916824389918">
        <ele>25.4</ele>
        <time>2018-03-21T18:00:38Z</time>
      </trkpt>
      <trkpt lat="62.626997470654" lon="17.916872166748">
        <ele>25.2</ele>
        <time>2018-03-21T18:00:39Z</time>
      </trkpt>
      <trkpt lat="62.626988921116" lon="17.91691307042">
        <ele>25.2</ele>
        <time>2018-03-21T18:00:40Z</time>
      </trkpt>
      <trkpt lat="62.626975845352" lon="17.916948442038">
        <ele>25.2</ele>
        <time>2018-03-21T18:00:41Z</time>
      </trkpt>
      <trkpt lat="62.626958913914" lon="17.916998314343">
        <ele>25.2</ele>
        <time>2018-03-21T18:00:42Z</time>
      </trkpt>
      <trkpt lat="62.626949945281" lon="17.917037290178">
        <ele>25.2</ele>
        <time>2018-03-21T18:00:43Z</time>
      </trkpt>
      <trkpt lat="62.626933097662" lon="17.917083642085">
        <ele>25.2</ele>
        <time>2018-03-21T18:00:44Z</time>
      </trkpt>
      <trkpt lat="62.626917842604" lon="17.917117840237">
        <ele>25.2</ele>
        <time>2018-03-21T18:00:45Z</time>
      </trkpt>
      <trkpt lat="62.626906862315" lon="17.917162515764">
        <ele>25.2</ele>
        <time>2018-03-21T18:00:46Z</time>
      </trkpt>
      <trkpt lat="62.626894289465" lon="17.917208280938">
        <ele>25.2</ele>
        <time>2018-03-21T18:00:47Z</time>
      </trkpt>
      <trkpt lat="62.626882051891" lon="17.91725086099">
        <ele>25.2</ele>
        <time>2018-03-21T18:00:48Z</time>
      </trkpt>
      <trkpt lat="62.626870484869" lon="17.917295620336">
        <ele>25</ele>
        <time>2018-03-21T18:00:49Z</time>
      </trkpt>
      <trkpt lat="62.62685866639" lon="17.917340044406">
        <ele>25</ele>
        <time>2018-03-21T18:00:50Z</time>
      </trkpt>
      <trkpt lat="62.62684441716" lon="17.917381199535">
        <ele>25</ele>
        <time>2018-03-21T18:00:51Z</time>
      </trkpt>
      <trkpt lat="62.626832179586" lon="17.91741933718">
        <ele>25</ele>
        <time>2018-03-21T18:00:52Z</time>
      </trkpt>
      <trkpt lat="62.626821450754" lon="17.917466778734">
        <ele>24.8</ele>
        <time>2018-03-21T18:00:53Z</time>
      </trkpt>
      <trkpt lat="62.626809045542" lon="17.917515896668">
        <ele>24.8</ele>
        <time>2018-03-21T18:00:54Z</time>
      </trkpt>
      <trkpt lat="62.626796472692" lon="17.917560739833">
        <ele>24.6</ele>
        <time>2018-03-21T18:00:55Z</time>
      </trkpt>
      <trkpt lat="62.626777697236" lon="17.917610276862">
        <ele>24.6</ele>
        <time>2018-03-21T18:00:56Z</time>
      </trkpt>
      <trkpt lat="62.626761771626" lon="17.917655622941">
        <ele>24.4</ele>
        <time>2018-03-21T18:00:57Z</time>
      </trkpt>
      <trkpt lat="62.626751713346" lon="17.917707171626">
        <ele>24.2</ele>
        <time>2018-03-21T18:00:58Z</time>
      </trkpt>
      <trkpt lat="62.626741990342" lon="17.917763330356">
        <ele>24.2</ele>
        <time>2018-03-21T18:00:59Z</time>
      </trkpt>
      <trkpt lat="62.626733692261" lon="17.917811861557">
        <ele>24.2</ele>
        <time>2018-03-21T18:01:00Z</time>
      </trkpt>
      <trkpt lat="62.626722376696" lon="17.917856285627">
        <ele>24</ele>
        <time>2018-03-21T18:01:01Z</time>
      </trkpt>
      <trkpt lat="62.626709384751" lon="17.917901380249">
        <ele>24</ele>
        <time>2018-03-21T18:01:02Z</time>
      </trkpt>
      <trkpt lat="62.626697398634" lon="17.917951252554">
        <ele>23.8</ele>
        <time>2018-03-21T18:01:03Z</time>
      </trkpt>
      <trkpt lat="62.626687507992" lon="17.918001460135">
        <ele>23.6</ele>
        <time>2018-03-21T18:01:04Z</time>
      </trkpt>
      <trkpt lat="62.626680886291" lon="17.918048650232">
        <ele>23.6</ele>
        <time>2018-03-21T18:01:05Z</time>
      </trkpt>
      <trkpt lat="62.626668313441" lon="17.918105479514">
        <ele>23.6</ele>
        <time>2018-03-21T18:01:06Z</time>
      </trkpt>
      <trkpt lat="62.62665833898" lon="17.918146467005">
        <ele>23.4</ele>
        <time>2018-03-21T18:01:07Z</time>
      </trkpt>
      <trkpt lat="62.626648699795" lon="17.918196423129">
        <ele>23.4</ele>
        <time>2018-03-21T18:01:08Z</time>
      </trkpt>
      <trkpt lat="62.626635456393" lon="17.918243780864">
        <ele>23.2</ele>
        <time>2018-03-21T18:01:09Z</time>
      </trkpt>
      <trkpt lat="62.626626068665" lon="17.918282169966">
        <ele>23</ele>
        <time>2018-03-21T18:01:10Z</time>
      </trkpt>
      <trkpt lat="62.626618189679" lon="17.918332042271">
        <ele>22.8</ele>
        <time>2018-03-21T18:01:11Z</time>
      </trkpt>
      <trkpt lat="62.626606874114" lon="17.918383171861">
        <ele>22.8</ele>
        <time>2018-03-21T18:01:12Z</time>
      </trkpt>
      <trkpt lat="62.626599162766" lon="17.918436396926">
        <ele>22.6</ele>
        <time>2018-03-21T18:01:13Z</time>
      </trkpt>
      <trkpt lat="62.626591199961" lon="17.918486688326">
        <ele>22.4</ele>
        <time>2018-03-21T18:01:14Z</time>
      </trkpt>
      <trkpt lat="62.626580135853" lon="17.918534213699">
        <ele>22.2</ele>
        <time>2018-03-21T18:01:15Z</time>
      </trkpt>
      <trkpt lat="62.626569323202" lon="17.918580146511">
        <ele>22</ele>
        <time>2018-03-21T18:01:16Z</time>
      </trkpt>
      <trkpt lat="62.626561863311" lon="17.918628174798">
        <ele>21.8</ele>
        <time>2018-03-21T18:01:17Z</time>
      </trkpt>
      <trkpt lat="62.62655188885" lon="17.918678214741">
        <ele>21.6</ele>
        <time>2018-03-21T18:01:18Z</time>
      </trkpt>
      <trkpt lat="62.62654099238" lon="17.918731355987">
        <ele>21.4</ele>
        <time>2018-03-21T18:01:19Z</time>
      </trkpt>
      <trkpt lat="62.626532359023" lon="17.918775444781">
        <ele>21.4</ele>
        <time>2018-03-21T18:01:20Z</time>
      </trkpt>
      <trkpt lat="62.626521127277" lon="17.918829256579">
        <ele>21.2</ele>
        <time>2018-03-21T18:01:21Z</time>
      </trkpt>
      <trkpt lat="62.626511571911" lon="17.918873932106">
        <ele>21</ele>
        <time>2018-03-21T18:01:22Z</time>
      </trkpt>
      <trkpt lat="62.62650243564" lon="17.918919362004">
        <ele>20.8</ele>
        <time>2018-03-21T18:01:23Z</time>
      </trkpt>
      <trkpt lat="62.626488270229" lon="17.91896747411">
        <ele>20.6</ele>
        <time>2018-03-21T18:01:24Z</time>
      </trkpt>
      <trkpt lat="62.626473853361" lon="17.919011479085">
        <ele>20.6</ele>
        <time>2018-03-21T18:01:25Z</time>
      </trkpt>
      <trkpt lat="62.626457760113" lon="17.91905296949">
        <ele>20.4</ele>
        <time>2018-03-21T18:01:26Z</time>
      </trkpt>
      <trkpt lat="62.626440912494" lon="17.919100830139">
        <ele>20.2</ele>
        <time>2018-03-21T18:01:27Z</time>
      </trkpt>
      <trkpt lat="62.626425741255" lon="17.919138883965">
        <ele>20</ele>
        <time>2018-03-21T18:01:28Z</time>
      </trkpt>
      <trkpt lat="62.626413000767" lon="17.919184900596">
        <ele>19.8</ele>
        <time>2018-03-21T18:01:29Z</time>
      </trkpt>
      <trkpt lat="62.626397326614" lon="17.919224463164">
        <ele>19.6</ele>
        <time>2018-03-21T18:01:30Z</time>
      </trkpt>
      <trkpt lat="62.626375617493" lon="17.919263858094">
        <ele>19.6</ele>
        <time>2018-03-21T18:01:31Z</time>
      </trkpt>
      <trkpt lat="62.626354746562" lon="17.919286070129">
        <ele>19.6</ele>
        <time>2018-03-21T18:01:32Z</time>
      </trkpt>
      <trkpt lat="62.626333624174" lon="17.919316747883">
        <ele>19.4</ele>
        <time>2018-03-21T18:01:33Z</time>
      </trkpt>
      <trkpt lat="62.626317866202" lon="17.919331583846">
        <ele>19.2</ele>
        <time>2018-03-21T18:01:34Z</time>
      </trkpt>
      <trkpt lat="62.626308310836" lon="17.919347844732">
        <ele>19</ele>
        <time>2018-03-21T18:01:35Z</time>
      </trkpt>
      <trkpt lat="62.626282997498" lon="17.919375505002">
        <ele>19</ele>
        <time>2018-03-21T18:01:36Z</time>
      </trkpt>
      <trkpt lat="62.626263216214" lon="17.919395286286">
        <ele>18.6</ele>
        <time>2018-03-21T18:01:37Z</time>
      </trkpt>
      <trkpt lat="62.626238992523" lon="17.919423533289">
        <ele>18.4</ele>
        <time>2018-03-21T18:01:38Z</time>
      </trkpt>
      <trkpt lat="62.62621326009" lon="17.91943518413">
        <ele>18.4</ele>
        <time>2018-03-21T18:01:39Z</time>
      </trkpt>
      <trkpt lat="62.626192556797" lon="17.919449936274">
        <ele>18.2</ele>
        <time>2018-03-21T18:01:40Z</time>
      </trkpt>
      <trkpt lat="62.626169841848" lon="17.919483380055">
        <ele>18</ele>
        <time>2018-03-21T18:01:41Z</time>
      </trkpt>
      <trkpt lat="62.626150647297" lon="17.919504250986">
        <ele>18</ele>
        <time>2018-03-21T18:01:42Z</time>
      </trkpt>
      <trkpt lat="62.626127848529" lon="17.919529731962">
        <ele>17.8</ele>
        <time>2018-03-21T18:01:43Z</time>
      </trkpt>
      <trkpt lat="62.626106726141" lon="17.919568204883">
        <ele>17.8</ele>
        <time>2018-03-21T18:01:44Z</time>
      </trkpt>
      <trkpt lat="62.626084346468" lon="17.919590919832">
        <ele>17.8</ele>
        <time>2018-03-21T18:01:45Z</time>
      </trkpt>
      <trkpt lat="62.626063894632" lon="17.919617406636">
        <ele>17.6</ele>
        <time>2018-03-21T18:01:46Z</time>
      </trkpt>
      <trkpt lat="62.62603975476" lon="17.919639870128">
        <ele>17.6</ele>
        <time>2018-03-21T18:01:47Z</time>
      </trkpt>
      <trkpt lat="62.626026846634" lon="17.919659232317">
        <ele>17.6</ele>
        <time>2018-03-21T18:01:48Z</time>
      </trkpt>
      <trkpt lat="62.62599868345" lon="17.919697118505">
        <ele>17.4</ele>
        <time>2018-03-21T18:01:49Z</time>
      </trkpt>
      <trkpt lat="62.62597605232" lon="17.919725365508">
        <ele>17.4</ele>
        <time>2018-03-21T18:01:50Z</time>
      </trkpt>
      <trkpt lat="62.625951158077" lon="17.91976207823">
        <ele>17.2</ele>
        <time>2018-03-21T18:01:51Z</time>
      </trkpt>
      <trkpt lat="62.625932047345" lon="17.919794348545">
        <ele>17.2</ele>
        <time>2018-03-21T18:01:52Z</time>
      </trkpt>
      <trkpt lat="62.62590480617" lon="17.919818656055">
        <ele>17.2</ele>
        <time>2018-03-21T18:01:53Z</time>
      </trkpt>
      <trkpt lat="62.625884521972" lon="17.919844556126">
        <ele>17</ele>
        <time>2018-03-21T18:01:54Z</time>
      </trkpt>
      <trkpt lat="62.625868512543" lon="17.919873389862">
        <ele>16.8</ele>
        <time>2018-03-21T18:01:55Z</time>
      </trkpt>
      <trkpt lat="62.625844372671" lon="17.919911443688">
        <ele>16.6</ele>
        <time>2018-03-21T18:01:56Z</time>
      </trkpt>
      <trkpt lat="62.625821238627" lon="17.919934074818">
        <ele>16.6</ele>
        <time>2018-03-21T18:01:57Z</time>
      </trkpt>
      <trkpt lat="62.625803804275" lon="17.919964165839">
        <ele>16.4</ele>
        <time>2018-03-21T18:01:58Z</time>
      </trkpt>
      <trkpt lat="62.625778071842" lon="17.919990485005">
        <ele>16.4</ele>
        <time>2018-03-21T18:01:59Z</time>
      </trkpt>
      <trkpt lat="62.625760469852" lon="17.920020492207">
        <ele>16.4</ele>
        <time>2018-03-21T18:02:00Z</time>
      </trkpt>
      <trkpt lat="62.625736162342" lon="17.920051840513">
        <ele>16.4</ele>
        <time>2018-03-21T18:02:01Z</time>
      </trkpt>
      <trkpt lat="62.625712525384" lon="17.920084027009">
        <ele>16.2</ele>
        <time>2018-03-21T18:02:02Z</time>
      </trkpt>
      <trkpt lat="62.6256927441" lon="17.92011327984">
        <ele>16</ele>
        <time>2018-03-21T18:02:03Z</time>
      </trkpt>
      <trkpt lat="62.62568100944" lon="17.920157033358">
        <ele>16</ele>
        <time>2018-03-21T18:02:04Z</time>
      </trkpt>
      <trkpt lat="62.625670196789" lon="17.920206821844">
        <ele>15.8</ele>
        <time>2018-03-21T18:02:05Z</time>
      </trkpt>
      <trkpt lat="62.625649493496" lon="17.920253676665">
        <ele>15.6</ele>
        <time>2018-03-21T18:02:06Z</time>
      </trkpt>
      <trkpt lat="62.625635244266" lon="17.920292987776">
        <ele>15.6</ele>
        <time>2018-03-21T18:02:07Z</time>
      </trkpt>
      <trkpt lat="62.625614876249" lon="17.920323581711">
        <ele>15.4</ele>
        <time>2018-03-21T18:02:08Z</time>
      </trkpt>
      <trkpt lat="62.625592580395" lon="17.920346715755">
        <ele>15.4</ele>
        <time>2018-03-21T18:02:09Z</time>
      </trkpt>
      <trkpt lat="62.625573385844" lon="17.920362306089">
        <ele>15.4</ele>
        <time>2018-03-21T18:02:10Z</time>
      </trkpt>
      <trkpt lat="62.625549329791" lon="17.920395833689">
        <ele>15.4</ele>
        <time>2018-03-21T18:02:11Z</time>
      </trkpt>
      <trkpt lat="62.625526195747" lon="17.920413268041">
        <ele>15.4</ele>
        <time>2018-03-21T18:02:12Z</time>
      </trkpt>
      <trkpt lat="62.62550498954" lon="17.920441179768">
        <ele>15.4</ele>
        <time>2018-03-21T18:02:13Z</time>
      </trkpt>
      <trkpt lat="62.62548403479" lon="17.920476132291">
        <ele>15.4</ele>
        <time>2018-03-21T18:02:14Z</time>
      </trkpt>
      <trkpt lat="62.625466768076" lon="17.920494153376">
        <ele>15.2</ele>
        <time>2018-03-21T18:02:15Z</time>
      </trkpt>
      <trkpt lat="62.625450926285" lon="17.920528854442">
        <ele>15.2</ele>
        <time>2018-03-21T18:02:16Z</time>
      </trkpt>
      <trkpt lat="62.625432150829" lon="17.920549054821">
        <ele>15</ele>
        <time>2018-03-21T18:02:17Z</time>
      </trkpt>
      <trkpt lat="62.625421757273" lon="17.92056674063">
        <ele>15</ele>
        <time>2018-03-21T18:02:18Z</time>
      </trkpt>
      <trkpt lat="62.62540189217" lon="17.920605129732">
        <ele>14.8</ele>
        <time>2018-03-21T18:02:19Z</time>
      </trkpt>
      <trkpt lat="62.62538512837" lon="17.920619798057">
        <ele>14.6</ele>
        <time>2018-03-21T18:02:20Z</time>
      </trkpt>
      <trkpt lat="62.625363167792" lon="17.920654080028">
        <ele>14.4</ele>
        <time>2018-03-21T18:02:21Z</time>
      </trkpt>
      <trkpt lat="62.625344643793" lon="17.920666401421">
        <ele>14.2</ele>
        <time>2018-03-21T18:02:22Z</time>
      </trkpt>
      <trkpt lat="62.625321928844" lon="17.920691882397">
        <ele>14</ele>
        <time>2018-03-21T18:02:23Z</time>
      </trkpt>
      <trkpt lat="62.625307511976" lon="17.920716189907">
        <ele>13.8</ele>
        <time>2018-03-21T18:02:24Z</time>
      </trkpt>
      <trkpt lat="62.625286808683" lon="17.920747286756">
        <ele>13.6</ele>
        <time>2018-03-21T18:02:25Z</time>
      </trkpt>
      <trkpt lat="62.625262668811" lon="17.920773019189">
        <ele>13.6</ele>
        <time>2018-03-21T18:02:26Z</time>
      </trkpt>
      <trkpt lat="62.625242552251" lon="17.920802942572">
        <ele>13.2</ele>
        <time>2018-03-21T18:02:27Z</time>
      </trkpt>
      <trkpt lat="62.625222268053" lon="17.920832530679">
        <ele>13.2</ele>
        <time>2018-03-21T18:02:28Z</time>
      </trkpt>
      <trkpt lat="62.625201061846" lon="17.920861532053">
        <ele>12.8</ele>
        <time>2018-03-21T18:02:29Z</time>
      </trkpt>
      <trkpt lat="62.625184214227" lon="17.920892209807">
        <ele>12.8</ele>
        <time>2018-03-21T18:02:30Z</time>
      </trkpt>
      <trkpt lat="62.625157643604" lon="17.920921295">
        <ele>12.6</ele>
        <time>2018-03-21T18:02:31Z</time>
      </trkpt>
      <trkpt lat="62.625138113777" lon="17.920949877279">
        <ele>12.4</ele>
        <time>2018-03-21T18:02:32Z</time>
      </trkpt>
      <trkpt lat="62.625116320837" lon="17.920972340771">
        <ele>12.2</ele>
        <time>2018-03-21T18:02:33Z</time>
      </trkpt>
      <trkpt lat="62.62509092368" lon="17.921007209475">
        <ele>12.2</ele>
        <time>2018-03-21T18:02:34Z</time>
      </trkpt>
      <trkpt lat="62.625072818776" lon="17.921031433166">
        <ele>11.8</ele>
        <time>2018-03-21T18:02:35Z</time>
      </trkpt>
      <trkpt lat="62.625054378596" lon="17.92106127273">
        <ele>11.8</ele>
        <time>2018-03-21T18:02:36Z</time>
      </trkpt>
      <trkpt lat="62.625027975611" lon="17.921091028475">
        <ele>11.4</ele>
        <time>2018-03-21T18:02:37Z</time>
      </trkpt>
      <trkpt lat="62.625006098852" lon="17.921119443116">
        <ele>11.2</ele>
        <time>2018-03-21T18:02:38Z</time>
      </trkpt>
      <trkpt lat="62.624983132446" lon="17.921149450318">
        <ele>10.8</ele>
        <time>2018-03-21T18:02:39Z</time>
      </trkpt>
      <trkpt lat="62.624959411669" lon="17.921172249086">
        <ele>10.6</ele>
        <time>2018-03-21T18:02:40Z</time>
      </trkpt>
      <trkpt lat="62.624938540738" lon="17.921203010659">
        <ele>10.4</ele>
        <time>2018-03-21T18:02:41Z</time>
      </trkpt>
      <trkpt lat="62.624918088902" lon="17.921228323997">
        <ele>10</ele>
        <time>2018-03-21T18:02:42Z</time>
      </trkpt>
      <trkpt lat="62.624891685917" lon="17.921252212412">
        <ele>9.8</ele>
        <time>2018-03-21T18:02:43Z</time>
      </trkpt>
      <trkpt lat="62.624877771963" lon="17.921273083343">
        <ele>9.6</ele>
        <time>2018-03-21T18:02:44Z</time>
      </trkpt>
      <trkpt lat="62.624859331783" lon="17.921298899595">
        <ele>9.4</ele>
        <time>2018-03-21T18:02:45Z</time>
      </trkpt>
      <trkpt lat="62.624837371205" lon="17.921334271213">
        <ele>9.2</ele>
        <time>2018-03-21T18:02:46Z</time>
      </trkpt>
      <trkpt lat="62.624820272129" lon="17.92135799199">
        <ele>9.2</ele>
        <time>2018-03-21T18:02:47Z</time>
      </trkpt>
      <trkpt lat="62.624801831949" lon="17.921383808242">
        <ele>9</ele>
        <time>2018-03-21T18:02:48Z</time>
      </trkpt>
      <trkpt lat="62.624776853887" lon="17.921411971426">
        <ele>8.8</ele>
        <time>2018-03-21T18:02:49Z</time>
      </trkpt>
      <trkpt lat="62.624754725671" lon="17.921441559533">
        <ele>8.8</ele>
        <time>2018-03-21T18:02:50Z</time>
      </trkpt>
      <trkpt lat="62.624737626595" lon="17.921464358301">
        <ele>8.6</ele>
        <time>2018-03-21T18:02:51Z</time>
      </trkpt>
      <trkpt lat="62.624709379592" lon="17.921487576164">
        <ele>8.6</ele>
        <time>2018-03-21T18:02:52Z</time>
      </trkpt>
      <trkpt lat="62.624688508661" lon="17.921501657756">
        <ele>8.6</ele>
        <time>2018-03-21T18:02:53Z</time>
      </trkpt>
      <trkpt lat="62.624674510888" lon="17.921528312198">
        <ele>8.4</ele>
        <time>2018-03-21T18:02:54Z</time>
      </trkpt>
      <trkpt lat="62.62465171212" lon="17.921551362423">
        <ele>8.4</ele>
        <time>2018-03-21T18:02:55Z</time>
      </trkpt>
      <trkpt lat="62.624619190348" lon="17.921575586114">
        <ele>8.2</ele>
        <time>2018-03-21T18:02:56Z</time>
      </trkpt>
      <trkpt lat="62.624600917806" lon="17.921596624683">
        <ele>8.2</ele>
        <time>2018-03-21T18:02:57Z</time>
      </trkpt>
      <trkpt lat="62.624584070187" lon="17.921623782039">
        <ele>8</ele>
        <time>2018-03-21T18:02:58Z</time>
      </trkpt>
      <trkpt lat="62.624559678858" lon="17.921652867232">
        <ele>7.8</ele>
        <time>2018-03-21T18:02:59Z</time>
      </trkpt>
      <trkpt lat="62.624539478479" lon="17.921671391231">
        <ele>7.4</ele>
        <time>2018-03-21T18:03:00Z</time>
      </trkpt>
      <trkpt lat="62.62451760172" lon="17.921703745365">
        <ele>7.2</ele>
        <time>2018-03-21T18:03:01Z</time>
      </trkpt>
      <trkpt lat="62.624499580635" lon="17.921726544133">
        <ele>6.8</ele>
        <time>2018-03-21T18:03:02Z</time>
      </trkpt>
      <trkpt lat="62.624478122971" lon="17.92175194129">
        <ele>6.6</ele>
        <time>2018-03-21T18:03:03Z</time>
      </trkpt>
      <trkpt lat="62.62445306109" lon="17.921769208004">
        <ele>6.4</ele>
        <time>2018-03-21T18:03:04Z</time>
      </trkpt>
      <trkpt lat="62.624429759408" lon="17.921780775026">
        <ele>6.2</ele>
        <time>2018-03-21T18:03:05Z</time>
      </trkpt>
      <trkpt lat="62.624400841853" lon="17.921781361759">
        <ele>6</ele>
        <time>2018-03-21T18:03:06Z</time>
      </trkpt>
      <trkpt lat="62.624374774144" lon="17.921790246573">
        <ele>5.8</ele>
        <time>2018-03-21T18:03:07Z</time>
      </trkpt>
      <trkpt lat="62.624349879901" lon="17.921829222408">
        <ele>5.6</ele>
        <time>2018-03-21T18:03:08Z</time>
      </trkpt>
      <trkpt lat="62.624326745857" lon="17.921865432216">
        <ele>5.4</ele>
        <time>2018-03-21T18:03:09Z</time>
      </trkpt>
      <trkpt lat="62.624306294021" lon="17.921895942332">
        <ele>5.2</ele>
        <time>2018-03-21T18:03:10Z</time>
      </trkpt>
      <trkpt lat="62.624290703687" lon="17.921927542095">
        <ele>5</ele>
        <time>2018-03-21T18:03:11Z</time>
      </trkpt>
      <trkpt lat="62.624269748937" lon="17.921956208193">
        <ele>4.8</ele>
        <time>2018-03-21T18:03:12Z</time>
      </trkpt>
      <trkpt lat="62.624241250477" lon="17.921975486563">
        <ele>4.6</ele>
        <time>2018-03-21T18:03:13Z</time>
      </trkpt>
      <trkpt lat="62.624220547184" lon="17.921996525132">
        <ele>4.4</ele>
        <time>2018-03-21T18:03:14Z</time>
      </trkpt>
      <trkpt lat="62.624203112832" lon="17.922019910633">
        <ele>4.2</ele>
        <time>2018-03-21T18:03:15Z</time>
      </trkpt>
      <trkpt lat="62.624184085919" lon="17.922049331102">
        <ele>4.2</ele>
        <time>2018-03-21T18:03:16Z</time>
      </trkpt>
      <trkpt lat="62.624164891368" lon="17.922059724658">
        <ele>4</ele>
        <time>2018-03-21T18:03:17Z</time>
      </trkpt>
      <trkpt lat="62.624134213614" lon="17.922083193978">
        <ele>3.6</ele>
        <time>2018-03-21T18:03:18Z</time>
      </trkpt>
      <trkpt lat="62.624113929416" lon="17.922109261687">
        <ele>3.4</ele>
        <time>2018-03-21T18:03:19Z</time>
      </trkpt>
      <trkpt lat="62.624087945526" lon="17.922132982464">
        <ele>3</ele>
        <time>2018-03-21T18:03:20Z</time>
      </trkpt>
      <trkpt lat="62.624068583337" lon="17.922166929159">
        <ele>2.8</ele>
        <time>2018-03-21T18:03:21Z</time>
      </trkpt>
      <trkpt lat="62.62404402437" lon="17.922198193646">
        <ele>2.4</ele>
        <time>2018-03-21T18:03:22Z</time>
      </trkpt>
      <trkpt lat="62.624020135955" lon="17.922219316034">
        <ele>2.2</ele>
        <time>2018-03-21T18:03:23Z</time>
      </trkpt>
      <trkpt lat="62.624009071847" lon="17.922262566638">
        <ele>2</ele>
        <time>2018-03-21T18:03:24Z</time>
      </trkpt>
      <trkpt lat="62.623992224228" lon="17.922314031504">
        <ele>1.8</ele>
        <time>2018-03-21T18:03:25Z</time>
      </trkpt>
      <trkpt lat="62.623975795704" lon="17.922350660407">
        <ele>1.4</ele>
        <time>2018-03-21T18:03:26Z</time>
      </trkpt>
      <trkpt lat="62.623976298618" lon="17.922397179952">
        <ele>1.2</ele>
        <time>2018-03-21T18:03:27Z</time>
      </trkpt>
      <trkpt lat="62.623983255595" lon="17.922462977867">
        <ele>1</ele>
        <time>2018-03-21T18:03:28Z</time>
      </trkpt>
      <trkpt lat="62.623982082129" lon="17.922513101629">
        <ele>0.8</ele>
        <time>2018-03-21T18:03:29Z</time>
      </trkpt>
      <trkpt lat="62.623979316102" lon="17.922567248703">
        <ele>0.8</ele>
        <time>2018-03-21T18:03:30Z</time>
      </trkpt>
      <trkpt lat="62.6239828365" lon="17.922628352754">
        <ele>0.8</ele>
        <time>2018-03-21T18:03:31Z</time>
      </trkpt>
      <trkpt lat="62.623986440717" lon="17.922684427665">
        <ele>0.8</ele>
        <time>2018-03-21T18:03:32Z</time>
      </trkpt>
      <trkpt lat="62.623993565332" lon="17.922732036857">
        <ele>0.8</ele>
        <time>2018-03-21T18:03:33Z</time>
      </trkpt>
      <trkpt lat="62.624006054363" lon="17.922789536691">
        <ele>0.6</ele>
        <time>2018-03-21T18:03:34Z</time>
      </trkpt>
      <trkpt lat="62.624016028824" lon="17.922833625485">
        <ele>0.6</ele>
        <time>2018-03-21T18:03:35Z</time>
      </trkpt>
      <trkpt lat="62.624028601674" lon="17.922880899401">
        <ele>0.6</ele>
        <time>2018-03-21T18:03:36Z</time>
      </trkpt>
      <trkpt lat="62.624038324678" lon="17.922935381751">
        <ele>0.4</ele>
        <time>2018-03-21T18:03:37Z</time>
      </trkpt>
      <trkpt lat="62.62404737713" lon="17.922979302907">
        <ele>0.4</ele>
        <time>2018-03-21T18:03:38Z</time>
      </trkpt>
      <trkpt lat="62.624059027971" lon="17.923022804968">
        <ele>0.2</ele>
        <time>2018-03-21T18:03:39Z</time>
      </trkpt>
      <trkpt lat="62.624069589165" lon="17.92307376692">
        <ele>0</ele>
        <time>2018-03-21T18:03:40Z</time>
      </trkpt>
      <trkpt lat="62.624083838395" lon="17.923112407479">
        <ele>0</ele>
        <time>2018-03-21T18:03:41Z</time>
      </trkpt>
      <trkpt lat="62.624095489236" lon="17.923155155169">
        <ele>0</ele>
        <time>2018-03-21T18:03:42Z</time>
      </trkpt>
      <trkpt lat="62.624107642991" lon="17.923204943655">
        <ele>0</ele>
        <time>2018-03-21T18:03:43Z</time>
      </trkpt>
      <trkpt lat="62.624120802574" lon="17.92324894863">
        <ele>0</ele>
        <time>2018-03-21T18:03:44Z</time>
      </trkpt>
      <trkpt lat="62.624130944673" lon="17.923294378528">
        <ele>0</ele>
        <time>2018-03-21T18:03:45Z</time>
      </trkpt>
      <trkpt lat="62.624147205559" lon="17.923345424299">
        <ele>0</ele>
        <time>2018-03-21T18:03:46Z</time>
      </trkpt>
      <trkpt lat="62.624159946047" lon="17.923380712098">
        <ele>0</ele>
        <time>2018-03-21T18:03:47Z</time>
      </trkpt>
      <trkpt lat="62.624170758698" lon="17.923415916078">
        <ele>0</ele>
        <time>2018-03-21T18:03:48Z</time>
      </trkpt>
      <trkpt lat="62.62418484029" lon="17.92347358355">
        <ele>0</ele>
        <time>2018-03-21T18:03:49Z</time>
      </trkpt>
      <trkpt lat="62.624192467819" lon="17.92351297848">
        <ele>0</ele>
        <time>2018-03-21T18:03:50Z</time>
      </trkpt>
      <trkpt lat="62.624203448108" lon="17.923556983455">
        <ele>0</ele>
        <time>2018-03-21T18:03:51Z</time>
      </trkpt>
      <trkpt lat="62.624211913827" lon="17.923609202692">
        <ele>0</ele>
        <time>2018-03-21T18:03:52Z</time>
      </trkpt>
      <trkpt lat="62.624220798641" lon="17.923662260119">
        <ele>0</ele>
        <time>2018-03-21T18:03:53Z</time>
      </trkpt>
      <trkpt lat="62.624233203853" lon="17.923695368624">
        <ele>0</ele>
        <time>2018-03-21T18:03:54Z</time>
      </trkpt>
      <trkpt lat="62.624241082839" lon="17.923744235101">
        <ele>0</ele>
        <time>2018-03-21T18:03:55Z</time>
      </trkpt>
      <trkpt lat="62.624241250477" lon="17.923801986392">
        <ele>0</ele>
        <time>2018-03-21T18:03:56Z</time>
      </trkpt>
      <trkpt lat="62.62424099902" lon="17.923843476797">
        <ele>0</ele>
        <time>2018-03-21T18:03:57Z</time>
      </trkpt>
      <trkpt lat="62.624230437826" lon="17.923896450405">
        <ele>0</ele>
        <time>2018-03-21T18:03:58Z</time>
      </trkpt>
      <trkpt lat="62.624215098949" lon="17.92394129357">
        <ele>0</ele>
        <time>2018-03-21T18:03:59Z</time>
      </trkpt>
      <trkpt lat="62.624192886914" lon="17.92396560108">
        <ele>0</ele>
        <time>2018-03-21T18:04:00Z</time>
      </trkpt>
      <trkpt lat="62.624177045123" lon="17.923982783975">
        <ele>0</ele>
        <time>2018-03-21T18:04:01Z</time>
      </trkpt>
      <trkpt lat="62.624172099802" lon="17.924005331286">
        <ele>0</ele>
        <time>2018-03-21T18:04:02Z</time>
      </trkpt>
      <trkpt lat="62.624170171965" lon="17.924032153366">
        <ele>0</ele>
        <time>2018-03-21T18:04:03Z</time>
      </trkpt>
      <trkpt lat="62.624162125341" lon="17.92404858189">
        <ele>0</ele>
        <time>2018-03-21T18:04:04Z</time>
      </trkpt>
      <trkpt lat="62.624151396509" lon="17.924051767012">
        <ele>0</ele>
        <time>2018-03-21T18:04:05Z</time>
      </trkpt>
      <trkpt lat="62.624143014609" lon="17.924070123373">
        <ele>0</ele>
        <time>2018-03-21T18:04:06Z</time>
      </trkpt>
      <trkpt lat="62.624131782863" lon="17.924093173598">
        <ele>0</ele>
        <time>2018-03-21T18:04:07Z</time>
      </trkpt>
      <trkpt lat="62.624106553344" lon="17.924112535787">
        <ele>0</ele>
        <time>2018-03-21T18:04:08Z</time>
      </trkpt>
      <trkpt lat="62.62408509568" lon="17.92412988632">
        <ele>0</ele>
        <time>2018-03-21T18:04:09Z</time>
      </trkpt>
      <trkpt lat="62.62406078817" lon="17.924157965685">
        <ele>0</ele>
        <time>2018-03-21T18:04:10Z</time>
      </trkpt>
      <trkpt lat="62.624043102361" lon="17.924192666751">
        <ele>0</ele>
        <time>2018-03-21T18:04:11Z</time>
      </trkpt>
      <trkpt lat="62.624027092932" lon="17.924241700866">
        <ele>0</ele>
        <time>2018-03-21T18:04:12Z</time>
      </trkpt>
      <trkpt lat="62.62401049677" lon="17.924297021406">
        <ele>0</ele>
        <time>2018-03-21T18:04:13Z</time>
      </trkpt>
      <trkpt lat="62.623998175377" lon="17.924344127684">
        <ele>0</ele>
        <time>2018-03-21T18:04:14Z</time>
      </trkpt>
      <trkpt lat="62.623985853984" lon="17.924385869546">
        <ele>0</ele>
        <time>2018-03-21T18:04:15Z</time>
      </trkpt>
      <trkpt lat="62.623967916718" lon="17.924440938629">
        <ele>0</ele>
        <time>2018-03-21T18:04:16Z</time>
      </trkpt>
      <trkpt lat="62.623955679144" lon="17.924482261396">
        <ele>0</ele>
        <time>2018-03-21T18:04:17Z</time>
      </trkpt>
      <trkpt lat="62.623941346095" lon="17.924524589991">
        <ele>0</ele>
        <time>2018-03-21T18:04:18Z</time>
      </trkpt>
      <trkpt lat="62.62392835415" lon="17.92457328883">
        <ele>0</ele>
        <time>2018-03-21T18:04:19Z</time>
      </trkpt>
      <trkpt lat="62.623926342494" lon="17.924616455615">
        <ele>0</ele>
        <time>2018-03-21T18:04:20Z</time>
      </trkpt>
      <trkpt lat="62.62393170691" lon="17.924670686508">
        <ele>0</ele>
        <time>2018-03-21T18:04:21Z</time>
      </trkpt>
      <trkpt lat="62.623941932828" lon="17.924713853293">
        <ele>0</ele>
        <time>2018-03-21T18:04:22Z</time>
      </trkpt>
      <trkpt lat="62.623960792103" lon="17.924738998993">
        <ele>0</ele>
        <time>2018-03-21T18:04:23Z</time>
      </trkpt>
      <trkpt lat="62.623977472084" lon="17.924776214629">
        <ele>0</ele>
        <time>2018-03-21T18:04:24Z</time>
      </trkpt>
      <trkpt lat="62.623990883124" lon="17.924823320907">
        <ele>0</ele>
        <time>2018-03-21T18:04:25Z</time>
      </trkpt>
      <trkpt lat="62.624004880897" lon="17.924859698353">
        <ele>0</ele>
        <time>2018-03-21T18:04:26Z</time>
      </trkpt>
      <trkpt lat="62.624015106815" lon="17.92490688845">
        <ele>0</ele>
        <time>2018-03-21T18:04:27Z</time>
      </trkpt>
      <trkpt lat="62.624022734344" lon="17.924952402167">
        <ele>0</ele>
        <time>2018-03-21T18:04:28Z</time>
      </trkpt>
      <trkpt lat="62.624035223375" lon="17.924989450165">
        <ele>0</ele>
        <time>2018-03-21T18:04:29Z</time>
      </trkpt>
      <trkpt lat="62.624047209492" lon="17.925029515647">
        <ele>0</ele>
        <time>2018-03-21T18:04:30Z</time>
      </trkpt>
      <trkpt lat="62.624047963863" lon="17.925046111809">
        <ele>0</ele>
        <time>2018-03-21T18:04:31Z</time>
      </trkpt>
      <trkpt lat="62.624060536713" lon="17.925094726829">
        <ele>0</ele>
        <time>2018-03-21T18:04:32Z</time>
      </trkpt>
      <trkpt lat="62.624072690468" lon="17.925128338248">
        <ele>0</ele>
        <time>2018-03-21T18:04:33Z</time>
      </trkpt>
      <trkpt lat="62.624083251662" lon="17.925172343223">
        <ele>0</ele>
        <time>2018-03-21T18:04:34Z</time>
      </trkpt>
      <trkpt lat="62.62409431577" lon="17.925203942986">
        <ele>0</ele>
        <time>2018-03-21T18:04:35Z</time>
      </trkpt>
      <trkpt lat="62.624108397362" lon="17.92524551721">
        <ele>0</ele>
        <time>2018-03-21T18:04:36Z</time>
      </trkpt>
      <trkpt lat="62.624119545289" lon="17.925288516357">
        <ele>0</ele>
        <time>2018-03-21T18:04:37Z</time>
      </trkpt>
      <trkpt lat="62.624129352112" lon="17.925327240735">
        <ele>0</ele>
        <time>2018-03-21T18:04:38Z</time>
      </trkpt>
      <trkpt lat="62.62414041622" lon="17.925370239882">
        <ele>0</ele>
        <time>2018-03-21T18:04:39Z</time>
      </trkpt>
      <trkpt lat="62.624149803948" lon="17.925407120242">
        <ele>0</ele>
        <time>2018-03-21T18:04:40Z</time>
      </trkpt>
      <trkpt lat="62.62416220916" lon="17.925441066937">
        <ele>0</ele>
        <time>2018-03-21T18:04:41Z</time>
      </trkpt>
      <trkpt lat="62.624174530553" lon="17.925483898446">
        <ele>0</ele>
        <time>2018-03-21T18:04:42Z</time>
      </trkpt>
      <trkpt lat="62.624182828634" lon="17.925519521521">
        <ele>0</ele>
        <time>2018-03-21T18:04:43Z</time>
      </trkpt>
      <trkpt lat="62.624195820579" lon="17.925556653338">
        <ele>0</ele>
        <time>2018-03-21T18:04:44Z</time>
      </trkpt>
      <trkpt lat="62.624206717049" lon="17.92559588063">
        <ele>0</ele>
        <time>2018-03-21T18:04:45Z</time>
      </trkpt>
      <trkpt lat="62.624211494732" lon="17.925635778474">
        <ele>0</ele>
        <time>2018-03-21T18:04:46Z</time>
      </trkpt>
      <trkpt lat="62.624215098949" lon="17.925675424861">
        <ele>0</ele>
        <time>2018-03-21T18:04:47Z</time>
      </trkpt>
      <trkpt lat="62.624217110605" lon="17.925709539194">
        <ele>0</ele>
        <time>2018-03-21T18:04:48Z</time>
      </trkpt>
      <trkpt lat="62.624211830008" lon="17.925752789798">
        <ele>0</ele>
        <time>2018-03-21T18:04:49Z</time>
      </trkpt>
      <trkpt lat="62.624202609918" lon="17.925779276602">
        <ele>0</ele>
        <time>2018-03-21T18:04:50Z</time>
      </trkpt>
      <trkpt lat="62.624181319892" lon="17.925791681814">
        <ele>0</ele>
        <time>2018-03-21T18:04:51Z</time>
      </trkpt>
      <trkpt lat="62.624156928563" lon="17.925799896076">
        <ele>0</ele>
        <time>2018-03-21T18:04:52Z</time>
      </trkpt>
      <trkpt lat="62.624132788691" lon="17.925838704273">
        <ele>0</ele>
        <time>2018-03-21T18:04:53Z</time>
      </trkpt>
      <trkpt lat="62.62411527052" lon="17.925856138625">
        <ele>0</ele>
        <time>2018-03-21T18:04:54Z</time>
      </trkpt>
      <trkpt lat="62.624088951354" lon="17.92589595265">
        <ele>0</ele>
        <time>2018-03-21T18:04:55Z</time>
      </trkpt>
      <trkpt lat="62.624069840622" lon="17.925920679255">
        <ele>0</ele>
        <time>2018-03-21T18:04:56Z</time>
      </trkpt>
      <trkpt lat="62.624044694922" lon="17.92595211138">
        <ele>0</ele>
        <time>2018-03-21T18:04:57Z</time>
      </trkpt>
      <trkpt lat="62.624024746" lon="17.925981112754">
        <ele>0</ele>
        <time>2018-03-21T18:04:58Z</time>
      </trkpt>
      <trkpt lat="62.624009407123" lon="17.92599905002">
        <ele>0</ele>
        <time>2018-03-21T18:04:59Z</time>
      </trkpt>
      <trkpt lat="62.623986859812" lon="17.926026375014">
        <ele>0</ele>
        <time>2018-03-21T18:05:00Z</time>
      </trkpt>
      <trkpt lat="62.623965737424" lon="17.926053364732">
        <ele>0</ele>
        <time>2018-03-21T18:05:01Z</time>
      </trkpt>
      <trkpt lat="62.623944866493" lon="17.926062333365">
        <ele>0</ele>
        <time>2018-03-21T18:05:02Z</time>
      </trkpt>
      <trkpt lat="62.623924414657" lon="17.926082701382">
        <ele>0</ele>
        <time>2018-03-21T18:05:03Z</time>
      </trkpt>
      <trkpt lat="62.623903040812" lon="17.926094352223">
        <ele>0</ele>
        <time>2018-03-21T18:05:04Z</time>
      </trkpt>
      <trkpt lat="62.623884516813" lon="17.926118408276">
        <ele>0</ele>
        <time>2018-03-21T18:05:05Z</time>
      </trkpt>
      <trkpt lat="62.623862723873" lon="17.926149337487">
        <ele>0</ele>
        <time>2018-03-21T18:05:06Z</time>
      </trkpt>
      <trkpt lat="62.623836572345" lon="17.926181104888">
        <ele>0</ele>
        <time>2018-03-21T18:05:07Z</time>
      </trkpt>
      <trkpt lat="62.623810588455" lon="17.926223852578">
        <ele>0</ele>
        <time>2018-03-21T18:05:08Z</time>
      </trkpt>
      <trkpt lat="62.623792148275" lon="17.926253105409">
        <ele>0</ele>
        <time>2018-03-21T18:05:09Z</time>
      </trkpt>
      <trkpt lat="62.623771277344" lon="17.92628235824">
        <ele>0</ele>
        <time>2018-03-21T18:05:10Z</time>
      </trkpt>
      <trkpt lat="62.623751076965" lon="17.926309347958">
        <ele>0</ele>
        <time>2018-03-21T18:05:11Z</time>
      </trkpt>
      <trkpt lat="62.623726015084" lon="17.926337175866">
        <ele>0</ele>
        <time>2018-03-21T18:05:12Z</time>
      </trkpt>
      <trkpt lat="62.623704222144" lon="17.92636282448">
        <ele>0</ele>
        <time>2018-03-21T18:05:13Z</time>
      </trkpt>
      <trkpt lat="62.623684105584" lon="17.926390065655">
        <ele>0</ele>
        <time>2018-03-21T18:05:14Z</time>
      </trkpt>
      <trkpt lat="62.623662145006" lon="17.926416887735">
        <ele>0</ele>
        <time>2018-03-21T18:05:15Z</time>
      </trkpt>
      <trkpt lat="62.623642698998" lon="17.926440021779">
        <ele>0</ele>
        <time>2018-03-21T18:05:16Z</time>
      </trkpt>
      <trkpt lat="62.623625683741" lon="17.926457120855">
        <ele>0</ele>
        <time>2018-03-21T18:05:17Z</time>
      </trkpt>
      <trkpt lat="62.623604393715" lon="17.926477237415">
        <ele>0</ele>
        <time>2018-03-21T18:05:18Z</time>
      </trkpt>
      <trkpt lat="62.623588971019" lon="17.926494755586">
        <ele>0</ele>
        <time>2018-03-21T18:05:19Z</time>
      </trkpt>
      <trkpt lat="62.623569105916" lon="17.926510429739">
        <ele>0</ele>
        <time>2018-03-21T18:05:20Z</time>
      </trkpt>
      <trkpt lat="62.62354865408" lon="17.926533312326">
        <ele>0</ele>
        <time>2018-03-21T18:05:21Z</time>
      </trkpt>
      <trkpt lat="62.623529208072" lon="17.926557955112">
        <ele>0</ele>
        <time>2018-03-21T18:05:22Z</time>
      </trkpt>
      <trkpt lat="62.623510181159" lon="17.926587291762">
        <ele>0</ele>
        <time>2018-03-21T18:05:23Z</time>
      </trkpt>
      <trkpt lat="62.623490064599" lon="17.92661595786">
        <ele>0</ele>
        <time>2018-03-21T18:05:24Z</time>
      </trkpt>
      <trkpt lat="62.623469948039" lon="17.926647892899">
        <ele>0</ele>
        <time>2018-03-21T18:05:25Z</time>
      </trkpt>
      <trkpt lat="62.623449328565" lon="17.926682342508">
        <ele>0</ele>
        <time>2018-03-21T18:05:26Z</time>
      </trkpt>
      <trkpt lat="62.623429295824" lon="17.926718636135">
        <ele>0</ele>
        <time>2018-03-21T18:05:27Z</time>
      </trkpt>
      <trkpt lat="62.623410604187" lon="17.92675342102">
        <ele>0</ele>
        <time>2018-03-21T18:05:28Z</time>
      </trkpt>
      <trkpt lat="62.623395684405" lon="17.926786780982">
        <ele>0</ele>
        <time>2018-03-21T18:05:29Z</time>
      </trkpt>
      <trkpt lat="62.623378836786" lon="17.926829109577">
        <ele>0</ele>
        <time>2018-03-21T18:05:30Z</time>
      </trkpt>
      <trkpt lat="62.623367856497" lon="17.926872863095">
        <ele>0</ele>
        <time>2018-03-21T18:05:31Z</time>
      </trkpt>
      <trkpt lat="62.623361653891" lon="17.926924747056">
        <ele>0</ele>
        <time>2018-03-21T18:05:32Z</time>
      </trkpt>
      <trkpt lat="62.623358133493" lon="17.926984258546">
        <ele>0</ele>
        <time>2018-03-21T18:05:33Z</time>
      </trkpt>
      <trkpt lat="62.623355199828" lon="17.92703337648">
        <ele>0</ele>
        <time>2018-03-21T18:05:34Z</time>
      </trkpt>
      <trkpt lat="62.623353104353" lon="17.927084003156">
        <ele>0</ele>
        <time>2018-03-21T18:05:35Z</time>
      </trkpt>
      <trkpt lat="62.623354110181" lon="17.927134546013">
        <ele>0</ele>
        <time>2018-03-21T18:05:36Z</time>
      </trkpt>
      <trkpt lat="62.623359977511" lon="17.927184334499">
        <ele>0</ele>
        <time>2018-03-21T18:05:37Z</time>
      </trkpt>
      <trkpt lat="62.623361402434" lon="17.927236721374">
        <ele>0</ele>
        <time>2018-03-21T18:05:38Z</time>
      </trkpt>
      <trkpt lat="62.623360983339" lon="17.927286342222">
        <ele>0</ele>
        <time>2018-03-21T18:05:39Z</time>
      </trkpt>
      <trkpt lat="62.623358804045" lon="17.927337304174">
        <ele>0</ele>
        <time>2018-03-21T18:05:40Z</time>
      </trkpt>
      <trkpt lat="62.623355786561" lon="17.92738625447">
        <ele>0</ele>
        <time>2018-03-21T18:05:41Z</time>
      </trkpt>
      <trkpt lat="62.62335503219" lon="17.927437048784">
        <ele>0</ele>
        <time>2018-03-21T18:05:42Z</time>
      </trkpt>
      <trkpt lat="62.623354696914" lon="17.927482813958">
        <ele>0</ele>
        <time>2018-03-21T18:05:43Z</time>
      </trkpt>
      <trkpt lat="62.62335251762" lon="17.927527992399">
        <ele>0</ele>
        <time>2018-03-21T18:05:44Z</time>
      </trkpt>
      <trkpt lat="62.623350505964" lon="17.927580295455">
        <ele>0</ele>
        <time>2018-03-21T18:05:45Z</time>
      </trkpt>
      <trkpt lat="62.623349332498" lon="17.92762849138">
        <ele>0</ele>
        <time>2018-03-21T18:05:46Z</time>
      </trkpt>
      <trkpt lat="62.623348159032" lon="17.927675010925">
        <ele>0</ele>
        <time>2018-03-21T18:05:47Z</time>
      </trkpt>
      <trkpt lat="62.623348075213" lon="17.927729241818">
        <ele>0</ele>
        <time>2018-03-21T18:05:48Z</time>
      </trkpt>
      <trkpt lat="62.623348661946" lon="17.927775090811">
        <ele>0</ele>
        <time>2018-03-21T18:05:49Z</time>
      </trkpt>
      <trkpt lat="62.623348913403" lon="17.927827645324">
        <ele>0</ele>
        <time>2018-03-21T18:05:50Z</time>
      </trkpt>
      <trkpt lat="62.623351763249" lon="17.92787156648">
        <ele>0</ele>
        <time>2018-03-21T18:05:51Z</time>
      </trkpt>
      <trkpt lat="62.623353942543" lon="17.927918840396">
        <ele>0</ele>
        <time>2018-03-21T18:05:52Z</time>
      </trkpt>
      <trkpt lat="62.623357043846" lon="17.927961420448">
        <ele>0</ele>
        <time>2018-03-21T18:05:53Z</time>
      </trkpt>
      <trkpt lat="62.623361653891" lon="17.928002491758">
        <ele>0</ele>
        <time>2018-03-21T18:05:54Z</time>
      </trkpt>
      <trkpt lat="62.623368275592" lon="17.928047418742">
        <ele>0</ele>
        <time>2018-03-21T18:05:55Z</time>
      </trkpt>
      <trkpt lat="62.623374226741" lon="17.928093854468">
        <ele>0</ele>
        <time>2018-03-21T18:05:56Z</time>
      </trkpt>
      <trkpt lat="62.623373137094" lon="17.928138529995">
        <ele>0</ele>
        <time>2018-03-21T18:05:57Z</time>
      </trkpt>
      <trkpt lat="62.623371209257" lon="17.928183959893">
        <ele>0</ele>
        <time>2018-03-21T18:05:58Z</time>
      </trkpt>
      <trkpt lat="62.623369113782" lon="17.928225366479">
        <ele>0</ele>
        <time>2018-03-21T18:05:59Z</time>
      </trkpt>
      <trkpt lat="62.623363162633" lon="17.928274652051">
        <ele>0</ele>
        <time>2018-03-21T18:06:00Z</time>
      </trkpt>
      <trkpt lat="62.623352098525" lon="17.928316813008">
        <ele>0</ele>
        <time>2018-03-21T18:06:01Z</time>
      </trkpt>
      <trkpt lat="62.623339358037" lon="17.92834682021">
        <ele>0</ele>
        <time>2018-03-21T18:06:02Z</time>
      </trkpt>
      <trkpt lat="62.623323935341" lon="17.928376073041">
        <ele>0</ele>
        <time>2018-03-21T18:06:03Z</time>
      </trkpt>
      <trkpt lat="62.623313709423" lon="17.928403062759">
        <ele>0</ele>
        <time>2018-03-21T18:06:04Z</time>
      </trkpt>
      <trkpt lat="62.623305830437" lon="17.928430136296">
        <ele>0</ele>
        <time>2018-03-21T18:06:05Z</time>
      </trkpt>
      <trkpt lat="62.623289737189" lon="17.928463496258">
        <ele>0</ele>
        <time>2018-03-21T18:06:06Z</time>
      </trkpt>
      <trkpt lat="62.623278002529" lon="17.928484451008">
        <ele>0</ele>
        <time>2018-03-21T18:06:07Z</time>
      </trkpt>
      <trkpt lat="62.623272386656" lon="17.928494090193">
        <ele>0</ele>
        <time>2018-03-21T18:06:08Z</time>
      </trkpt>
      <trkpt lat="62.623268363344" lon="17.928507585052">
        <ele>0</ele>
        <time>2018-03-21T18:06:09Z</time>
      </trkpt>
      <trkpt lat="62.623266267869" lon="17.928538178987">
        <ele>0</ele>
        <time>2018-03-21T18:06:10Z</time>
      </trkpt>
      <trkpt lat="62.623270375" lon="17.928572209501">
        <ele>0</ele>
        <time>2018-03-21T18:06:11Z</time>
      </trkpt>
      <trkpt lat="62.623278589262" lon="17.928607162024">
        <ele>0</ele>
        <time>2018-03-21T18:06:12Z</time>
      </trkpt>
      <trkpt lat="62.623286552067" lon="17.928650077352">
        <ele>0</ele>
        <time>2018-03-21T18:06:13Z</time>
      </trkpt>
      <trkpt lat="62.623293760501" lon="17.92868963992">
        <ele>0</ele>
        <time>2018-03-21T18:06:14Z</time>
      </trkpt>
      <trkpt lat="62.623302729134" lon="17.928732471429">
        <ele>0</ele>
        <time>2018-03-21T18:06:15Z</time>
      </trkpt>
      <trkpt lat="62.623310859577" lon="17.928774213291">
        <ele>0</ele>
        <time>2018-03-21T18:06:16Z</time>
      </trkpt>
      <trkpt lat="62.623319660572" lon="17.928814697868">
        <ele>0</ele>
        <time>2018-03-21T18:06:17Z</time>
      </trkpt>
      <trkpt lat="62.623326617549" lon="17.928855769178">
        <ele>0</ele>
        <time>2018-03-21T18:06:18Z</time>
      </trkpt>
      <trkpt lat="62.623334664173" lon="17.928896086117">
        <ele>0</ele>
        <time>2018-03-21T18:06:19Z</time>
      </trkpt>
      <trkpt lat="62.623343716625" lon="17.928937576522">
        <ele>0</ele>
        <time>2018-03-21T18:06:20Z</time>
      </trkpt>
      <trkpt lat="62.623352098525" lon="17.92897965366">
        <ele>0</ele>
        <time>2018-03-21T18:06:21Z</time>
      </trkpt>
      <trkpt lat="62.623358804045" lon="17.929013851812">
        <ele>0</ele>
        <time>2018-03-21T18:06:22Z</time>
      </trkpt>
      <trkpt lat="62.623367102126" lon="17.92904251791">
        <ele>0</ele>
        <time>2018-03-21T18:06:23Z</time>
      </trkpt>
      <trkpt lat="62.623378082415" lon="17.929071351646">
        <ele>0</ele>
        <time>2018-03-21T18:06:24Z</time>
      </trkpt>
      <trkpt lat="62.623390403808" lon="17.929089624188">
        <ele>0</ele>
        <time>2018-03-21T18:06:25Z</time>
      </trkpt>
      <trkpt lat="62.623403563391" lon="17.929096832622">
        <ele>0</ele>
        <time>2018-03-21T18:06:26Z</time>
      </trkpt>
      <trkpt lat="62.623419321363" lon="17.929105465979">
        <ele>0</ele>
        <time>2018-03-21T18:06:27Z</time>
      </trkpt>
      <trkpt lat="62.623439940837" lon="17.929123906159">
        <ele>0</ele>
        <time>2018-03-21T18:06:28Z</time>
      </trkpt>
      <trkpt lat="62.623459135388" lon="17.929135054086">
        <ele>0</ele>
        <time>2018-03-21T18:06:29Z</time>
      </trkpt>
      <trkpt lat="62.623479335767" lon="17.929162630537">
        <ele>0</ele>
        <time>2018-03-21T18:06:30Z</time>
      </trkpt>
      <trkpt lat="62.623495931929" lon="17.929200684363">
        <ele>0</ele>
        <time>2018-03-21T18:06:31Z</time>
      </trkpt>
      <trkpt lat="62.623508923874" lon="17.929236558895">
        <ele>0</ele>
        <time>2018-03-21T18:06:32Z</time>
      </trkpt>
      <trkpt lat="62.623523759837" lon="17.929275786187">
        <ele>0</ele>
        <time>2018-03-21T18:06:33Z</time>
      </trkpt>
      <trkpt lat="62.623537170877" lon="17.92930906233">
        <ele>0</ele>
        <time>2018-03-21T18:06:34Z</time>
      </trkpt>
      <trkpt lat="62.623550162822" lon="17.929345691233">
        <ele>0</ele>
        <time>2018-03-21T18:06:35Z</time>
      </trkpt>
      <trkpt lat="62.623561478387" lon="17.929390115303">
        <ele>0</ele>
        <time>2018-03-21T18:06:36Z</time>
      </trkpt>
      <trkpt lat="62.623568938278" lon="17.929435209925">
        <ele>0</ele>
        <time>2018-03-21T18:06:37Z</time>
      </trkpt>
      <trkpt lat="62.623576146712" lon="17.929483657307">
        <ele>0</ele>
        <time>2018-03-21T18:06:38Z</time>
      </trkpt>
      <trkpt lat="62.623582768413" lon="17.929531098861">
        <ele>0</ele>
        <time>2018-03-21T18:06:39Z</time>
      </trkpt>
      <trkpt lat="62.623588384286" lon="17.92958231227">
        <ele>0</ele>
        <time>2018-03-21T18:06:40Z</time>
      </trkpt>
      <trkpt lat="62.623594586892" lon="17.929625646693">
        <ele>0</ele>
        <time>2018-03-21T18:06:41Z</time>
      </trkpt>
      <trkpt lat="62.623603304068" lon="17.929677195378">
        <ele>0</ele>
        <time>2018-03-21T18:06:42Z</time>
      </trkpt>
      <trkpt lat="62.623613949081" lon="17.929721116534">
        <ele>0</ele>
        <time>2018-03-21T18:06:43Z</time>
      </trkpt>
      <trkpt lat="62.623625180827" lon="17.92975833217">
        <ele>0</ele>
        <time>2018-03-21T18:06:44Z</time>
      </trkpt>
      <trkpt lat="62.623640268247" lon="17.929800576946">
        <ele>0</ele>
        <time>2018-03-21T18:06:45Z</time>
      </trkpt>
      <trkpt lat="62.623655774762" lon="17.929837289668">
        <ele>0</ele>
        <time>2018-03-21T18:06:46Z</time>
      </trkpt>
      <trkpt lat="62.623669772535" lon="17.929872996562">
        <ele>0</ele>
        <time>2018-03-21T18:06:47Z</time>
      </trkpt>
      <trkpt lat="62.623687039249" lon="17.929916079528">
        <ele>0</ele>
        <time>2018-03-21T18:06:48Z</time>
      </trkpt>
      <trkpt lat="62.623701875212" lon="17.929947427834">
        <ele>0</ele>
        <time>2018-03-21T18:06:49Z</time>
      </trkpt>
      <trkpt lat="62.623721572677" lon="17.929980536339">
        <ele>0</ele>
        <time>2018-03-21T18:06:50Z</time>
      </trkpt>
      <trkpt lat="62.623738336477" lon="17.930014231577">
        <ele>0</ele>
        <time>2018-03-21T18:06:51Z</time>
      </trkpt>
      <trkpt lat="62.623752920983" lon="17.930049100281">
        <ele>0</ele>
        <time>2018-03-21T18:06:52Z</time>
      </trkpt>
      <trkpt lat="62.623766332023" lon="17.930087824659">
        <ele>0</ele>
        <time>2018-03-21T18:06:53Z</time>
      </trkpt>
      <trkpt lat="62.623777228493" lon="17.930136691136">
        <ele>0</ele>
        <time>2018-03-21T18:06:54Z</time>
      </trkpt>
      <trkpt lat="62.62378586185" lon="17.930184551785">
        <ele>0</ele>
        <time>2018-03-21T18:06:55Z</time>
      </trkpt>
      <trkpt lat="62.623794662845" lon="17.930230484597">
        <ele>0</ele>
        <time>2018-03-21T18:06:56Z</time>
      </trkpt>
      <trkpt lat="62.623805726953" lon="17.93027465721">
        <ele>0</ele>
        <time>2018-03-21T18:06:57Z</time>
      </trkpt>
      <trkpt lat="62.623817545432" lon="17.930319165099">
        <ele>0</ele>
        <time>2018-03-21T18:06:58Z</time>
      </trkpt>
      <trkpt lat="62.623827100798" lon="17.930358979124">
        <ele>0</ele>
        <time>2018-03-21T18:06:59Z</time>
      </trkpt>
      <trkpt lat="62.623832884309" lon="17.930414970216">
        <ele>0</ele>
        <time>2018-03-21T18:07:00Z</time>
      </trkpt>
      <trkpt lat="62.623833471042" lon="17.930470626032">
        <ele>0</ele>
        <time>2018-03-21T18:07:01Z</time>
      </trkpt>
      <trkpt lat="62.623835985612" lon="17.930519743966">
        <ele>0</ele>
        <time>2018-03-21T18:07:02Z</time>
      </trkpt>
      <trkpt lat="62.623844451331" lon="17.930570370642">
        <ele>0</ele>
        <time>2018-03-21T18:07:03Z</time>
      </trkpt>
      <trkpt lat="62.623855096344" lon="17.930613956522">
        <ele>0</ele>
        <time>2018-03-21T18:07:04Z</time>
      </trkpt>
      <trkpt lat="62.623866831004" lon="17.93065854823">
        <ele>0</ele>
        <time>2018-03-21T18:07:05Z</time>
      </trkpt>
      <trkpt lat="62.623881666967" lon="17.930709091087">
        <ele>0</ele>
        <time>2018-03-21T18:07:06Z</time>
      </trkpt>
      <trkpt lat="62.623892982532" lon="17.930756029727">
        <ele>0</ele>
        <time>2018-03-21T18:07:07Z</time>
      </trkpt>
      <trkpt lat="62.623902454079" lon="17.930808919516">
        <ele>0</ele>
        <time>2018-03-21T18:07:08Z</time>
      </trkpt>
      <trkpt lat="62.623913182911" lon="17.930855690518">
        <ele>0</ele>
        <time>2018-03-21T18:07:09Z</time>
      </trkpt>
      <trkpt lat="62.623925588123" lon="17.930905311366">
        <ele>0</ele>
        <time>2018-03-21T18:07:10Z</time>
      </trkpt>
      <trkpt lat="62.623936149317" lon="17.930954680757">
        <ele>0</ele>
        <time>2018-03-21T18:07:11Z</time>
      </trkpt>
      <trkpt lat="62.623944531217" lon="17.931007402908">
        <ele>0</ele>
        <time>2018-03-21T18:07:12Z</time>
      </trkpt>
      <trkpt lat="62.623952074927" lon="17.931056017928">
        <ele>0</ele>
        <time>2018-03-21T18:07:13Z</time>
      </trkpt>
      <trkpt lat="62.62395936718" lon="17.931104632948">
        <ele>0</ele>
        <time>2018-03-21T18:07:14Z</time>
      </trkpt>
      <trkpt lat="62.623966659433" lon="17.931156265452">
        <ele>0</ele>
        <time>2018-03-21T18:07:15Z</time>
      </trkpt>
      <trkpt lat="62.62397026365" lon="17.93120756268">
        <ele>0</ele>
        <time>2018-03-21T18:07:16Z</time>
      </trkpt>
      <trkpt lat="62.623972191487" lon="17.931255088053">
        <ele>0</ele>
        <time>2018-03-21T18:07:17Z</time>
      </trkpt>
      <trkpt lat="62.62397277822" lon="17.931314096629">
        <ele>0</ele>
        <time>2018-03-21T18:07:18Z</time>
      </trkpt>
      <trkpt lat="62.623974789876" lon="17.931363130744">
        <ele>0</ele>
        <time>2018-03-21T18:07:19Z</time>
      </trkpt>
      <trkpt lat="62.623977723541" lon="17.93142046294">
        <ele>0</ele>
        <time>2018-03-21T18:07:20Z</time>
      </trkpt>
      <trkpt lat="62.623981746853" lon="17.931468826503">
        <ele>0</ele>
        <time>2018-03-21T18:07:21Z</time>
      </trkpt>
      <trkpt lat="62.623988200916" lon="17.931514507858">
        <ele>0</ele>
        <time>2018-03-21T18:07:22Z</time>
      </trkpt>
      <trkpt lat="62.623994487341" lon="17.931560692127">
        <ele>0</ele>
        <time>2018-03-21T18:07:23Z</time>
      </trkpt>
      <trkpt lat="62.624001863413" lon="17.931608888052">
        <ele>0</ele>
        <time>2018-03-21T18:07:24Z</time>
      </trkpt>
      <trkpt lat="62.624015777367" lon="17.931656581063">
        <ele>0</ele>
        <time>2018-03-21T18:07:25Z</time>
      </trkpt>
      <trkpt lat="62.624030194235" lon="17.93170460935">
        <ele>0</ele>
        <time>2018-03-21T18:07:26Z</time>
      </trkpt>
      <trkpt lat="62.624043102361" lon="17.931747776135">
        <ele>0</ele>
        <time>2018-03-21T18:07:27Z</time>
      </trkpt>
      <trkpt lat="62.624057351591" lon="17.931783231572">
        <ele>0</ele>
        <time>2018-03-21T18:07:28Z</time>
      </trkpt>
      <trkpt lat="62.624073696296" lon="17.931813909326">
        <ele>0</ele>
        <time>2018-03-21T18:07:29Z</time>
      </trkpt>
      <trkpt lat="62.624092387933" lon="17.931845509089">
        <ele>0</ele>
        <time>2018-03-21T18:07:30Z</time>
      </trkpt>
      <trkpt lat="62.624113091226" lon="17.931878030861">
        <ele>0</ele>
        <time>2018-03-21T18:07:31Z</time>
      </trkpt>
      <trkpt lat="62.624133123967" lon="17.931904433846">
        <ele>0</ele>
        <time>2018-03-21T18:07:32Z</time>
      </trkpt>
      <trkpt lat="62.624152905251" lon="17.931926645881">
        <ele>0</ele>
        <time>2018-03-21T18:07:33Z</time>
      </trkpt>
      <trkpt lat="62.624171093974" lon="17.931942320034">
        <ele>0</ele>
        <time>2018-03-21T18:07:34Z</time>
      </trkpt>
      <trkpt lat="62.624189450335" lon="17.931960927852">
        <ele>0</ele>
        <time>2018-03-21T18:07:35Z</time>
      </trkpt>
      <trkpt lat="62.624207387601" lon="17.931981128231">
        <ele>0</ele>
        <time>2018-03-21T18:07:36Z</time>
      </trkpt>
      <trkpt lat="62.6242259116" lon="17.932002334438">
        <ele>0</ele>
        <time>2018-03-21T18:07:37Z</time>
      </trkpt>
      <trkpt lat="62.624246614893" lon="17.932019601152">
        <ele>0</ele>
        <time>2018-03-21T18:07:38Z</time>
      </trkpt>
      <trkpt lat="62.62426530653" lon="17.932034688572">
        <ele>0</ele>
        <time>2018-03-21T18:07:39Z</time>
      </trkpt>
      <trkpt lat="62.624287434746" lon="17.9320524582">
        <ele>0</ele>
        <time>2018-03-21T18:07:40Z</time>
      </trkpt>
      <trkpt lat="62.624307886582" lon="17.93206838381">
        <ele>0</ele>
        <time>2018-03-21T18:07:41Z</time>
      </trkpt>
      <trkpt lat="62.62432817078" lon="17.932090092931">
        <ele>0</ele>
        <time>2018-03-21T18:07:42Z</time>
      </trkpt>
      <trkpt lat="62.624347030055" lon="17.932117250287">
        <ele>0</ele>
        <time>2018-03-21T18:07:43Z</time>
      </trkpt>
      <trkpt lat="62.624364296769" lon="17.932142815082">
        <ele>0</ele>
        <time>2018-03-21T18:07:44Z</time>
      </trkpt>
      <trkpt lat="62.62438013856" lon="17.932174331026">
        <ele>0</ele>
        <time>2018-03-21T18:07:45Z</time>
      </trkpt>
      <trkpt lat="62.624392795229" lon="17.932205260237">
        <ele>0</ele>
        <time>2018-03-21T18:07:46Z</time>
      </trkpt>
      <trkpt lat="62.624404362251" lon="17.93225027104">
        <ele>0</ele>
        <time>2018-03-21T18:07:47Z</time>
      </trkpt>
      <trkpt lat="62.624418192386" lon="17.932298969879">
        <ele>0</ele>
        <time>2018-03-21T18:07:48Z</time>
      </trkpt>
      <trkpt lat="62.624430849055" lon="17.932340376465">
        <ele>0</ele>
        <time>2018-03-21T18:07:49Z</time>
      </trkpt>
      <trkpt lat="62.624446020294" lon="17.932387063648">
        <ele>0</ele>
        <time>2018-03-21T18:07:50Z</time>
      </trkpt>
      <trkpt lat="62.624460185705" lon="17.932430062795">
        <ele>0</ele>
        <time>2018-03-21T18:07:51Z</time>
      </trkpt>
      <trkpt lat="62.624472590917" lon="17.932475157417">
        <ele>0</ele>
        <time>2018-03-21T18:07:52Z</time>
      </trkpt>
      <trkpt lat="62.624481308093" lon="17.932518994754">
        <ele>0</ele>
        <time>2018-03-21T18:07:53Z</time>
      </trkpt>
      <trkpt lat="62.624487594518" lon="17.932566184851">
        <ele>0</ele>
        <time>2018-03-21T18:07:54Z</time>
      </trkpt>
      <trkpt lat="62.624491031097" lon="17.932619577554">
        <ele>0</ele>
        <time>2018-03-21T18:07:55Z</time>
      </trkpt>
      <trkpt lat="62.624494048581" lon="17.932674227542">
        <ele>0</ele>
        <time>2018-03-21T18:07:56Z</time>
      </trkpt>
      <trkpt lat="62.624492372201" lon="17.932727452607">
        <ele>0</ele>
        <time>2018-03-21T18:07:57Z</time>
      </trkpt>
      <trkpt lat="62.624485666681" lon="17.932776821998">
        <ele>0</ele>
        <time>2018-03-21T18:07:58Z</time>
      </trkpt>
      <trkpt lat="62.624481727188" lon="17.932821497525">
        <ele>0</ele>
        <time>2018-03-21T18:07:59Z</time>
      </trkpt>
      <trkpt lat="62.62448239774" lon="17.932877320979">
        <ele>0</ele>
        <time>2018-03-21T18:08:00Z</time>
      </trkpt>
      <trkpt lat="62.624485163767" lon="17.932930546044">
        <ele>0</ele>
        <time>2018-03-21T18:08:01Z</time>
      </trkpt>
      <trkpt lat="62.624486085776" lon="17.932981340358">
        <ele>0</ele>
        <time>2018-03-21T18:08:02Z</time>
      </trkpt>
      <trkpt lat="62.624489019441" lon="17.933032553767">
        <ele>0</ele>
        <time>2018-03-21T18:08:03Z</time>
      </trkpt>
      <trkpt lat="62.624496060237" lon="17.933077480751">
        <ele>0</ele>
        <time>2018-03-21T18:08:04Z</time>
      </trkpt>
      <trkpt lat="62.624505364146" lon="17.933126263409">
        <ele>0</ele>
        <time>2018-03-21T18:08:05Z</time>
      </trkpt>
      <trkpt lat="62.624514165141" lon="17.933171190393">
        <ele>0</ele>
        <time>2018-03-21T18:08:06Z</time>
      </trkpt>
      <trkpt lat="62.624522127946" lon="17.933216368834">
        <ele>0</ele>
        <time>2018-03-21T18:08:07Z</time>
      </trkpt>
      <trkpt lat="62.624529671656" lon="17.933263558931">
        <ele>0</ele>
        <time>2018-03-21T18:08:08Z</time>
      </trkpt>
      <trkpt lat="62.624536628633" lon="17.93330387587">
        <ele>0</ele>
        <time>2018-03-21T18:08:09Z</time>
      </trkpt>
      <trkpt lat="62.624544759076" lon="17.933349808682">
        <ele>0</ele>
        <time>2018-03-21T18:08:10Z</time>
      </trkpt>
      <trkpt lat="62.624551548415" lon="17.933393059286">
        <ele>0</ele>
        <time>2018-03-21T18:08:11Z</time>
      </trkpt>
      <trkpt lat="62.624561690514" lon="17.933440249383">
        <ele>0</ele>
        <time>2018-03-21T18:08:12Z</time>
      </trkpt>
      <trkpt lat="62.624571078242" lon="17.933482997073">
        <ele>0</ele>
        <time>2018-03-21T18:08:13Z</time>
      </trkpt>
      <trkpt lat="62.624578119038" lon="17.933526080039">
        <ele>0</ele>
        <time>2018-03-21T18:08:14Z</time>
      </trkpt>
      <trkpt lat="62.624585914205" lon="17.933573856869">
        <ele>0</ele>
        <time>2018-03-21T18:08:15Z</time>
      </trkpt>
      <trkpt lat="62.624592703544" lon="17.93361652074">
        <ele>0</ele>
        <time>2018-03-21T18:08:16Z</time>
      </trkpt>
      <trkpt lat="62.624596894494" lon="17.933655748032">
        <ele>0</ele>
        <time>2018-03-21T18:08:17Z</time>
      </trkpt>
      <trkpt lat="62.624601755996" lon="17.933704865966">
        <ele>0</ele>
        <time>2018-03-21T18:08:18Z</time>
      </trkpt>
      <trkpt lat="62.624609215887" lon="17.933746943104">
        <ele>0</ele>
        <time>2018-03-21T18:08:19Z</time>
      </trkpt>
      <trkpt lat="62.624618938891" lon="17.933794468477">
        <ele>0</ele>
        <time>2018-03-21T18:08:20Z</time>
      </trkpt>
      <trkpt lat="62.624630086818" lon="17.933837970538">
        <ele>0</ele>
        <time>2018-03-21T18:08:21Z</time>
      </trkpt>
      <trkpt lat="62.624644503686" lon="17.933878287477">
        <ele>0</ele>
        <time>2018-03-21T18:08:22Z</time>
      </trkpt>
      <trkpt lat="62.624660513115" lon="17.933917598588">
        <ele>0</ele>
        <time>2018-03-21T18:08:23Z</time>
      </trkpt>
      <trkpt lat="62.624679204752" lon="17.933952299654">
        <ele>0</ele>
        <time>2018-03-21T18:08:24Z</time>
      </trkpt>
      <trkpt lat="62.624697728751" lon="17.933981803942">
        <ele>0</ele>
        <time>2018-03-21T18:08:25Z</time>
      </trkpt>
      <trkpt lat="62.624713989637" lon="17.934011727325">
        <ele>0</ele>
        <time>2018-03-21T18:08:26Z</time>
      </trkpt>
      <trkpt lat="62.624731256351" lon="17.934040561061">
        <ele>0</ele>
        <time>2018-03-21T18:08:27Z</time>
      </trkpt>
      <trkpt lat="62.624749277436" lon="17.934069059521">
        <ele>0</ele>
        <time>2018-03-21T18:08:28Z</time>
      </trkpt>
      <trkpt lat="62.624768052892" lon="17.934100659284">
        <ele>0</ele>
        <time>2018-03-21T18:08:29Z</time>
      </trkpt>
      <trkpt lat="62.624785906339" lon="17.934130498848">
        <ele>0</ele>
        <time>2018-03-21T18:08:30Z</time>
      </trkpt>
      <trkpt lat="62.624799904112" lon="17.934159751679">
        <ele>0</ele>
        <time>2018-03-21T18:08:31Z</time>
      </trkpt>
      <trkpt lat="62.624812812238" lon="17.934191854356">
        <ele>0</ele>
        <time>2018-03-21T18:08:32Z</time>
      </trkpt>
      <trkpt lat="62.624828989305" lon="17.93422504668">
        <ele>0</ele>
        <time>2018-03-21T18:08:33Z</time>
      </trkpt>
      <trkpt lat="62.624842148888" lon="17.934257484633">
        <ele>0</ele>
        <time>2018-03-21T18:08:34Z</time>
      </trkpt>
      <trkpt lat="62.624856481937" lon="17.934299561771">
        <ele>0</ele>
        <time>2018-03-21T18:08:35Z</time>
      </trkpt>
      <trkpt lat="62.624869557701" lon="17.934338621425">
        <ele>0</ele>
        <time>2018-03-21T18:08:36Z</time>
      </trkpt>
      <trkpt lat="62.624882298189" lon="17.9343742445">
        <ele>0</ele>
        <time>2018-03-21T18:08:37Z</time>
      </trkpt>
      <trkpt lat="62.624895290134" lon="17.93441280124">
        <ele>0</ele>
        <time>2018-03-21T18:08:38Z</time>
      </trkpt>
      <trkpt lat="62.624908114441" lon="17.934448675772">
        <ele>0</ele>
        <time>2018-03-21T18:08:39Z</time>
      </trkpt>
      <trkpt lat="62.624922112214" lon="17.934487986883">
        <ele>0</ele>
        <time>2018-03-21T18:08:40Z</time>
      </trkpt>
      <trkpt lat="62.624935104159" lon="17.934527046537">
        <ele>0</ele>
        <time>2018-03-21T18:08:41Z</time>
      </trkpt>
      <trkpt lat="62.624950191579" lon="17.934569291313">
        <ele>0</ele>
        <time>2018-03-21T18:08:42Z</time>
      </trkpt>
      <trkpt lat="62.62496184242" lon="17.934606506949">
        <ele>0</ele>
        <time>2018-03-21T18:08:43Z</time>
      </trkpt>
      <trkpt lat="62.624973409442" lon="17.934647075345">
        <ele>0</ele>
        <time>2018-03-21T18:08:44Z</time>
      </trkpt>
      <trkpt lat="62.624986317568" lon="17.934694852175">
        <ele>0</ele>
        <time>2018-03-21T18:08:45Z</time>
      </trkpt>
      <trkpt lat="62.624997297857" lon="17.934742042272">
        <ele>0</ele>
        <time>2018-03-21T18:08:46Z</time>
      </trkpt>
      <trkpt lat="62.625006601766" lon="17.934785125238">
        <ele>0</ele>
        <time>2018-03-21T18:08:47Z</time>
      </trkpt>
      <trkpt lat="62.625015654218" lon="17.934834326991">
        <ele>0</ele>
        <time>2018-03-21T18:08:48Z</time>
      </trkpt>
      <trkpt lat="62.625024874308" lon="17.934875565939">
        <ele>0</ele>
        <time>2018-03-21T18:08:49Z</time>
      </trkpt>
      <trkpt lat="62.625036692787" lon="17.934924180959">
        <ele>0</ele>
        <time>2018-03-21T18:08:50Z</time>
      </trkpt>
      <trkpt lat="62.625048678904" lon="17.934968940305">
        <ele>0</ele>
        <time>2018-03-21T18:08:51Z</time>
      </trkpt>
      <trkpt lat="62.625059659193" lon="17.935014454022">
        <ele>0</ele>
        <time>2018-03-21T18:08:52Z</time>
      </trkpt>
      <trkpt lat="62.625068208731" lon="17.93505820754">
        <ele>0</ele>
        <time>2018-03-21T18:08:53Z</time>
      </trkpt>
      <trkpt lat="62.625074243699" lon="17.935101374325">
        <ele>0</ele>
        <time>2018-03-21T18:08:54Z</time>
      </trkpt>
      <trkpt lat="62.625082457961" lon="17.935150827535">
        <ele>0</ele>
        <time>2018-03-21T18:08:55Z</time>
      </trkpt>
      <trkpt lat="62.62509176187" lon="17.935200616021">
        <ele>0</ele>
        <time>2018-03-21T18:08:56Z</time>
      </trkpt>
      <trkpt lat="62.625098886485" lon="17.935250488326">
        <ele>0</ele>
        <time>2018-03-21T18:08:57Z</time>
      </trkpt>
      <trkpt lat="62.625106178738" lon="17.93530044445">
        <ele>0</ele>
        <time>2018-03-21T18:08:58Z</time>
      </trkpt>
      <trkpt lat="62.625113387172" lon="17.935345958167">
        <ele>0</ele>
        <time>2018-03-21T18:08:59Z</time>
      </trkpt>
      <trkpt lat="62.62512109852" lon="17.935401278707">
        <ele>0</ele>
        <time>2018-03-21T18:09:00Z</time>
      </trkpt>
      <trkpt lat="62.625126882031" lon="17.935447798252">
        <ele>0</ele>
        <time>2018-03-21T18:09:01Z</time>
      </trkpt>
      <trkpt lat="62.625133587551" lon="17.935494653073">
        <ele>0</ele>
        <time>2018-03-21T18:09:02Z</time>
      </trkpt>
      <trkpt lat="62.625139287243" lon="17.935545363568">
        <ele>0</ele>
        <time>2018-03-21T18:09:03Z</time>
      </trkpt>
      <trkpt lat="62.625139119605" lon="17.935587608344">
        <ele>0</ele>
        <time>2018-03-21T18:09:04Z</time>
      </trkpt>
      <trkpt lat="62.625137107949" lon="17.935635301355">
        <ele>0</ele>
        <time>2018-03-21T18:09:05Z</time>
      </trkpt>
      <trkpt lat="62.625134174284" lon="17.935685928031">
        <ele>0</ele>
        <time>2018-03-21T18:09:06Z</time>
      </trkpt>
      <trkpt lat="62.625131072981" lon="17.935736387069">
        <ele>0</ele>
        <time>2018-03-21T18:09:07Z</time>
      </trkpt>
      <trkpt lat="62.625129564239" lon="17.93578659465">
        <ele>0</ele>
        <time>2018-03-21T18:09:08Z</time>
      </trkpt>
      <trkpt lat="62.625130570067" lon="17.935832276005">
        <ele>0</ele>
        <time>2018-03-21T18:09:09Z</time>
      </trkpt>
      <trkpt lat="62.625131911171" lon="17.935886590717">
        <ele>0</ele>
        <time>2018-03-21T18:09:10Z</time>
      </trkpt>
      <trkpt lat="62.625129648058" lon="17.935935373375">
        <ele>0</ele>
        <time>2018-03-21T18:09:11Z</time>
      </trkpt>
      <trkpt lat="62.625127887859" lon="17.935992370295">
        <ele>0</ele>
        <time>2018-03-21T18:09:12Z</time>
      </trkpt>
      <trkpt lat="62.625127720221" lon="17.936038806021">
        <ele>0</ele>
        <time>2018-03-21T18:09:13Z</time>
      </trkpt>
      <trkpt lat="62.625127217307" lon="17.936087169584">
        <ele>0</ele>
        <time>2018-03-21T18:09:14Z</time>
      </trkpt>
      <trkpt lat="62.625126798212" lon="17.936145172332">
        <ele>0</ele>
        <time>2018-03-21T18:09:15Z</time>
      </trkpt>
      <trkpt lat="62.625124618918" lon="17.936201414881">
        <ele>0</ele>
        <time>2018-03-21T18:09:16Z</time>
      </trkpt>
      <trkpt lat="62.625122355805" lon="17.936251371005">
        <ele>0</ele>
        <time>2018-03-21T18:09:17Z</time>
      </trkpt>
      <trkpt lat="62.625119170683" lon="17.936307194459">
        <ele>0</ele>
        <time>2018-03-21T18:09:18Z</time>
      </trkpt>
      <trkpt lat="62.625115063552" lon="17.936351786167">
        <ele>0</ele>
        <time>2018-03-21T18:09:19Z</time>
      </trkpt>
      <trkpt lat="62.625113638629" lon="17.936406939069">
        <ele>0</ele>
        <time>2018-03-21T18:09:20Z</time>
      </trkpt>
      <trkpt lat="62.625112381344" lon="17.936461924333">
        <ele>0</ele>
        <time>2018-03-21T18:09:21Z</time>
      </trkpt>
      <trkpt lat="62.625111207878" lon="17.936511712819">
        <ele>0</ele>
        <time>2018-03-21T18:09:22Z</time>
      </trkpt>
      <trkpt lat="62.62511187843" lon="17.936562171857">
        <ele>0</ele>
        <time>2018-03-21T18:09:23Z</time>
      </trkpt>
      <trkpt lat="62.625115315009" lon="17.936611541248">
        <ele>0</ele>
        <time>2018-03-21T18:09:24Z</time>
      </trkpt>
      <trkpt lat="62.625122523443" lon="17.936667280883">
        <ele>0</ele>
        <time>2018-03-21T18:09:25Z</time>
      </trkpt>
      <trkpt lat="62.625130486248" lon="17.93671866193">
        <ele>0</ele>
        <time>2018-03-21T18:09:26Z</time>
      </trkpt>
      <trkpt lat="62.625138784329" lon="17.936771635538">
        <ele>0</ele>
        <time>2018-03-21T18:09:27Z</time>
      </trkpt>
      <trkpt lat="62.625148926428" lon="17.93681673016">
        <ele>0</ele>
        <time>2018-03-21T18:09:28Z</time>
      </trkpt>
      <trkpt lat="62.625160661088" lon="17.936858052927">
        <ele>0</ele>
        <time>2018-03-21T18:09:29Z</time>
      </trkpt>
      <trkpt lat="62.625176251422" lon="17.936907925232">
        <ele>0</ele>
        <time>2018-03-21T18:09:30Z</time>
      </trkpt>
      <trkpt lat="62.625194356326" lon="17.936939441176">
        <ele>0</ele>
        <time>2018-03-21T18:09:31Z</time>
      </trkpt>
      <trkpt lat="62.625211958316" lon="17.936964167781">
        <ele>0</ele>
        <time>2018-03-21T18:09:32Z</time>
      </trkpt>
      <trkpt lat="62.625231404324" lon="17.937001467236">
        <ele>0</ele>
        <time>2018-03-21T18:09:33Z</time>
      </trkpt>
      <trkpt lat="62.625248168124" lon="17.937029798058">
        <ele>0</ele>
        <time>2018-03-21T18:09:34Z</time>
      </trkpt>
      <trkpt lat="62.625267614132" lon="17.937060140536">
        <ele>0</ele>
        <time>2018-03-21T18:09:35Z</time>
      </trkpt>
      <trkpt lat="62.625288652701" lon="17.937094422507">
        <ele>0</ele>
        <time>2018-03-21T18:09:36Z</time>
      </trkpt>
      <trkpt lat="62.62530801489" lon="17.937123256243">
        <ele>0</ele>
        <time>2018-03-21T18:09:37Z</time>
      </trkpt>
      <trkpt lat="62.62532561688" lon="17.937147899029">
        <ele>0</ele>
        <time>2018-03-21T18:09:38Z</time>
      </trkpt>
      <trkpt lat="62.625342045404" lon="17.937170027245">
        <ele>0</ele>
        <time>2018-03-21T18:09:39Z</time>
      </trkpt>
      <trkpt lat="62.625365682362" lon="17.937189808529">
        <ele>0</ele>
        <time>2018-03-21T18:09:40Z</time>
      </trkpt>
      <trkpt lat="62.625385379827" lon="17.9372157086">
        <ele>0</ele>
        <time>2018-03-21T18:09:41Z</time>
      </trkpt>
      <trkpt lat="62.625405077292" lon="17.937251415494">
        <ele>0</ele>
        <time>2018-03-21T18:09:42Z</time>
      </trkpt>
      <trkpt lat="62.625423349834" lon="17.937278237574">
        <ele>0</ele>
        <time>2018-03-21T18:09:43Z</time>
      </trkpt>
      <trkpt lat="62.625440784186" lon="17.937301455437">
        <ele>0</ele>
        <time>2018-03-21T18:09:44Z</time>
      </trkpt>
      <trkpt lat="62.625460649289" lon="17.93733221701">
        <ele>0</ele>
        <time>2018-03-21T18:09:45Z</time>
      </trkpt>
      <trkpt lat="62.625479676202" lon="17.937357278891">
        <ele>0</ele>
        <time>2018-03-21T18:09:46Z</time>
      </trkpt>
      <trkpt lat="62.625497278192" lon="17.93738586117">
        <ele>0</ele>
        <time>2018-03-21T18:09:47Z</time>
      </trkpt>
      <trkpt lat="62.625517981485" lon="17.937419472589">
        <ele>0</ele>
        <time>2018-03-21T18:09:48Z</time>
      </trkpt>
      <trkpt lat="62.625536086389" lon="17.937444031556">
        <ele>0</ele>
        <time>2018-03-21T18:09:49Z</time>
      </trkpt>
      <trkpt lat="62.625555783854" lon="17.937473116749">
        <ele>0</ele>
        <time>2018-03-21T18:09:50Z</time>
      </trkpt>
      <trkpt lat="62.625575816595" lon="17.937499771191">
        <ele>0</ele>
        <time>2018-03-21T18:09:51Z</time>
      </trkpt>
      <trkpt lat="62.625594424413" lon="17.937520642122">
        <ele>0</ele>
        <time>2018-03-21T18:09:52Z</time>
      </trkpt>
      <trkpt lat="62.625614038059" lon="17.937541177777">
        <ele>0</ele>
        <time>2018-03-21T18:09:53Z</time>
      </trkpt>
      <trkpt lat="62.625634489895" lon="17.937564228002">
        <ele>0</ele>
        <time>2018-03-21T18:09:54Z</time>
      </trkpt>
      <trkpt lat="62.625654271179" lon="17.937581075621">
        <ele>0</ele>
        <time>2018-03-21T18:09:55Z</time>
      </trkpt>
      <trkpt lat="62.625673968644" lon="17.937600186353">
        <ele>0</ele>
        <time>2018-03-21T18:09:56Z</time>
      </trkpt>
      <trkpt lat="62.625694169023" lon="17.937619464723">
        <ele>0</ele>
        <time>2018-03-21T18:09:57Z</time>
      </trkpt>
      <trkpt lat="62.625713279755" lon="17.937636228523">
        <ele>0</ele>
        <time>2018-03-21T18:09:58Z</time>
      </trkpt>
      <trkpt lat="62.625730881745" lon="17.93765324378">
        <ele>0</ele>
        <time>2018-03-21T18:09:59Z</time>
      </trkpt>
      <trkpt lat="62.625751585038" lon="17.937672103055">
        <ele>0</ele>
        <time>2018-03-21T18:10:00Z</time>
      </trkpt>
      <trkpt lat="62.625777988023" lon="17.937666068087">
        <ele>0</ele>
        <time>2018-03-21T18:10:01Z</time>
      </trkpt>
      <trkpt lat="62.625802798447" lon="17.937666319544">
        <ele>0</ele>
        <time>2018-03-21T18:10:02Z</time>
      </trkpt>
      <trkpt lat="62.625829452889" lon="17.937660536033">
        <ele>0</ele>
        <time>2018-03-21T18:10:03Z</time>
      </trkpt>
      <trkpt lat="62.625855017684" lon="17.937656680359">
        <ele>0</ele>
        <time>2018-03-21T18:10:04Z</time>
      </trkpt>
      <trkpt lat="62.625881085393" lon="17.937654417246">
        <ele>0</ele>
        <time>2018-03-21T18:10:05Z</time>
      </trkpt>
      <trkpt lat="62.625907236921" lon="17.937654165789">
        <ele>0</ele>
        <time>2018-03-21T18:10:06Z</time>
      </trkpt>
      <trkpt lat="62.625932634078" lon="17.937650393934">
        <ele>0</ele>
        <time>2018-03-21T18:10:07Z</time>
      </trkpt>
      <trkpt lat="62.625958869425" lon="17.937645197156">
        <ele>0</ele>
        <time>2018-03-21T18:10:08Z</time>
      </trkpt>
      <trkpt lat="62.625982422564" lon="17.937640251835">
        <ele>0</ele>
        <time>2018-03-21T18:10:09Z</time>
      </trkpt>
      <trkpt lat="62.626002371486" lon="17.937635306514">
        <ele>0</ele>
        <time>2018-03-21T18:10:10Z</time>
      </trkpt>
      <trkpt lat="62.626024499702" lon="17.93762558351">
        <ele>0</ele>
        <time>2018-03-21T18:10:11Z</time>
      </trkpt>
      <trkpt lat="62.626045538271" lon="17.93760881971">
        <ele>0</ele>
        <time>2018-03-21T18:10:12Z</time>
      </trkpt>
      <trkpt lat="62.626062218252" lon="17.93758702677">
        <ele>0</ele>
        <time>2018-03-21T18:10:13Z</time>
      </trkpt>
      <trkpt lat="62.626083843554" lon="17.937566574934">
        <ele>0</ele>
        <time>2018-03-21T18:10:14Z</time>
      </trkpt>
      <trkpt lat="62.626105217399" lon="17.937545620184">
        <ele>0</ele>
        <time>2018-03-21T18:10:15Z</time>
      </trkpt>
      <trkpt lat="62.626123909036" lon="17.937523994882">
        <ele>0</ele>
        <time>2018-03-21T18:10:16Z</time>
      </trkpt>
      <trkpt lat="62.626140924293" lon="17.937497172802">
        <ele>0</ele>
        <time>2018-03-21T18:10:17Z</time>
      </trkpt>
      <trkpt lat="62.626156682265" lon="17.937459202795">
        <ele>0</ele>
        <time>2018-03-21T18:10:18Z</time>
      </trkpt>
      <trkpt lat="62.626169087477" lon="17.937419472589">
        <ele>0</ele>
        <time>2018-03-21T18:10:19Z</time>
      </trkpt>
      <trkpt lat="62.626182582336" lon="17.93737161194">
        <ele>0</ele>
        <time>2018-03-21T18:10:20Z</time>
      </trkpt>
      <trkpt lat="62.626193646444" lon="17.937325008576">
        <ele>0</ele>
        <time>2018-03-21T18:10:21Z</time>
      </trkpt>
      <trkpt lat="62.626203872362" lon="17.9372827638">
        <ele>0</ele>
        <time>2018-03-21T18:10:22Z</time>
      </trkpt>
      <trkpt lat="62.626214182099" lon="17.937241021938">
        <ele>0</ele>
        <time>2018-03-21T18:10:23Z</time>
      </trkpt>
      <trkpt lat="62.626226252035" lon="17.937199699171">
        <ele>0</ele>
        <time>2018-03-21T18:10:24Z</time>
      </trkpt>
      <trkpt lat="62.626240249808" lon="17.937162818811">
        <ele>0</ele>
        <time>2018-03-21T18:10:25Z</time>
      </trkpt>
      <trkpt lat="62.62625349321" lon="17.937129039754">
        <ele>0</ele>
        <time>2018-03-21T18:10:26Z</time>
      </trkpt>
      <trkpt lat="62.626268832087" lon="17.937098445819">
        <ele>0</ele>
        <time>2018-03-21T18:10:27Z</time>
      </trkpt>
      <trkpt lat="62.626288278095" lon="17.937073635395">
        <ele>0</ele>
        <time>2018-03-21T18:10:28Z</time>
      </trkpt>
      <trkpt lat="62.626306131542" lon="17.937051590998">
        <ele>0</ele>
        <time>2018-03-21T18:10:29Z</time>
      </trkpt>
      <trkpt lat="62.62632725393" lon="17.937034743379">
        <ele>0</ele>
        <time>2018-03-21T18:10:30Z</time>
      </trkpt>
      <trkpt lat="62.626346699938" lon="17.937019404502">
        <ele>0</ele>
        <time>2018-03-21T18:10:31Z</time>
      </trkpt>
      <trkpt lat="62.626366816498" lon="17.937005825824">
        <ele>0</ele>
        <time>2018-03-21T18:10:32Z</time>
      </trkpt>
      <trkpt lat="62.62638676542" lon="17.93699107368">
        <ele>0</ele>
        <time>2018-03-21T18:10:33Z</time>
      </trkpt>
      <trkpt lat="62.626404451229" lon="17.936980931581">
        <ele>0</ele>
        <time>2018-03-21T18:10:34Z</time>
      </trkpt>
      <trkpt lat="62.626425238341" lon="17.936974226061">
        <ele>0</ele>
        <time>2018-03-21T18:10:35Z</time>
      </trkpt>
      <trkpt lat="62.626446696005" lon="17.936967771998">
        <ele>0</ele>
        <time>2018-03-21T18:10:36Z</time>
      </trkpt>
      <trkpt lat="62.626469494773" lon="17.936960731202">
        <ele>0</ele>
        <time>2018-03-21T18:10:37Z</time>
      </trkpt>
      <trkpt lat="62.626493299369" lon="17.936954612415">
        <ele>0</ele>
        <time>2018-03-21T18:10:38Z</time>
      </trkpt>
      <trkpt lat="62.626516265775" lon="17.936952936035">
        <ele>0</ele>
        <time>2018-03-21T18:10:39Z</time>
      </trkpt>
      <trkpt lat="62.626532442842" lon="17.936946398153">
        <ele>0</ele>
        <time>2018-03-21T18:10:40Z</time>
      </trkpt>
      <trkpt lat="62.626550044832" lon="17.936939273538">
        <ele>0</ele>
        <time>2018-03-21T18:10:41Z</time>
      </trkpt>
      <trkpt lat="62.626570748125" lon="17.936933657665">
        <ele>0</ele>
        <time>2018-03-21T18:10:42Z</time>
      </trkpt>
      <trkpt lat="62.62659296016" lon="17.936930975457">
        <ele>0</ele>
        <time>2018-03-21T18:10:43Z</time>
      </trkpt>
      <trkpt lat="62.626615004557" lon="17.936927035964">
        <ele>0</ele>
        <time>2018-03-21T18:10:44Z</time>
      </trkpt>
      <trkpt lat="62.626640820809" lon="17.936922174462">
        <ele>0</ele>
        <time>2018-03-21T18:10:45Z</time>
      </trkpt>
      <trkpt lat="62.626662110835" lon="17.936918318788">
        <ele>0</ele>
        <time>2018-03-21T18:10:46Z</time>
      </trkpt>
      <trkpt lat="62.62668683744" lon="17.936913289648">
        <ele>0</ele>
        <time>2018-03-21T18:10:47Z</time>
      </trkpt>
      <trkpt lat="62.626710222941" lon="17.93690893106">
        <ele>0</ele>
        <time>2018-03-21T18:10:48Z</time>
      </trkpt>
      <trkpt lat="62.626731764424" lon="17.936906500309">
        <ele>0</ele>
        <time>2018-03-21T18:10:49Z</time>
      </trkpt>
      <trkpt lat="62.626755066106" lon="17.936902728454">
        <ele>0</ele>
        <time>2018-03-21T18:10:50Z</time>
      </trkpt>
      <trkpt lat="62.62677652377" lon="17.936892753993">
        <ele>0</ele>
        <time>2018-03-21T18:10:51Z</time>
      </trkpt>
      <trkpt lat="62.626798735805" lon="17.936882360437">
        <ele>0</ele>
        <time>2018-03-21T18:10:52Z</time>
      </trkpt>
      <trkpt lat="62.626817762718" lon="17.936869787587">
        <ele>0</ele>
        <time>2018-03-21T18:10:53Z</time>
      </trkpt>
      <trkpt lat="62.62683603526" lon="17.936856879461">
        <ele>0</ele>
        <time>2018-03-21T18:10:54Z</time>
      </trkpt>
      <trkpt lat="62.626865874824" lon="17.936830476476">
        <ele>0</ele>
        <time>2018-03-21T18:10:55Z</time>
      </trkpt>
      <trkpt lat="62.626888338316" lon="17.936802732387">
        <ele>0</ele>
        <time>2018-03-21T18:10:56Z</time>
      </trkpt>
      <trkpt lat="62.626911807636" lon="17.936773060461">
        <ele>0</ele>
        <time>2018-03-21T18:10:57Z</time>
      </trkpt>
      <trkpt lat="62.626935444594" lon="17.936743723811">
        <ele>0</ele>
        <time>2018-03-21T18:10:58Z</time>
      </trkpt>
      <trkpt lat="62.626954639145" lon="17.936714219523">
        <ele>0</ele>
        <time>2018-03-21T18:10:59Z</time>
      </trkpt>
      <trkpt lat="62.626983053786" lon="17.936691336936">
        <ele>0</ele>
        <time>2018-03-21T18:11:00Z</time>
      </trkpt>
      <trkpt lat="62.627006271649" lon="17.936665185408">
        <ele>0</ele>
        <time>2018-03-21T18:11:01Z</time>
      </trkpt>
      <trkpt lat="62.627024711829" lon="17.936636854586">
        <ele>0</ele>
        <time>2018-03-21T18:11:02Z</time>
      </trkpt>
      <trkpt lat="62.627044828389" lon="17.936608104669">
        <ele>0</ele>
        <time>2018-03-21T18:11:03Z</time>
      </trkpt>
      <trkpt lat="62.627063100931" lon="17.936577929829">
        <ele>0</ele>
        <time>2018-03-21T18:11:04Z</time>
      </trkpt>
      <trkpt lat="62.627078355989" lon="17.93654599479">
        <ele>0</ele>
        <time>2018-03-21T18:11:05Z</time>
      </trkpt>
      <trkpt lat="62.627088749545" lon="17.936504588204">
        <ele>0</ele>
        <time>2018-03-21T18:11:06Z</time>
      </trkpt>
      <trkpt lat="62.627093611047" lon="17.936462008152">
        <ele>0</ele>
        <time>2018-03-21T18:11:07Z</time>
      </trkpt>
      <trkpt lat="62.627093694866" lon="17.936421691213">
        <ele>0</ele>
        <time>2018-03-21T18:11:08Z</time>
      </trkpt>
      <trkpt lat="62.627092102305" lon="17.936381290455">
        <ele>0</ele>
        <time>2018-03-21T18:11:09Z</time>
      </trkpt>
      <trkpt lat="62.627087073165" lon="17.936306607726">
        <ele>0</ele>
        <time>2018-03-21T18:11:11Z</time>
      </trkpt>
      <trkpt lat="62.627089671554" lon="17.936267548072">
        <ele>0</ele>
        <time>2018-03-21T18:11:12Z</time>
      </trkpt>
      <trkpt lat="62.627089503916" lon="17.936213903912">
        <ele>0</ele>
        <time>2018-03-21T18:11:13Z</time>
      </trkpt>
      <trkpt lat="62.62709000683" lon="17.936167384367">
        <ele>0</ele>
        <time>2018-03-21T18:11:14Z</time>
      </trkpt>
      <trkpt lat="62.627087659898" lon="17.936121535374">
        <ele>0</ele>
        <time>2018-03-21T18:11:15Z</time>
      </trkpt>
      <trkpt lat="62.627087156984" lon="17.936068310309">
        <ele>0</ele>
        <time>2018-03-21T18:11:16Z</time>
      </trkpt>
      <trkpt lat="62.627085396785" lon="17.936027825732">
        <ele>0</ele>
        <time>2018-03-21T18:11:17Z</time>
      </trkpt>
      <trkpt lat="62.62708749226" lon="17.935983066386">
        <ele>0</ele>
        <time>2018-03-21T18:11:18Z</time>
      </trkpt>
      <trkpt lat="62.627085983518" lon="17.93592741057">
        <ele>0</ele>
        <time>2018-03-21T18:11:19Z</time>
      </trkpt>
      <trkpt lat="62.627082882215" lon="17.935888434735">
        <ele>0</ele>
        <time>2018-03-21T18:11:20Z</time>
      </trkpt>
      <trkpt lat="62.627079445636" lon="17.935836969869">
        <ele>0</ele>
        <time>2018-03-21T18:11:21Z</time>
      </trkpt>
      <trkpt lat="62.627074751772" lon="17.935792378161">
        <ele>0</ele>
        <time>2018-03-21T18:11:22Z</time>
      </trkpt>
      <trkpt lat="62.627073829763" lon="17.935757425638">
        <ele>0</ele>
        <time>2018-03-21T18:11:23Z</time>
      </trkpt>
      <trkpt lat="62.62707491941" lon="17.935713588301">
        <ele>0</ele>
        <time>2018-03-21T18:11:24Z</time>
      </trkpt>
      <trkpt lat="62.627075673781" lon="17.935675785932">
        <ele>0</ele>
        <time>2018-03-21T18:11:25Z</time>
      </trkpt>
      <trkpt lat="62.627077769256" lon="17.935635552812">
        <ele>0</ele>
        <time>2018-03-21T18:11:26Z</time>
      </trkpt>
      <trkpt lat="62.627084307138" lon="17.935600265013">
        <ele>0</ele>
        <time>2018-03-21T18:11:27Z</time>
      </trkpt>
      <trkpt lat="62.627098472549" lon="17.935575286951">
        <ele>0</ele>
        <time>2018-03-21T18:11:28Z</time>
      </trkpt>
      <trkpt lat="62.627113727607" lon="17.935552069088">
        <ele>0</ele>
        <time>2018-03-21T18:11:29Z</time>
      </trkpt>
      <trkpt lat="62.627132922158" lon="17.93552424118">
        <ele>0</ele>
        <time>2018-03-21T18:11:30Z</time>
      </trkpt>
      <trkpt lat="62.627154966555" lon="17.935498676385">
        <ele>0</ele>
        <time>2018-03-21T18:11:31Z</time>
      </trkpt>
      <trkpt lat="62.627169886337" lon="17.935475039427">
        <ele>0</ele>
        <time>2018-03-21T18:11:32Z</time>
      </trkpt>
      <trkpt lat="62.627191763096" lon="17.93545048046">
        <ele>0</ele>
        <time>2018-03-21T18:11:33Z</time>
      </trkpt>
      <trkpt lat="62.627214394226" lon="17.9354303639">
        <ele>0</ele>
        <time>2018-03-21T18:11:34Z</time>
      </trkpt>
      <trkpt lat="62.627233085863" lon="17.935417120498">
        <ele>0</ele>
        <time>2018-03-21T18:11:35Z</time>
      </trkpt>
      <trkpt lat="62.627258231563" lon="17.935402116897">
        <ele>0</ele>
        <time>2018-03-21T18:11:36Z</time>
      </trkpt>
      <trkpt lat="62.627282706711" lon="17.935385856011">
        <ele>0</ele>
        <time>2018-03-21T18:11:37Z</time>
      </trkpt>
      <trkpt lat="62.627303410004" lon="17.935368086383">
        <ele>0</ele>
        <time>2018-03-21T18:11:38Z</time>
      </trkpt>
      <trkpt lat="62.627325454401" lon="17.935352076954">
        <ele>0</ele>
        <time>2018-03-21T18:11:39Z</time>
      </trkpt>
      <trkpt lat="62.627342469658" lon="17.935335816068">
        <ele>0</ele>
        <time>2018-03-21T18:11:40Z</time>
      </trkpt>
      <trkpt lat="62.627364681693" lon="17.935315364232">
        <ele>0</ele>
        <time>2018-03-21T18:11:41Z</time>
      </trkpt>
      <trkpt lat="62.627385971719" lon="17.935309748359">
        <ele>0</ele>
        <time>2018-03-21T18:11:42Z</time>
      </trkpt>
      <trkpt lat="62.627405585365" lon="17.935296840233">
        <ele>0</ele>
        <time>2018-03-21T18:11:43Z</time>
      </trkpt>
      <trkpt lat="62.62742193007" lon="17.935283345374">
        <ele>0</ele>
        <time>2018-03-21T18:11:44Z</time>
      </trkpt>
      <trkpt lat="62.627443806829" lon="17.935267084488">
        <ele>0</ele>
        <time>2018-03-21T18:11:45Z</time>
      </trkpt>
      <trkpt lat="62.627462498466" lon="17.93525350581">
        <ele>0</ele>
        <time>2018-03-21T18:11:46Z</time>
      </trkpt>
      <trkpt lat="62.6274780888" lon="17.935232383422">
        <ele>0</ele>
        <time>2018-03-21T18:11:47Z</time>
      </trkpt>
      <trkpt lat="62.627496780437" lon="17.935213188871">
        <ele>0</ele>
        <time>2018-03-21T18:11:48Z</time>
      </trkpt>
      <trkpt lat="62.627513041323" lon="17.935192820854">
        <ele>0</ele>
        <time>2018-03-21T18:11:49Z</time>
      </trkpt>
      <trkpt lat="62.627529888942" lon="17.93517136319">
        <ele>0</ele>
        <time>2018-03-21T18:11:50Z</time>
      </trkpt>
      <trkpt lat="62.627552520072" lon="17.935157449236">
        <ele>0</ele>
        <time>2018-03-21T18:11:51Z</time>
      </trkpt>
      <trkpt lat="62.627570373519" lon="17.935143870558">
        <ele>0</ele>
        <time>2018-03-21T18:11:52Z</time>
      </trkpt>
      <trkpt lat="62.627587975509" lon="17.935126771482">
        <ele>0</ele>
        <time>2018-03-21T18:11:53Z</time>
      </trkpt>
      <trkpt lat="62.627608427345" lon="17.935111767881">
        <ele>0</ele>
        <time>2018-03-21T18:11:54Z</time>
      </trkpt>
      <trkpt lat="62.627628292448" lon="17.935094165891">
        <ele>0</ele>
        <time>2018-03-21T18:11:55Z</time>
      </trkpt>
      <trkpt lat="62.627653102872" lon="17.935074216969">
        <ele>0</ele>
        <time>2018-03-21T18:11:56Z</time>
      </trkpt>
      <trkpt lat="62.627689815594" lon="17.935070109838">
        <ele>0</ele>
        <time>2018-03-21T18:11:57Z</time>
      </trkpt>
      <trkpt lat="62.627706244118" lon="17.935056950255">
        <ele>0</ele>
        <time>2018-03-21T18:11:58Z</time>
      </trkpt>
      <trkpt lat="62.627724684298" lon="17.935033313297">
        <ele>0</ele>
        <time>2018-03-21T18:11:59Z</time>
      </trkpt>
      <trkpt lat="62.627744381763" lon="17.935018309696">
        <ele>0</ele>
        <time>2018-03-21T18:12:00Z</time>
      </trkpt>
      <trkpt lat="62.627762821943" lon="17.934997690222">
        <ele>0</ele>
        <time>2018-03-21T18:12:01Z</time>
      </trkpt>
      <trkpt lat="62.627781345942" lon="17.934976819291">
        <ele>0</ele>
        <time>2018-03-21T18:12:02Z</time>
      </trkpt>
      <trkpt lat="62.627796936276" lon="17.934959468758">
        <ele>0</ele>
        <time>2018-03-21T18:12:03Z</time>
      </trkpt>
      <trkpt lat="62.627817052836" lon="17.934932814316">
        <ele>0</ele>
        <time>2018-03-21T18:12:04Z</time>
      </trkpt>
      <trkpt lat="62.627832810808" lon="17.934906411331">
        <ele>0</ele>
        <time>2018-03-21T18:12:05Z</time>
      </trkpt>
      <trkpt lat="62.627853095006" lon="17.934876739405">
        <ele>0</ele>
        <time>2018-03-21T18:12:06Z</time>
      </trkpt>
      <trkpt lat="62.627862063639" lon="17.934842205977">
        <ele>0</ele>
        <time>2018-03-21T18:12:07Z</time>
      </trkpt>
      <trkpt lat="62.627877737792" lon="17.934814545707">
        <ele>0</ele>
        <time>2018-03-21T18:12:08Z</time>
      </trkpt>
      <trkpt lat="62.627896010334" lon="17.934789316188">
        <ele>0</ele>
        <time>2018-03-21T18:12:09Z</time>
      </trkpt>
      <trkpt lat="62.627912690315" lon="17.934773558216">
        <ele>0</ele>
        <time>2018-03-21T18:12:10Z</time>
      </trkpt>
      <trkpt lat="62.627935069988" lon="17.934750340353">
        <ele>0</ele>
        <time>2018-03-21T18:12:11Z</time>
      </trkpt>
      <trkpt lat="62.6279558571" lon="17.934734079467">
        <ele>0</ele>
        <time>2018-03-21T18:12:12Z</time>
      </trkpt>
      <trkpt lat="62.62797597366" lon="17.93471538783">
        <ele>0</ele>
        <time>2018-03-21T18:12:13Z</time>
      </trkpt>
      <trkpt lat="62.627998437152" lon="17.934697282926">
        <ele>0</ele>
        <time>2018-03-21T18:12:14Z</time>
      </trkpt>
      <trkpt lat="62.628021906472" lon="17.934678926565">
        <ele>0</ele>
        <time>2018-03-21T18:12:15Z</time>
      </trkpt>
      <trkpt lat="62.628043699412" lon="17.934658139453">
        <ele>0</ele>
        <time>2018-03-21T18:12:16Z</time>
      </trkpt>
      <trkpt lat="62.628062558687" lon="17.934638777264">
        <ele>0</ele>
        <time>2018-03-21T18:12:17Z</time>
      </trkpt>
      <trkpt lat="62.628082926704" lon="17.934622013464">
        <ele>0</ele>
        <time>2018-03-21T18:12:18Z</time>
      </trkpt>
      <trkpt lat="62.628103713816" lon="17.934604243836">
        <ele>0</ele>
        <time>2018-03-21T18:12:19Z</time>
      </trkpt>
      <trkpt lat="62.628123746557" lon="17.934583456724">
        <ele>0</ele>
        <time>2018-03-21T18:12:20Z</time>
      </trkpt>
      <trkpt lat="62.628156855062" lon="17.934569375132">
        <ele>0</ele>
        <time>2018-03-21T18:12:21Z</time>
      </trkpt>
      <trkpt lat="62.628180575839" lon="17.934551186409">
        <ele>0</ele>
        <time>2018-03-21T18:12:22Z</time>
      </trkpt>
      <trkpt lat="62.628203458426" lon="17.934529812564">
        <ele>0</ele>
        <time>2018-03-21T18:12:23Z</time>
      </trkpt>
      <trkpt lat="62.628231873067" lon="17.934513803135">
        <ele>0</ele>
        <time>2018-03-21T18:12:24Z</time>
      </trkpt>
      <trkpt lat="62.628255342387" lon="17.934500643552">
        <ele>0</ele>
        <time>2018-03-21T18:12:25Z</time>
      </trkpt>
      <trkpt lat="62.628288450892" lon="17.934485807589">
        <ele>0</ele>
        <time>2018-03-21T18:12:26Z</time>
      </trkpt>
      <trkpt lat="62.628317200809" lon="17.934470133436">
        <ele>0</ele>
        <time>2018-03-21T18:12:27Z</time>
      </trkpt>
      <trkpt lat="62.628341173043" lon="17.934444149546">
        <ele>0</ele>
        <time>2018-03-21T18:12:28Z</time>
      </trkpt>
      <trkpt lat="62.628365145277" lon="17.934420009674">
        <ele>0</ele>
        <time>2018-03-21T18:12:29Z</time>
      </trkpt>
      <trkpt lat="62.628386183846" lon="17.934398635829">
        <ele>0</ele>
        <time>2018-03-21T18:12:30Z</time>
      </trkpt>
      <trkpt lat="62.628407222415" lon="17.934372819577">
        <ele>0</ele>
        <time>2018-03-21T18:12:31Z</time>
      </trkpt>
      <trkpt lat="62.628430188821" lon="17.934352283922">
        <ele>0</ele>
        <time>2018-03-21T18:12:32Z</time>
      </trkpt>
      <trkpt lat="62.628451730304" lon="17.934337531778">
        <ele>0</ele>
        <time>2018-03-21T18:12:33Z</time>
      </trkpt>
      <trkpt lat="62.628475283443" lon="17.934319845969">
        <ele>0</ele>
        <time>2018-03-21T18:12:34Z</time>
      </trkpt>
      <trkpt lat="62.628497495478" lon="17.934299561771">
        <ele>0</ele>
        <time>2018-03-21T18:12:35Z</time>
      </trkpt>
      <trkpt lat="62.628523730825" lon="17.934275673356">
        <ele>0</ele>
        <time>2018-03-21T18:12:36Z</time>
      </trkpt>
      <trkpt lat="62.628548876525" lon="17.934252455493">
        <ele>0</ele>
        <time>2018-03-21T18:12:37Z</time>
      </trkpt>
      <trkpt lat="62.628573686949" lon="17.934240050281">
        <ele>0</ele>
        <time>2018-03-21T18:12:38Z</time>
      </trkpt>
      <trkpt lat="62.628593132957" lon="17.934222783567">
        <ele>0</ele>
        <time>2018-03-21T18:12:39Z</time>
      </trkpt>
      <trkpt lat="62.628614087707" lon="17.93420576831">
        <ele>0</ele>
        <time>2018-03-21T18:12:40Z</time>
      </trkpt>
      <trkpt lat="62.628642083253" lon="17.934183388637">
        <ele>0</ele>
        <time>2018-03-21T18:12:41Z</time>
      </trkpt>
      <trkpt lat="62.628666306944" lon="17.934167379208">
        <ele>0</ele>
        <time>2018-03-21T18:12:42Z</time>
      </trkpt>
      <trkpt lat="62.628689440988" lon="17.934149190485">
        <ele>0</ele>
        <time>2018-03-21T18:12:43Z</time>
      </trkpt>
      <trkpt lat="62.628713832317" lon="17.934127732821">
        <ele>0</ele>
        <time>2018-03-21T18:12:44Z</time>
      </trkpt>
      <trkpt lat="62.628737972189" lon="17.934108454451">
        <ele>0</ele>
        <time>2018-03-21T18:12:45Z</time>
      </trkpt>
      <trkpt lat="62.628764123717" lon="17.93408506895">
        <ele>0</ele>
        <time>2018-03-21T18:12:46Z</time>
      </trkpt>
      <trkpt lat="62.628788515046" lon="17.934070316806">
        <ele>0</ele>
        <time>2018-03-21T18:12:47Z</time>
      </trkpt>
      <trkpt lat="62.628811397633" lon="17.934048691504">
        <ele>0</ele>
        <time>2018-03-21T18:12:48Z</time>
      </trkpt>
      <trkpt lat="62.628835872781" lon="17.934023545804">
        <ele>0</ele>
        <time>2018-03-21T18:12:49Z</time>
      </trkpt>
      <trkpt lat="62.628861269938" lon="17.934005524719">
        <ele>0</ele>
        <time>2018-03-21T18:12:50Z</time>
      </trkpt>
      <trkpt lat="62.628885661267" lon="17.933980462838">
        <ele>0</ele>
        <time>2018-03-21T18:12:51Z</time>
      </trkpt>
      <trkpt lat="62.628907705664" lon="17.933964621047">
        <ele>0</ele>
        <time>2018-03-21T18:12:52Z</time>
      </trkpt>
      <trkpt lat="62.628928408957" lon="17.933948108704">
        <ele>0</ele>
        <time>2018-03-21T18:12:53Z</time>
      </trkpt>
      <trkpt lat="62.628951207725" lon="17.933933021284">
        <ele>0</ele>
        <time>2018-03-21T18:12:54Z</time>
      </trkpt>
      <trkpt lat="62.628973084484" lon="17.933919526425">
        <ele>0</ele>
        <time>2018-03-21T18:12:55Z</time>
      </trkpt>
      <trkpt lat="62.629000996211" lon="17.933896811476">
        <ele>0</ele>
        <time>2018-03-21T18:12:56Z</time>
      </trkpt>
      <trkpt lat="62.629023543522" lon="17.933876946373">
        <ele>0</ele>
        <time>2018-03-21T18:12:57Z</time>
      </trkpt>
      <trkpt lat="62.629046090833" lon="17.933855907804">
        <ele>0</ele>
        <time>2018-03-21T18:12:58Z</time>
      </trkpt>
      <trkpt lat="62.629069057239" lon="17.933830845923">
        <ele>0</ele>
        <time>2018-03-21T18:12:59Z</time>
      </trkpt>
      <trkpt lat="62.629085569582" lon="17.933813998304">
        <ele>0</ele>
        <time>2018-03-21T18:13:00Z</time>
      </trkpt>
      <trkpt lat="62.629108619807" lon="17.933787092405">
        <ele>0</ele>
        <time>2018-03-21T18:13:01Z</time>
      </trkpt>
      <trkpt lat="62.629130412747" lon="17.933766137655">
        <ele>0</ele>
        <time>2018-03-21T18:13:02Z</time>
      </trkpt>
      <trkpt lat="62.629153882067" lon="17.933742835973">
        <ele>0</ele>
        <time>2018-03-21T18:13:03Z</time>
      </trkpt>
      <trkpt lat="62.629175842645" lon="17.933724311974">
        <ele>0</ele>
        <time>2018-03-21T18:13:04Z</time>
      </trkpt>
      <trkpt lat="62.629192941721" lon="17.93370788345">
        <ele>0</ele>
        <time>2018-03-21T18:13:05Z</time>
      </trkpt>
      <trkpt lat="62.629211633358" lon="17.933688856537">
        <ele>0</ele>
        <time>2018-03-21T18:13:06Z</time>
      </trkpt>
      <trkpt lat="62.629233845393" lon="17.933666393045">
        <ele>0</ele>
        <time>2018-03-21T18:13:07Z</time>
      </trkpt>
      <trkpt lat="62.629255973609" lon="17.933652395272">
        <ele>0</ele>
        <time>2018-03-21T18:13:08Z</time>
      </trkpt>
      <trkpt lat="62.629272485952" lon="17.933642336992">
        <ele>0</ele>
        <time>2018-03-21T18:13:09Z</time>
      </trkpt>
      <trkpt lat="62.629288243924" lon="17.933622555708">
        <ele>0</ele>
        <time>2018-03-21T18:13:10Z</time>
      </trkpt>
      <trkpt lat="62.629313892538" lon="17.933602522967">
        <ele>0</ele>
        <time>2018-03-21T18:13:11Z</time>
      </trkpt>
      <trkpt lat="62.629337278039" lon="17.933586681176">
        <ele>0</ele>
        <time>2018-03-21T18:13:12Z</time>
      </trkpt>
      <trkpt lat="62.62935982535" lon="17.933573521593">
        <ele>0</ele>
        <time>2018-03-21T18:13:13Z</time>
      </trkpt>
      <trkpt lat="62.629380528643" lon="17.93355617106">
        <ele>0</ele>
        <time>2018-03-21T18:13:14Z</time>
      </trkpt>
      <trkpt lat="62.629404584696" lon="17.933543179115">
        <ele>0</ele>
        <time>2018-03-21T18:13:15Z</time>
      </trkpt>
      <trkpt lat="62.629426545274" lon="17.933532785559">
        <ele>0</ele>
        <time>2018-03-21T18:13:16Z</time>
      </trkpt>
      <trkpt lat="62.629450601327" lon="17.93353521631">
        <ele>0</ele>
        <time>2018-03-21T18:13:17Z</time>
      </trkpt>
      <trkpt lat="62.629473400095" lon="17.933543849667">
        <ele>0</ele>
        <time>2018-03-21T18:13:18Z</time>
      </trkpt>
      <trkpt lat="62.629489074248" lon="17.933564720598">
        <ele>0</ele>
        <time>2018-03-21T18:13:19Z</time>
      </trkpt>
      <trkpt lat="62.62949896489" lon="17.933579975656">
        <ele>0</ele>
        <time>2018-03-21T18:13:20Z</time>
      </trkpt>
      <trkpt lat="62.629494690121" lon="17.933566564616">
        <ele>0</ele>
        <time>2018-03-21T18:13:21Z</time>
      </trkpt>
      <trkpt lat="62.629493684293" lon="17.933567570444">
        <ele>0</ele>
        <time>2018-03-21T18:13:22Z</time>
      </trkpt>
      <trkpt lat="62.629503239659" lon="17.933583412235">
        <ele>0</ele>
        <time>2018-03-21T18:13:23Z</time>
      </trkpt>
      <trkpt lat="62.629531067567" lon="17.933587267909">
        <ele>0</ele>
        <time>2018-03-21T18:13:24Z</time>
      </trkpt>
      <trkpt lat="62.62954255077" lon="17.933600092216">
        <ele>0</ele>
        <time>2018-03-21T18:13:25Z</time>
      </trkpt>
      <trkpt lat="62.629552189955" lon="17.933613670894">
        <ele>0</ele>
        <time>2018-03-21T18:13:26Z</time>
      </trkpt>
      <trkpt lat="62.629560739493" lon="17.933628506857">
        <ele>0</ele>
        <time>2018-03-21T18:13:27Z</time>
      </trkpt>
      <trkpt lat="62.629568702298" lon="17.933642336992">
        <ele>0</ele>
        <time>2018-03-21T18:13:28Z</time>
      </trkpt>
      <trkpt lat="62.629565852452" lon="17.933637810766">
        <ele>0</ele>
        <time>2018-03-21T18:13:29Z</time>
      </trkpt>
      <trkpt lat="62.629563924615" lon="17.933636134386">
        <ele>0</ele>
        <time>2018-03-21T18:13:30Z</time>
      </trkpt>
      <trkpt lat="62.629565936271" lon="17.933633703635">
        <ele>0</ele>
        <time>2018-03-21T18:13:31Z</time>
      </trkpt>
      <trkpt lat="62.629747152949" lon="17.933412672932">
        <ele>0</ele>
        <time>2018-03-21T18:13:46Z</time>
      </trkpt>
      <trkpt lat="62.629761988912" lon="17.933404542489">
        <ele>0</ele>
        <time>2018-03-21T18:13:47Z</time>
      </trkpt>
      <trkpt lat="62.629794343046" lon="17.933384761205">
        <ele>0</ele>
        <time>2018-03-21T18:13:48Z</time>
      </trkpt>
      <trkpt lat="62.629822003316" lon="17.933369841423">
        <ele>0</ele>
        <time>2018-03-21T18:13:49Z</time>
      </trkpt>
      <trkpt lat="62.629847819568" lon="17.933348551397">
        <ele>0</ele>
        <time>2018-03-21T18:13:50Z</time>
      </trkpt>
      <trkpt lat="62.629881682444" lon="17.933334805081">
        <ele>0</ele>
        <time>2018-03-21T18:13:51Z</time>
      </trkpt>
      <trkpt lat="62.629912527836" lon="17.933317035453">
        <ele>0</ele>
        <time>2018-03-21T18:13:52Z</time>
      </trkpt>
      <trkpt lat="62.629937254441" lon="17.933302115671">
        <ele>0</ele>
        <time>2018-03-21T18:13:53Z</time>
      </trkpt>
      <trkpt lat="62.62996332215" lon="17.933286525337">
        <ele>0</ele>
        <time>2018-03-21T18:13:54Z</time>
      </trkpt>
      <trkpt lat="62.629992072067" lon="17.933274371582">
        <ele>0</ele>
        <time>2018-03-21T18:13:55Z</time>
      </trkpt>
      <trkpt lat="62.630023168916" lon="17.933255596126">
        <ele>0</ele>
        <time>2018-03-21T18:13:56Z</time>
      </trkpt>
      <trkpt lat="62.630051583557" lon="17.933239586697">
        <ele>0</ele>
        <time>2018-03-21T18:13:57Z</time>
      </trkpt>
      <trkpt lat="62.630075388153" lon="17.933219302499">
        <ele>0</ele>
        <time>2018-03-21T18:13:58Z</time>
      </trkpt>
      <trkpt lat="62.630100701491" lon="17.93320161669">
        <ele>0</ele>
        <time>2018-03-21T18:13:59Z</time>
      </trkpt>
      <trkpt lat="62.630125847191" lon="17.933182003044">
        <ele>0</ele>
        <time>2018-03-21T18:14:00Z</time>
      </trkpt>
      <trkpt lat="62.630151579624" lon="17.933160880656">
        <ele>0</ele>
        <time>2018-03-21T18:14:01Z</time>
      </trkpt>
      <trkpt lat="62.63017538422" lon="17.933139506811">
        <ele>0</ele>
        <time>2018-03-21T18:14:02Z</time>
      </trkpt>
      <trkpt lat="62.630202541576" lon="17.933118049147">
        <ele>0</ele>
        <time>2018-03-21T18:14:03Z</time>
      </trkpt>
      <trkpt lat="62.630225759439" lon="17.9330918138">
        <ele>0</ele>
        <time>2018-03-21T18:14:04Z</time>
      </trkpt>
      <trkpt lat="62.630249312578" lon="17.93306834448">
        <ele>0</ele>
        <time>2018-03-21T18:14:05Z</time>
      </trkpt>
      <trkpt lat="62.630272111346" lon="17.933039343106">
        <ele>0</ele>
        <time>2018-03-21T18:14:06Z</time>
      </trkpt>
      <trkpt lat="62.63029189263" lon="17.933004390583">
        <ele>0</ele>
        <time>2018-03-21T18:14:07Z</time>
      </trkpt>
      <trkpt lat="62.63031284738" lon="17.932966672033">
        <ele>0</ele>
        <time>2018-03-21T18:14:08Z</time>
      </trkpt>
      <trkpt lat="62.630331790474" lon="17.93292752856">
        <ele>0</ele>
        <time>2018-03-21T18:14:09Z</time>
      </trkpt>
      <trkpt lat="62.630347632265" lon="17.932894336236">
        <ele>0</ele>
        <time>2018-03-21T18:14:10Z</time>
      </trkpt>
      <trkpt lat="62.630367581187" lon="17.932866424509">
        <ele>0</ele>
        <time>2018-03-21T18:14:11Z</time>
      </trkpt>
      <trkpt lat="62.630395325276" lon="17.932827197217">
        <ele>0</ele>
        <time>2018-03-21T18:14:12Z</time>
      </trkpt>
      <trkpt lat="62.630417285854" lon="17.932798531119">
        <ele>0</ele>
        <time>2018-03-21T18:14:13Z</time>
      </trkpt>
      <trkpt lat="62.630442263916" lon="17.932690823704">
        <ele>0</ele>
        <time>2018-03-21T18:14:15Z</time>
      </trkpt>
      <trkpt lat="62.630463386304" lon="17.93264338215">
        <ele>0</ele>
        <time>2018-03-21T18:14:16Z</time>
      </trkpt>
      <trkpt lat="62.630486604167" lon="17.932608764903">
        <ele>0</ele>
        <time>2018-03-21T18:14:17Z</time>
      </trkpt>
      <trkpt lat="62.630504038519" lon="17.932576746045">
        <ele>0</ele>
        <time>2018-03-21T18:14:18Z</time>
      </trkpt>
      <trkpt lat="62.630528429848" lon="17.932530645595">
        <ele>0</ele>
        <time>2018-03-21T18:14:19Z</time>
      </trkpt>
      <trkpt lat="62.630544104001" lon="17.932498626737">
        <ele>0</ele>
        <time>2018-03-21T18:14:20Z</time>
      </trkpt>
      <trkpt lat="62.630557263584" lon="17.932458561255">
        <ele>0</ele>
        <time>2018-03-21T18:14:21Z</time>
      </trkpt>
      <trkpt lat="62.630571261357" lon="17.932415226832">
        <ele>0</ele>
        <time>2018-03-21T18:14:22Z</time>
      </trkpt>
      <trkpt lat="62.630589030985" lon="17.932374909893">
        <ele>0</ele>
        <time>2018-03-21T18:14:23Z</time>
      </trkpt>
      <trkpt lat="62.630603615491" lon="17.932362001767">
        <ele>0</ele>
        <time>2018-03-21T18:14:24Z</time>
      </trkpt>
      <trkpt lat="62.63061962492" lon="17.932331072556">
        <ele>0</ele>
        <time>2018-03-21T18:14:25Z</time>
      </trkpt>
      <trkpt lat="62.630639992937" lon="17.932299808069">
        <ele>0</ele>
        <time>2018-03-21T18:14:26Z</time>
      </trkpt>
      <trkpt lat="62.63064979976" lon="17.932265023184">
        <ele>0</ele>
        <time>2018-03-21T18:14:27Z</time>
      </trkpt>
      <trkpt lat="62.630663713714" lon="17.932232166136">
        <ele>0</ele>
        <time>2018-03-21T18:14:28Z</time>
      </trkpt>
      <trkpt lat="62.630682824446" lon="17.932209535006">
        <ele>0</ele>
        <time>2018-03-21T18:14:29Z</time>
      </trkpt>
      <trkpt lat="62.630694726744" lon="17.932185311315">
        <ele>0</ele>
        <time>2018-03-21T18:14:30Z</time>
      </trkpt>
      <trkpt lat="62.630719453349" lon="17.932153627733">
        <ele>0</ele>
        <time>2018-03-21T18:14:31Z</time>
      </trkpt>
      <trkpt lat="62.630733283484" lon="17.932128482033">
        <ele>0</ele>
        <time>2018-03-21T18:14:32Z</time>
      </trkpt>
      <trkpt lat="62.630748454723" lon="17.932103252514">
        <ele>0</ele>
        <time>2018-03-21T18:14:33Z</time>
      </trkpt>
      <trkpt lat="62.630762787772" lon="17.932077855357">
        <ele>0</ele>
        <time>2018-03-21T18:14:34Z</time>
      </trkpt>
      <trkpt lat="62.630777372278" lon="17.932048686345">
        <ele>0</ele>
        <time>2018-03-21T18:14:35Z</time>
      </trkpt>
      <trkpt lat="62.63078642473" lon="17.932021780446">
        <ele>0</ele>
        <time>2018-03-21T18:14:36Z</time>
      </trkpt>
      <trkpt lat="62.630800087227" lon="17.931983056068">
        <ele>0</ele>
        <time>2018-03-21T18:14:37Z</time>
      </trkpt>
      <trkpt lat="62.630814671733" lon="17.931953300323">
        <ele>0</ele>
        <time>2018-03-21T18:14:38Z</time>
      </trkpt>
      <trkpt lat="62.630830513524" lon="17.931923041664">
        <ele>0</ele>
        <time>2018-03-21T18:14:39Z</time>
      </trkpt>
      <trkpt lat="62.630842080546" lon="17.931902925104">
        <ele>0</ele>
        <time>2018-03-21T18:14:40Z</time>
      </trkpt>
      <trkpt lat="62.630857000328" lon="17.931875683929">
        <ele>0</ele>
        <time>2018-03-21T18:14:41Z</time>
      </trkpt>
      <trkpt lat="62.630874518499" lon="17.931844084166">
        <ele>0</ele>
        <time>2018-03-21T18:14:42Z</time>
      </trkpt>
      <trkpt lat="62.630893964507" lon="17.931819692837">
        <ele>0</ele>
        <time>2018-03-21T18:14:43Z</time>
      </trkpt>
      <trkpt lat="62.630911985592" lon="17.93179010473">
        <ele>0</ele>
        <time>2018-03-21T18:14:44Z</time>
      </trkpt>
      <trkpt lat="62.630933862351" lon="17.931760600442">
        <ele>0</ele>
        <time>2018-03-21T18:14:45Z</time>
      </trkpt>
      <trkpt lat="62.630953056902" lon="17.931720702598">
        <ele>0</ele>
        <time>2018-03-21T18:14:46Z</time>
      </trkpt>
      <trkpt lat="62.630968563417" lon="17.931693461423">
        <ele>0</ele>
        <time>2018-03-21T18:14:47Z</time>
      </trkpt>
      <trkpt lat="62.630986081588" lon="17.931662113117">
        <ele>0</ele>
        <time>2018-03-21T18:14:48Z</time>
      </trkpt>
      <trkpt lat="62.631005695234" lon="17.93163503958">
        <ele>0</ele>
        <time>2018-03-21T18:14:49Z</time>
      </trkpt>
      <trkpt lat="62.631025727975" lon="17.931613917192">
        <ele>0</ele>
        <time>2018-03-21T18:14:50Z</time>
      </trkpt>
      <trkpt lat="62.631051544227" lon="17.931585083456">
        <ele>0</ele>
        <time>2018-03-21T18:14:51Z</time>
      </trkpt>
      <trkpt lat="62.631069816769" lon="17.931560859765">
        <ele>0</ele>
        <time>2018-03-21T18:14:52Z</time>
      </trkpt>
      <trkpt lat="62.631084988008" lon="17.931534792056">
        <ele>0</ele>
        <time>2018-03-21T18:14:53Z</time>
      </trkpt>
      <trkpt lat="62.631103176731" lon="17.931515094591">
        <ele>0</ele>
        <time>2018-03-21T18:14:54Z</time>
      </trkpt>
      <trkpt lat="62.631119102341" lon="17.931491792909">
        <ele>0</ele>
        <time>2018-03-21T18:14:55Z</time>
      </trkpt>
      <trkpt lat="62.631127065146" lon="17.931446698287">
        <ele>0</ele>
        <time>2018-03-21T18:14:56Z</time>
      </trkpt>
      <trkpt lat="62.631149193362" lon="17.931408225366">
        <ele>0</ele>
        <time>2018-03-21T18:14:57Z</time>
      </trkpt>
      <trkpt lat="62.631166627714" lon="17.931375955051">
        <ele>0</ele>
        <time>2018-03-21T18:14:58Z</time>
      </trkpt>
      <trkpt lat="62.631185738446" lon="17.93133832032">
        <ele>0</ele>
        <time>2018-03-21T18:14:59Z</time>
      </trkpt>
      <trkpt lat="62.631200071495" lon="17.931293980069">
        <ele>0</ele>
        <time>2018-03-21T18:15:00Z</time>
      </trkpt>
      <trkpt lat="62.631206777015" lon="17.931241844651">
        <ele>0</ele>
        <time>2018-03-21T18:15:01Z</time>
      </trkpt>
      <trkpt lat="62.631215158915" lon="17.931197588219">
        <ele>0</ele>
        <time>2018-03-21T18:15:02Z</time>
      </trkpt>
      <trkpt lat="62.631235107837" lon="17.931162468058">
        <ele>0</ele>
        <time>2018-03-21T18:15:03Z</time>
      </trkpt>
      <trkpt lat="62.631251368723" lon="17.931127850811">
        <ele>0</ele>
        <time>2018-03-21T18:15:04Z</time>
      </trkpt>
      <trkpt lat="62.631266120867" lon="17.931106896061">
        <ele>0</ele>
        <time>2018-03-21T18:15:05Z</time>
      </trkpt>
      <trkpt lat="62.631282046477" lon="17.931066076208">
        <ele>0</ele>
        <time>2018-03-21T18:15:06Z</time>
      </trkpt>
      <trkpt lat="62.631292859128" lon="17.931029195848">
        <ele>0</ele>
        <time>2018-03-21T18:15:07Z</time>
      </trkpt>
      <trkpt lat="62.631302163037" lon="17.930988375995">
        <ele>0</ele>
        <time>2018-03-21T18:15:08Z</time>
      </trkpt>
      <trkpt lat="62.631316663724" lon="17.930949567798">
        <ele>0</ele>
        <time>2018-03-21T18:15:09Z</time>
      </trkpt>
      <trkpt lat="62.631322447235" lon="17.930920734062">
        <ele>0</ele>
        <time>2018-03-21T18:15:10Z</time>
      </trkpt>
      <trkpt lat="62.631337199379" lon="17.930882931693">
        <ele>0</ele>
        <time>2018-03-21T18:15:11Z</time>
      </trkpt>
      <trkpt lat="62.631347844392" lon="17.930854181776">
        <ele>0</ele>
        <time>2018-03-21T18:15:12Z</time>
      </trkpt>
      <trkpt lat="62.631359327595" lon="17.930819815986">
        <ele>0</ele>
        <time>2018-03-21T18:15:13Z</time>
      </trkpt>
      <trkpt lat="62.631368380047" lon="17.930782348893">
        <ele>0</ele>
        <time>2018-03-21T18:15:14Z</time>
      </trkpt>
      <trkpt lat="62.63138321601" lon="17.930749156569">
        <ele>0</ele>
        <time>2018-03-21T18:15:15Z</time>
      </trkpt>
      <trkpt lat="62.631395453584" lon="17.930713701132">
        <ele>0</ele>
        <time>2018-03-21T18:15:16Z</time>
      </trkpt>
      <trkpt lat="62.631411965927" lon="17.930685118853">
        <ele>0</ele>
        <time>2018-03-21T18:15:17Z</time>
      </trkpt>
      <trkpt lat="62.631426634252" lon="17.930655614565">
        <ele>0</ele>
        <time>2018-03-21T18:15:18Z</time>
      </trkpt>
      <trkpt lat="62.631442476043" lon="17.930624014802">
        <ele>0</ele>
        <time>2018-03-21T18:15:19Z</time>
      </trkpt>
      <trkpt lat="62.631459072205" lon="17.930593839962">
        <ele>0</ele>
        <time>2018-03-21T18:15:20Z</time>
      </trkpt>
      <trkpt lat="62.631478266756" lon="17.930565006226">
        <ele>0</ele>
        <time>2018-03-21T18:15:21Z</time>
      </trkpt>
      <trkpt lat="62.631497880402" lon="17.930535082843">
        <ele>0</ele>
        <time>2018-03-21T18:15:22Z</time>
      </trkpt>
      <trkpt lat="62.631514392745" lon="17.930505578555">
        <ele>0</ele>
        <time>2018-03-21T18:15:23Z</time>
      </trkpt>
      <trkpt lat="62.63152738469" lon="17.930477834466">
        <ele>0</ele>
        <time>2018-03-21T18:15:24Z</time>
      </trkpt>
      <trkpt lat="62.631541969196" lon="17.930449419825">
        <ele>0</ele>
        <time>2018-03-21T18:15:25Z</time>
      </trkpt>
      <trkpt lat="62.631565270878" lon="17.930421424279">
        <ele>0</ele>
        <time>2018-03-21T18:15:26Z</time>
      </trkpt>
      <trkpt lat="62.631582369954" lon="17.930399044606">
        <ele>0</ele>
        <time>2018-03-21T18:15:27Z</time>
      </trkpt>
      <trkpt lat="62.631595864813" lon="17.930372893078">
        <ele>0</ele>
        <time>2018-03-21T18:15:28Z</time>
      </trkpt>
      <trkpt lat="62.631616651925" lon="17.930347412102">
        <ele>0</ele>
        <time>2018-03-21T18:15:29Z</time>
      </trkpt>
      <trkpt lat="62.631629727689" lon="17.930331151216">
        <ele>0</ele>
        <time>2018-03-21T18:15:30Z</time>
      </trkpt>
      <trkpt lat="62.631651269172" lon="17.930306173154">
        <ele>0</ele>
        <time>2018-03-21T18:15:31Z</time>
      </trkpt>
      <trkpt lat="62.631670296085" lon="17.930287481517">
        <ele>0</ele>
        <time>2018-03-21T18:15:32Z</time>
      </trkpt>
      <trkpt lat="62.631689239179" lon="17.930274070477">
        <ele>0</ele>
        <time>2018-03-21T18:15:33Z</time>
      </trkpt>
      <trkpt lat="62.631710361567" lon="17.930247164578">
        <ele>0</ele>
        <time>2018-03-21T18:15:34Z</time>
      </trkpt>
      <trkpt lat="62.631730729584" lon="17.930228892036">
        <ele>0</ele>
        <time>2018-03-21T18:15:35Z</time>
      </trkpt>
      <trkpt lat="62.631748247755" lon="17.930201064128">
        <ele>0</ele>
        <time>2018-03-21T18:15:36Z</time>
      </trkpt>
      <trkpt lat="62.631769453962" lon="17.930181199025">
        <ele>0</ele>
        <time>2018-03-21T18:15:37Z</time>
      </trkpt>
      <trkpt lat="62.631792588006" lon="17.930156388601">
        <ele>0</ele>
        <time>2018-03-21T18:15:38Z</time>
      </trkpt>
      <trkpt lat="62.631810441453" lon="17.930129566521">
        <ele>0</ele>
        <time>2018-03-21T18:15:39Z</time>
      </trkpt>
      <trkpt lat="62.631832150574" lon="17.930104756097">
        <ele>0</ele>
        <time>2018-03-21T18:15:40Z</time>
      </trkpt>
      <trkpt lat="62.631851596582" lon="17.930059493837">
        <ele>0</ele>
        <time>2018-03-21T18:15:41Z</time>
      </trkpt>
      <trkpt lat="62.631868444201" lon="17.930027810255">
        <ele>0</ele>
        <time>2018-03-21T18:15:42Z</time>
      </trkpt>
      <trkpt lat="62.631889398951" lon="17.929995707578">
        <ele>0</ele>
        <time>2018-03-21T18:15:43Z</time>
      </trkpt>
      <trkpt lat="62.631908090588" lon="17.929966706204">
        <ele>0</ele>
        <time>2018-03-21T18:15:44Z</time>
      </trkpt>
      <trkpt lat="62.63192636313" lon="17.929943153065">
        <ele>0</ele>
        <time>2018-03-21T18:15:45Z</time>
      </trkpt>
      <trkpt lat="62.631950922097" lon="17.92991172094">
        <ele>0</ele>
        <time>2018-03-21T18:15:46Z</time>
      </trkpt>
      <trkpt lat="62.631963327309" lon="17.929891185285">
        <ele>0</ele>
        <time>2018-03-21T18:15:47Z</time>
      </trkpt>
      <trkpt lat="62.631985706982" lon="17.929861764816">
        <ele>0</ele>
        <time>2018-03-21T18:15:48Z</time>
      </trkpt>
      <trkpt lat="62.632011187958" lon="17.929832511985">
        <ele>0</ele>
        <time>2018-03-21T18:15:49Z</time>
      </trkpt>
      <trkpt lat="62.632028287034" lon="17.929801247498">
        <ele>0</ele>
        <time>2018-03-21T18:15:50Z</time>
      </trkpt>
      <trkpt lat="62.632043793549" lon="17.92976587588">
        <ele>0</ele>
        <time>2018-03-21T18:15:51Z</time>
      </trkpt>
      <trkpt lat="62.632063742471" lon="17.929727989692">
        <ele>0</ele>
        <time>2018-03-21T18:15:52Z</time>
      </trkpt>
      <trkpt lat="62.632084864859" lon="17.929699994146">
        <ele>0</ele>
        <time>2018-03-21T18:15:53Z</time>
      </trkpt>
      <trkpt lat="62.632099952279" lon="17.929672082419">
        <ele>0</ele>
        <time>2018-03-21T18:15:54Z</time>
      </trkpt>
      <trkpt lat="62.632124846522" lon="17.929639812104">
        <ele>0</ele>
        <time>2018-03-21T18:15:55Z</time>
      </trkpt>
      <trkpt lat="62.63214513072" lon="17.92960997254">
        <ele>0</ele>
        <time>2018-03-21T18:15:56Z</time>
      </trkpt>
      <trkpt lat="62.632162984167" lon="17.929575020017">
        <ele>0</ele>
        <time>2018-03-21T18:15:57Z</time>
      </trkpt>
      <trkpt lat="62.632183603641" lon="17.929545096634">
        <ele>0</ele>
        <time>2018-03-21T18:15:58Z</time>
      </trkpt>
      <trkpt lat="62.632202546735" lon="17.929518106916">
        <ele>0</ele>
        <time>2018-03-21T18:15:59Z</time>
      </trkpt>
      <trkpt lat="62.632219059078" lon="17.929493045035">
        <ele>0</ele>
        <time>2018-03-21T18:16:00Z</time>
      </trkpt>
      <trkpt lat="62.632238421267" lon="17.929457673417">
        <ele>0</ele>
        <time>2018-03-21T18:16:01Z</time>
      </trkpt>
      <trkpt lat="62.63225996275" lon="17.929435880477">
        <ele>0</ele>
        <time>2018-03-21T18:16:02Z</time>
      </trkpt>
      <trkpt lat="62.632278067654" lon="17.929412914071">
        <ele>0</ele>
        <time>2018-03-21T18:16:03Z</time>
      </trkpt>
      <trkpt lat="62.632307907218" lon="17.929408555483">
        <ele>0</ele>
        <time>2018-03-21T18:16:04Z</time>
      </trkpt>
      <trkpt lat="62.632331460357" lon="17.929401347049">
        <ele>0</ele>
        <time>2018-03-21T18:16:05Z</time>
      </trkpt>
      <trkpt lat="62.632352918021" lon="17.929380895213">
        <ele>0</ele>
        <time>2018-03-21T18:16:06Z</time>
      </trkpt>
      <trkpt lat="62.632378650454" lon="17.92938030848">
        <ele>0</ele>
        <time>2018-03-21T18:16:07Z</time>
      </trkpt>
      <trkpt lat="62.63240161686" lon="17.929385002344">
        <ele>0</ele>
        <time>2018-03-21T18:16:08Z</time>
      </trkpt>
      <trkpt lat="62.632424164171" lon="17.92937527934">
        <ele>0</ele>
        <time>2018-03-21T18:16:09Z</time>
      </trkpt>
      <trkpt lat="62.632444448369" lon="17.929385924353">
        <ele>0</ele>
        <time>2018-03-21T18:16:10Z</time>
      </trkpt>
      <trkpt lat="62.632468252965" lon="17.929390618217">
        <ele>0</ele>
        <time>2018-03-21T18:16:11Z</time>
      </trkpt>
      <trkpt lat="62.632486944602" lon="17.929396820823">
        <ele>0</ele>
        <time>2018-03-21T18:16:12Z</time>
      </trkpt>
      <trkpt lat="62.632506055334" lon="17.929403023429">
        <ele>0</ele>
        <time>2018-03-21T18:16:13Z</time>
      </trkpt>
      <trkpt lat="62.632563806625" lon="17.929396317909">
        <ele>0</ele>
        <time>2018-03-21T18:16:15Z</time>
      </trkpt>
      <trkpt lat="62.632592807999" lon="17.929404364533">
        <ele>0</ele>
        <time>2018-03-21T18:16:16Z</time>
      </trkpt>
      <trkpt lat="62.632617450785" lon="17.929413752261">
        <ele>0</ele>
        <time>2018-03-21T18:16:17Z</time>
      </trkpt>
      <trkpt lat="62.632637483526" lon="17.929421798885">
        <ele>0</ele>
        <time>2018-03-21T18:16:18Z</time>
      </trkpt>
      <trkpt lat="62.632664221787" lon="17.929435126106">
        <ele>0</ele>
        <time>2018-03-21T18:16:19Z</time>
      </trkpt>
      <trkpt lat="62.632680315035" lon="17.929440406703">
        <ele>0</ele>
        <time>2018-03-21T18:16:20Z</time>
      </trkpt>
      <trkpt lat="62.632703532898" lon="17.929449291517">
        <ele>0</ele>
        <time>2018-03-21T18:16:21Z</time>
      </trkpt>
      <trkpt lat="62.632720548155" lon="17.929462115824">
        <ele>0</ele>
        <time>2018-03-21T18:16:22Z</time>
      </trkpt>
      <trkpt lat="62.632726666942" lon="17.929458930702">
        <ele>0</ele>
        <time>2018-03-21T18:16:23Z</time>
      </trkpt>
      <trkpt lat="62.632744688027" lon="17.929434371735">
        <ele>0</ele>
        <time>2018-03-21T18:16:24Z</time>
      </trkpt>
      <trkpt lat="62.632768911718" lon="17.929429594052">
        <ele>0</ele>
        <time>2018-03-21T18:16:25Z</time>
      </trkpt>
      <trkpt lat="62.632793303047" lon="17.929436299572">
        <ele>0</ele>
        <time>2018-03-21T18:16:26Z</time>
      </trkpt>
      <trkpt lat="62.63281232996" lon="17.929446274033">
        <ele>0</ele>
        <time>2018-03-21T18:16:27Z</time>
      </trkpt>
      <trkpt lat="62.632837978574" lon="17.929460104168">
        <ele>0</ele>
        <time>2018-03-21T18:16:28Z</time>
      </trkpt>
      <trkpt lat="62.632852646899" lon="17.92947837671">
        <ele>0</ele>
        <time>2018-03-21T18:16:29Z</time>
      </trkpt>
      <trkpt lat="62.632867818138" lon="17.929489776094">
        <ele>0</ele>
        <time>2018-03-21T18:16:30Z</time>
      </trkpt>
      <trkpt lat="62.632890365449" lon="17.929534283983">
        <ele>0</ele>
        <time>2018-03-21T18:16:31Z</time>
      </trkpt>
      <trkpt lat="62.632903860308" lon="17.929564375004">
        <ele>0</ele>
        <time>2018-03-21T18:16:32Z</time>
      </trkpt>
      <trkpt lat="62.632916181701" lon="17.929600249536">
        <ele>0</ele>
        <time>2018-03-21T18:16:33Z</time>
      </trkpt>
      <trkpt lat="62.632927413447" lon="17.929643751597">
        <ele>0</ele>
        <time>2018-03-21T18:16:34Z</time>
      </trkpt>
      <trkpt lat="62.632931855854" lon="17.929684319993">
        <ele>0</ele>
        <time>2018-03-21T18:16:35Z</time>
      </trkpt>
      <trkpt lat="62.632937136451" lon="17.929729749891">
        <ele>0</ele>
        <time>2018-03-21T18:16:36Z</time>
      </trkpt>
      <trkpt lat="62.632945015437" lon="17.929788423191">
        <ele>0</ele>
        <time>2018-03-21T18:16:37Z</time>
      </trkpt>
      <trkpt lat="62.632951972414" lon="17.929832847261">
        <ele>0</ele>
        <time>2018-03-21T18:16:38Z</time>
      </trkpt>
      <trkpt lat="62.632954403165" lon="17.929887748706">
        <ele>0</ele>
        <time>2018-03-21T18:16:39Z</time>
      </trkpt>
      <trkpt lat="62.632956079545" lon="17.929934603527">
        <ele>0</ele>
        <time>2018-03-21T18:16:40Z</time>
      </trkpt>
      <trkpt lat="62.632959516124" lon="17.92999470175">
        <ele>0</ele>
        <time>2018-03-21T18:16:41Z</time>
      </trkpt>
      <trkpt lat="62.632963707074" lon="17.930038790544">
        <ele>0</ele>
        <time>2018-03-21T18:16:42Z</time>
      </trkpt>
      <trkpt lat="62.632966054006" lon="17.930096374197">
        <ele>0</ele>
        <time>2018-03-21T18:16:43Z</time>
      </trkpt>
      <trkpt lat="62.632972256612" lon="17.930140630629">
        <ele>0</ele>
        <time>2018-03-21T18:16:44Z</time>
      </trkpt>
      <trkpt lat="62.632981895797" lon="17.93018161812">
        <ele>0</ele>
        <time>2018-03-21T18:16:45Z</time>
      </trkpt>
      <trkpt lat="62.632990780611" lon="17.9302335859">
        <ele>0</ele>
        <time>2018-03-21T18:16:46Z</time>
      </trkpt>
      <trkpt lat="62.63300427547" lon="17.930268622242">
        <ele>0</ele>
        <time>2018-03-21T18:16:47Z</time>
      </trkpt>
      <trkpt lat="62.633014585207" lon="17.930306424611">
        <ele>0</ele>
        <time>2018-03-21T18:16:48Z</time>
      </trkpt>
      <trkpt lat="62.633029002075" lon="17.930355039631">
        <ele>0</ele>
        <time>2018-03-21T18:16:49Z</time>
      </trkpt>
      <trkpt lat="62.633039647088" lon="17.930385968842">
        <ele>0</ele>
        <time>2018-03-21T18:16:50Z</time>
      </trkpt>
      <trkpt lat="62.633052806671" lon="17.930432823663">
        <ele>0</ele>
        <time>2018-03-21T18:16:51Z</time>
      </trkpt>
      <trkpt lat="62.633059512191" lon="17.930485461995">
        <ele>0</ele>
        <time>2018-03-21T18:16:52Z</time>
      </trkpt>
      <trkpt lat="62.633067307358" lon="17.9305269524">
        <ele>0</ele>
        <time>2018-03-21T18:16:53Z</time>
      </trkpt>
      <trkpt lat="62.633075102525" lon="17.930574226316">
        <ele>0</ele>
        <time>2018-03-21T18:16:54Z</time>
      </trkpt>
      <trkpt lat="62.63307803619" lon="17.930623511888">
        <ele>0</ele>
        <time>2018-03-21T18:16:55Z</time>
      </trkpt>
      <trkpt lat="62.633083987339" lon="17.930674725297">
        <ele>0</ele>
        <time>2018-03-21T18:16:56Z</time>
      </trkpt>
      <trkpt lat="62.633086501909" lon="17.930722334489">
        <ele>0</ele>
        <time>2018-03-21T18:16:57Z</time>
      </trkpt>
      <trkpt lat="62.633089854669" lon="17.93076835112">
        <ele>0</ele>
        <time>2018-03-21T18:16:58Z</time>
      </trkpt>
      <trkpt lat="62.633094716171" lon="17.930814200113">
        <ele>0</ele>
        <time>2018-03-21T18:16:59Z</time>
      </trkpt>
      <trkpt lat="62.633096141094" lon="17.930851248111">
        <ele>0</ele>
        <time>2018-03-21T18:17:00Z</time>
      </trkpt>
      <trkpt lat="62.6331023437" lon="17.930911262515">
        <ele>0</ele>
        <time>2018-03-21T18:17:01Z</time>
      </trkpt>
      <trkpt lat="62.63310485827" lon="17.930955770404">
        <ele>0</ele>
        <time>2018-03-21T18:17:02Z</time>
      </trkpt>
      <trkpt lat="62.633109552134" lon="17.931004385424">
        <ele>0</ele>
        <time>2018-03-21T18:17:03Z</time>
      </trkpt>
      <trkpt lat="62.633110557962" lon="17.931052665168">
        <ele>0</ele>
        <time>2018-03-21T18:17:04Z</time>
      </trkpt>
      <trkpt lat="62.633115838559" lon="17.931092982107">
        <ele>0</ele>
        <time>2018-03-21T18:17:05Z</time>
      </trkpt>
      <trkpt lat="62.633119861871" lon="17.931141764765">
        <ele>0</ele>
        <time>2018-03-21T18:17:06Z</time>
      </trkpt>
      <trkpt lat="62.633123130812" lon="17.931201024798">
        <ele>0</ele>
        <time>2018-03-21T18:17:07Z</time>
      </trkpt>
      <trkpt lat="62.633128076133" lon="17.931244610678">
        <ele>0</ele>
        <time>2018-03-21T18:17:08Z</time>
      </trkpt>
      <trkpt lat="62.633132434721" lon="17.931297835743">
        <ele>0</ele>
        <time>2018-03-21T18:17:09Z</time>
      </trkpt>
      <trkpt lat="62.633138972603" lon="17.931327675307">
        <ele>0</ele>
        <time>2018-03-21T18:17:10Z</time>
      </trkpt>
      <trkpt lat="62.633151545453" lon="17.93138274439">
        <ele>0</ele>
        <time>2018-03-21T18:17:11Z</time>
      </trkpt>
      <trkpt lat="62.633160094991" lon="17.931424570071">
        <ele>0</ele>
        <time>2018-03-21T18:17:12Z</time>
      </trkpt>
      <trkpt lat="62.633167890158" lon="17.931479890611">
        <ele>0</ele>
        <time>2018-03-21T18:17:13Z</time>
      </trkpt>
      <trkpt lat="62.633177948438" lon="17.931521381016">
        <ele>0</ele>
        <time>2018-03-21T18:17:14Z</time>
      </trkpt>
      <trkpt lat="62.633187336166" lon="17.931563458154">
        <ele>0</ele>
        <time>2018-03-21T18:17:15Z</time>
      </trkpt>
      <trkpt lat="62.633197813541" lon="17.931623724015">
        <ele>0</ele>
        <time>2018-03-21T18:17:16Z</time>
      </trkpt>
      <trkpt lat="62.633207201269" lon="17.9316585089">
        <ele>0</ele>
        <time>2018-03-21T18:17:17Z</time>
      </trkpt>
      <trkpt lat="62.633219941757" lon="17.931699244934">
        <ele>0</ele>
        <time>2018-03-21T18:17:18Z</time>
      </trkpt>
      <trkpt lat="62.63323393953" lon="17.93173897514">
        <ele>0</ele>
        <time>2018-03-21T18:17:19Z</time>
      </trkpt>
      <trkpt lat="62.633243662534" lon="17.931769736713">
        <ele>0</ele>
        <time>2018-03-21T18:17:20Z</time>
      </trkpt>
      <trkpt lat="62.633264030551" lon="17.931819189923">
        <ele>0</ele>
        <time>2018-03-21T18:17:21Z</time>
      </trkpt>
      <trkpt lat="62.633270233157" lon="17.931871073884">
        <ele>0</ele>
        <time>2018-03-21T18:17:22Z</time>
      </trkpt>
      <trkpt lat="62.633273083003" lon="17.931917677248">
        <ele>0</ele>
        <time>2018-03-21T18:17:23Z</time>
      </trkpt>
      <trkpt lat="62.63327668722" lon="17.931965873173">
        <ele>0</ele>
        <time>2018-03-21T18:17:24Z</time>
      </trkpt>
      <trkpt lat="62.633284063292" lon="17.932012392718">
        <ele>0</ele>
        <time>2018-03-21T18:17:25Z</time>
      </trkpt>
      <trkpt lat="62.633291607002" lon="17.932074083502">
        <ele>0</ele>
        <time>2018-03-21T18:17:26Z</time>
      </trkpt>
      <trkpt lat="62.633303425481" lon="17.932121273599">
        <ele>0</ele>
        <time>2018-03-21T18:17:27Z</time>
      </trkpt>
      <trkpt lat="62.633311723562" lon="17.932159997977">
        <ele>0</ele>
        <time>2018-03-21T18:17:28Z</time>
      </trkpt>
      <trkpt lat="62.633321614204" lon="17.932198806174">
        <ele>0</ele>
        <time>2018-03-21T18:17:29Z</time>
      </trkpt>
      <trkpt lat="62.63333033138" lon="17.932242978787">
        <ele>0</ele>
        <time>2018-03-21T18:17:30Z</time>
      </trkpt>
      <trkpt lat="62.633343574782" lon="17.932294778929">
        <ele>0</ele>
        <time>2018-03-21T18:17:31Z</time>
      </trkpt>
      <trkpt lat="62.633353381605" lon="17.932334425316">
        <ele>0</ele>
        <time>2018-03-21T18:17:32Z</time>
      </trkpt>
      <trkpt lat="62.633363104609" lon="17.932381783051">
        <ele>0</ele>
        <time>2018-03-21T18:17:33Z</time>
      </trkpt>
      <trkpt lat="62.633374168717" lon="17.932421094162">
        <ele>0</ele>
        <time>2018-03-21T18:17:34Z</time>
      </trkpt>
      <trkpt lat="62.633382718255" lon="17.932453029201">
        <ele>0</ele>
        <time>2018-03-21T18:17:35Z</time>
      </trkpt>
      <trkpt lat="62.633393530906" lon="17.932502733868">
        <ele>0</ele>
        <time>2018-03-21T18:17:36Z</time>
      </trkpt>
      <trkpt lat="62.633400990797" lon="17.932547744671">
        <ele>0</ele>
        <time>2018-03-21T18:17:37Z</time>
      </trkpt>
      <trkpt lat="62.633415072389" lon="17.932583451565">
        <ele>0</ele>
        <time>2018-03-21T18:17:38Z</time>
      </trkpt>
      <trkpt lat="62.633425717402" lon="17.932633575327">
        <ele>0</ele>
        <time>2018-03-21T18:17:39Z</time>
      </trkpt>
      <trkpt lat="62.633431333275" lon="17.932666683832">
        <ele>0</ele>
        <time>2018-03-21T18:17:40Z</time>
      </trkpt>
      <trkpt lat="62.63344013427" lon="17.932709347703">
        <ele>0</ele>
        <time>2018-03-21T18:17:41Z</time>
      </trkpt>
      <trkpt lat="62.633449605817" lon="17.932759806741">
        <ele>0</ele>
        <time>2018-03-21T18:17:42Z</time>
      </trkpt>
      <trkpt lat="62.633457903898" lon="17.932809427589">
        <ele>0</ele>
        <time>2018-03-21T18:17:43Z</time>
      </trkpt>
      <trkpt lat="62.63346192721" lon="17.932854941306">
        <ele>0</ele>
        <time>2018-03-21T18:17:44Z</time>
      </trkpt>
      <trkpt lat="62.633466285798" lon="17.932901963765">
        <ele>0</ele>
        <time>2018-03-21T18:17:45Z</time>
      </trkpt>
      <trkpt lat="62.6334711473" lon="17.93295015969">
        <ele>0</ele>
        <time>2018-03-21T18:17:46Z</time>
      </trkpt>
      <trkpt lat="62.633476595535" lon="17.932991733914">
        <ele>0</ele>
        <time>2018-03-21T18:17:47Z</time>
      </trkpt>
      <trkpt lat="62.633484642159" lon="17.933037666726">
        <ele>0</ele>
        <time>2018-03-21T18:17:48Z</time>
      </trkpt>
      <trkpt lat="62.633495370991" lon="17.93308594647">
        <ele>0</ele>
        <time>2018-03-21T18:17:49Z</time>
      </trkpt>
      <trkpt lat="62.633501657416" lon="17.933127436875">
        <ele>0</ele>
        <time>2018-03-21T18:17:50Z</time>
      </trkpt>
      <trkpt lat="62.633506686556" lon="17.933187283641">
        <ele>0</ele>
        <time>2018-03-21T18:17:51Z</time>
      </trkpt>
      <trkpt lat="62.633511296601" lon="17.933230366607">
        <ele>0</ele>
        <time>2018-03-21T18:17:52Z</time>
      </trkpt>
      <trkpt lat="62.633515319913" lon="17.933279400722">
        <ele>0</ele>
        <time>2018-03-21T18:17:53Z</time>
      </trkpt>
      <trkpt lat="62.633519678501" lon="17.933332290511">
        <ele>0</ele>
        <time>2018-03-21T18:17:54Z</time>
      </trkpt>
      <trkpt lat="62.633526970754" lon="17.933373529459">
        <ele>0</ele>
        <time>2018-03-21T18:17:55Z</time>
      </trkpt>
      <trkpt lat="62.633536609939" lon="17.93342792799">
        <ele>0</ele>
        <time>2018-03-21T18:17:56Z</time>
      </trkpt>
      <trkpt lat="62.633542309631" lon="17.933476123915">
        <ele>0</ele>
        <time>2018-03-21T18:17:57Z</time>
      </trkpt>
      <trkpt lat="62.633554547205" lon="17.933517698139">
        <ele>0</ele>
        <time>2018-03-21T18:17:58Z</time>
      </trkpt>
      <trkpt lat="62.633564856942" lon="17.933561619295">
        <ele>0</ele>
        <time>2018-03-21T18:17:59Z</time>
      </trkpt>
      <trkpt lat="62.633574915222" lon="17.933605372813">
        <ele>0</ele>
        <time>2018-03-21T18:18:00Z</time>
      </trkpt>
      <trkpt lat="62.633579106172" lon="17.933633033083">
        <ele>0</ele>
        <time>2018-03-21T18:18:01Z</time>
      </trkpt>
      <trkpt lat="62.633592601031" lon="17.933687683071">
        <ele>0</ele>
        <time>2018-03-21T18:18:02Z</time>
      </trkpt>
      <trkpt lat="62.633602659311" lon="17.933738561204">
        <ele>0</ele>
        <time>2018-03-21T18:18:03Z</time>
      </trkpt>
      <trkpt lat="62.633612549953" lon="17.933777034125">
        <ele>0</ele>
        <time>2018-03-21T18:18:04Z</time>
      </trkpt>
      <trkpt lat="62.633624284613" lon="17.933814668856">
        <ele>0</ele>
        <time>2018-03-21T18:18:05Z</time>
      </trkpt>
      <trkpt lat="62.633635851635" lon="17.933856159261">
        <ele>0</ele>
        <time>2018-03-21T18:18:06Z</time>
      </trkpt>
      <trkpt lat="62.633648424485" lon="17.933900415693">
        <ele>0</ele>
        <time>2018-03-21T18:18:07Z</time>
      </trkpt>
      <trkpt lat="62.633659237136" lon="17.933941319365">
        <ele>0</ele>
        <time>2018-03-21T18:18:08Z</time>
      </trkpt>
      <trkpt lat="62.63367734204" lon="17.933973086766">
        <ele>0</ele>
        <time>2018-03-21T18:18:09Z</time>
      </trkpt>
      <trkpt lat="62.633691088356" lon="17.933998651561">
        <ele>0</ele>
        <time>2018-03-21T18:18:10Z</time>
      </trkpt>
      <trkpt lat="62.633716234056" lon="17.934024383994">
        <ele>0</ele>
        <time>2018-03-21T18:18:11Z</time>
      </trkpt>
      <trkpt lat="62.633732578761" lon="17.934041650708">
        <ele>0</ele>
        <time>2018-03-21T18:18:12Z</time>
      </trkpt>
      <trkpt lat="62.633749761656" lon="17.934060258526">
        <ele>0</ele>
        <time>2018-03-21T18:18:13Z</time>
      </trkpt>
      <trkpt lat="62.633765854904" lon="17.9340724961">
        <ele>0</ele>
        <time>2018-03-21T18:18:14Z</time>
      </trkpt>
      <trkpt lat="62.63378379217" lon="17.934083057294">
        <ele>0</ele>
        <time>2018-03-21T18:18:15Z</time>
      </trkpt>
      <trkpt lat="62.633804495463" lon="17.934107951537">
        <ele>0</ele>
        <time>2018-03-21T18:18:16Z</time>
      </trkpt>
      <trkpt lat="62.633825366394" lon="17.934122452224">
        <ele>0</ele>
        <time>2018-03-21T18:18:17Z</time>
      </trkpt>
      <trkpt lat="62.633843555117" lon="17.934136785273">
        <ele>0</ele>
        <time>2018-03-21T18:18:18Z</time>
      </trkpt>
      <trkpt lat="62.633863001125" lon="17.934151202141">
        <ele>0</ele>
        <time>2018-03-21T18:18:19Z</time>
      </trkpt>
      <trkpt lat="62.633881692762" lon="17.934168636493">
        <ele>0</ele>
        <time>2018-03-21T18:18:20Z</time>
      </trkpt>
      <trkpt lat="62.633901054951" lon="17.934186573759">
        <ele>0</ele>
        <time>2018-03-21T18:18:21Z</time>
      </trkpt>
      <trkpt lat="62.633918992217" lon="17.934198056962">
        <ele>0</ele>
        <time>2018-03-21T18:18:22Z</time>
      </trkpt>
      <trkpt lat="62.633936258931" lon="17.934221442463">
        <ele>0</ele>
        <time>2018-03-21T18:18:23Z</time>
      </trkpt>
      <trkpt lat="62.63395310655" lon="17.934238038625">
        <ele>0</ele>
        <time>2018-03-21T18:18:24Z</time>
      </trkpt>
      <trkpt lat="62.633968864522" lon="17.934258322823">
        <ele>0</ele>
        <time>2018-03-21T18:18:25Z</time>
      </trkpt>
      <trkpt lat="62.633988394349" lon="17.934292856251">
        <ele>0</ele>
        <time>2018-03-21T18:18:26Z</time>
      </trkpt>
      <trkpt lat="62.634002727398" lon="17.934323534005">
        <ele>0</ele>
        <time>2018-03-21T18:18:27Z</time>
      </trkpt>
      <trkpt lat="62.634009768194" lon="17.934361504012">
        <ele>0</ele>
        <time>2018-03-21T18:18:28Z</time>
      </trkpt>
      <trkpt lat="62.634014881153" lon="17.934398384372">
        <ele>0</ele>
        <time>2018-03-21T18:18:29Z</time>
      </trkpt>
      <trkpt lat="62.634017563361" lon="17.934431660515">
        <ele>0</ele>
        <time>2018-03-21T18:18:30Z</time>
      </trkpt>
      <trkpt lat="62.634016306076" lon="17.934467451228">
        <ele>0</ele>
        <time>2018-03-21T18:18:31Z</time>
      </trkpt>
      <trkpt lat="62.634027454003" lon="17.934472061273">
        <ele>0</ele>
        <time>2018-03-21T18:18:32Z</time>
      </trkpt>
      <trkpt lat="62.634048492572" lon="17.934501062647">
        <ele>0</ele>
        <time>2018-03-21T18:18:33Z</time>
      </trkpt>
      <trkpt lat="62.634075733747" lon="17.934521933578">
        <ele>0</ele>
        <time>2018-03-21T18:18:34Z</time>
      </trkpt>
      <trkpt lat="62.634101214723" lon="17.934543642699">
        <ele>0</ele>
        <time>2018-03-21T18:18:35Z</time>
      </trkpt>
      <trkpt lat="62.634127114794" lon="17.934571638245">
        <ele>0</ele>
        <time>2018-03-21T18:18:36Z</time>
      </trkpt>
      <trkpt lat="62.634146225526" lon="17.93461229046">
        <ele>0</ele>
        <time>2018-03-21T18:18:37Z</time>
      </trkpt>
      <trkpt lat="62.634161899679" lon="17.934635424504">
        <ele>0</ele>
        <time>2018-03-21T18:18:38Z</time>
      </trkpt>
      <trkpt lat="62.634182183877" lon="17.934635089228">
        <ele>0</ele>
        <time>2018-03-21T18:18:39Z</time>
      </trkpt>
      <trkpt lat="62.634200875514" lon="17.934617403419">
        <ele>0</ele>
        <time>2018-03-21T18:18:40Z</time>
      </trkpt>
      <trkpt lat="62.634227027042" lon="17.934593766461">
        <ele>0</ele>
        <time>2018-03-21T18:18:41Z</time>
      </trkpt>
      <trkpt lat="62.634248233249" lon="17.93457038096">
        <ele>0</ele>
        <time>2018-03-21T18:18:42Z</time>
      </trkpt>
      <trkpt lat="62.634277905175" lon="17.934553114246">
        <ele>0</ele>
        <time>2018-03-21T18:18:43Z</time>
      </trkpt>
      <trkpt lat="62.634302464142" lon="17.934545821993">
        <ele>0</ele>
        <time>2018-03-21T18:18:44Z</time>
      </trkpt>
      <trkpt lat="62.63432191015" lon="17.934534171152">
        <ele>0</ele>
        <time>2018-03-21T18:18:45Z</time>
      </trkpt>
      <trkpt lat="62.63434957042" lon="17.934537523912">
        <ele>0</ele>
        <time>2018-03-21T18:18:46Z</time>
      </trkpt>
      <trkpt lat="62.634372704464" lon="17.934547330735">
        <ele>0</ele>
        <time>2018-03-21T18:18:47Z</time>
      </trkpt>
      <trkpt lat="62.634389216807" lon="17.93457121915">
        <ele>0</ele>
        <time>2018-03-21T18:18:48Z</time>
      </trkpt>
      <trkpt lat="62.634411093566" lon="17.934607512777">
        <ele>0</ele>
        <time>2018-03-21T18:18:49Z</time>
      </trkpt>
      <trkpt lat="62.634427186814" lon="17.934640034549">
        <ele>0</ele>
        <time>2018-03-21T18:18:50Z</time>
      </trkpt>
      <trkpt lat="62.634441352225" lon="17.934676411995">
        <ele>0</ele>
        <time>2018-03-21T18:18:51Z</time>
      </trkpt>
      <trkpt lat="62.634453589799" lon="17.93472376973">
        <ele>0</ele>
        <time>2018-03-21T18:18:52Z</time>
      </trkpt>
      <trkpt lat="62.634459121853" lon="17.934777665347">
        <ele>0</ele>
        <time>2018-03-21T18:18:53Z</time>
      </trkpt>
      <trkpt lat="62.63446607883" lon="17.93482351434">
        <ele>0</ele>
        <time>2018-03-21T18:18:54Z</time>
      </trkpt>
      <trkpt lat="62.634482339716" lon="17.934856958121">
        <ele>0</ele>
        <time>2018-03-21T18:18:55Z</time>
      </trkpt>
      <trkpt lat="62.634505389941" lon="17.934885875676">
        <ele>0</ele>
        <time>2018-03-21T18:18:56Z</time>
      </trkpt>
      <trkpt lat="62.634523243388" lon="17.934909764091">
        <ele>0</ele>
        <time>2018-03-21T18:18:57Z</time>
      </trkpt>
      <trkpt lat="62.634540845378" lon="17.934936502352">
        <ele>0</ele>
        <time>2018-03-21T18:18:58Z</time>
      </trkpt>
      <trkpt lat="62.634562219223" lon="17.934962234785">
        <ele>0</ele>
        <time>2018-03-21T18:18:59Z</time>
      </trkpt>
      <trkpt lat="62.634583760706" lon="17.934965587545">
        <ele>0</ele>
        <time>2018-03-21T18:19:00Z</time>
      </trkpt>
      <trkpt lat="62.634607062388" lon="17.934978495671">
        <ele>0</ele>
        <time>2018-03-21T18:19:01Z</time>
      </trkpt>
      <trkpt lat="62.634632794821" lon="17.934997774041">
        <ele>0</ele>
        <time>2018-03-21T18:19:02Z</time>
      </trkpt>
      <trkpt lat="62.63464796606" lon="17.935016968592">
        <ele>0</ele>
        <time>2018-03-21T18:19:03Z</time>
      </trkpt>
      <trkpt lat="62.634668669353" lon="17.935047394889">
        <ele>0</ele>
        <time>2018-03-21T18:19:04Z</time>
      </trkpt>
      <trkpt lat="62.634683002402" lon="17.935065415974">
        <ele>0</ele>
        <time>2018-03-21T18:19:05Z</time>
      </trkpt>
      <trkpt lat="62.634704460066" lon="17.935082095955">
        <ele>0</ele>
        <time>2018-03-21T18:19:06Z</time>
      </trkpt>
      <trkpt lat="62.634728599938" lon="17.935108163664">
        <ele>0</ele>
        <time>2018-03-21T18:19:07Z</time>
      </trkpt>
      <trkpt lat="62.634748632679" lon="17.935122412894">
        <ele>0</ele>
        <time>2018-03-21T18:19:08Z</time>
      </trkpt>
      <trkpt lat="62.634770509438" lon="17.935143786739">
        <ele>0</ele>
        <time>2018-03-21T18:19:09Z</time>
      </trkpt>
      <trkpt lat="62.634787273238" lon="17.935180080366">
        <ele>0</ele>
        <time>2018-03-21T18:19:10Z</time>
      </trkpt>
      <trkpt lat="62.634807557436" lon="17.935214027061">
        <ele>0</ele>
        <time>2018-03-21T18:19:11Z</time>
      </trkpt>
      <trkpt lat="62.634825243245" lon="17.935229952671">
        <ele>0</ele>
        <time>2018-03-21T18:19:12Z</time>
      </trkpt>
      <trkpt lat="62.634849718393" lon="17.935252332344">
        <ele>0</ele>
        <time>2018-03-21T18:19:13Z</time>
      </trkpt>
      <trkpt lat="62.634868158573" lon="17.935268677049">
        <ele>0</ele>
        <time>2018-03-21T18:19:14Z</time>
      </trkpt>
      <trkpt lat="62.634885676744" lon="17.935280076433">
        <ele>0</ele>
        <time>2018-03-21T18:19:15Z</time>
      </trkpt>
      <trkpt lat="62.63491031953" lon="17.935304383943">
        <ele>0</ele>
        <time>2018-03-21T18:19:16Z</time>
      </trkpt>
      <trkpt lat="62.634930855185" lon="17.935326009245">
        <ele>0</ele>
        <time>2018-03-21T18:19:17Z</time>
      </trkpt>
      <trkpt lat="62.634949882098" lon="17.935349981479">
        <ele>0</ele>
        <time>2018-03-21T18:19:18Z</time>
      </trkpt>
      <trkpt lat="62.634973602875" lon="17.935372612609">
        <ele>0</ele>
        <time>2018-03-21T18:19:19Z</time>
      </trkpt>
      <trkpt lat="62.634992881245" lon="17.935389124952">
        <ele>0</ele>
        <time>2018-03-21T18:19:20Z</time>
      </trkpt>
      <trkpt lat="62.635014841823" lon="17.935411588444">
        <ele>0</ele>
        <time>2018-03-21T18:19:21Z</time>
      </trkpt>
      <trkpt lat="62.635033701098" lon="17.93543371666">
        <ele>0</ele>
        <time>2018-03-21T18:19:22Z</time>
      </trkpt>
      <trkpt lat="62.635051889821" lon="17.935466489889">
        <ele>0</ele>
        <time>2018-03-21T18:19:23Z</time>
      </trkpt>
      <trkpt lat="62.635069910906" lon="17.935494150159">
        <ele>0</ele>
        <time>2018-03-21T18:19:24Z</time>
      </trkpt>
      <trkpt lat="62.635087429077" lon="17.93552340299">
        <ele>0</ele>
        <time>2018-03-21T18:19:25Z</time>
      </trkpt>
      <trkpt lat="62.635107210361" lon="17.935556008581">
        <ele>0</ele>
        <time>2018-03-21T18:19:26Z</time>
      </trkpt>
      <trkpt lat="62.635126153455" lon="17.935577214788">
        <ele>0</ele>
        <time>2018-03-21T18:19:27Z</time>
      </trkpt>
      <trkpt lat="62.635149036042" lon="17.93559967828">
        <ele>0</ele>
        <time>2018-03-21T18:19:28Z</time>
      </trkpt>
      <trkpt lat="62.63516932024" lon="17.935622896143">
        <ele>0</ele>
        <time>2018-03-21T18:19:29Z</time>
      </trkpt>
      <trkpt lat="62.635186000221" lon="17.935643850893">
        <ele>0</ele>
        <time>2018-03-21T18:19:30Z</time>
      </trkpt>
      <trkpt lat="62.635212738482" lon="17.935671930258">
        <ele>0</ele>
        <time>2018-03-21T18:19:31Z</time>
      </trkpt>
      <trkpt lat="62.635236291621" lon="17.935694896664">
        <ele>0</ele>
        <time>2018-03-21T18:19:32Z</time>
      </trkpt>
      <trkpt lat="62.635256072905" lon="17.935715097043">
        <ele>0</ele>
        <time>2018-03-21T18:19:33Z</time>
      </trkpt>
      <trkpt lat="62.635278955492" lon="17.935726328789">
        <ele>0</ele>
        <time>2018-03-21T18:19:34Z</time>
      </trkpt>
      <trkpt lat="62.635302089536" lon="17.935725490599">
        <ele>0</ele>
        <time>2018-03-21T18:19:35Z</time>
      </trkpt>
      <trkpt lat="62.635324301571" lon="17.935713755939">
        <ele>0</ele>
        <time>2018-03-21T18:19:36Z</time>
      </trkpt>
      <trkpt lat="62.635349028176" lon="17.935714929405">
        <ele>0</ele>
        <time>2018-03-21T18:19:37Z</time>
      </trkpt>
      <trkpt lat="62.635370988754" lon="17.935721802563">
        <ele>0</ele>
        <time>2018-03-21T18:19:38Z</time>
      </trkpt>
      <trkpt lat="62.635389680391" lon="17.935750301023">
        <ele>0</ele>
        <time>2018-03-21T18:19:39Z</time>
      </trkpt>
      <trkpt lat="62.635400493042" lon="17.935780475863">
        <ele>0</ele>
        <time>2018-03-21T18:19:40Z</time>
      </trkpt>
      <trkpt lat="62.635420441964" lon="17.935803442269">
        <ele>0</ele>
        <time>2018-03-21T18:19:41Z</time>
      </trkpt>
      <trkpt lat="62.635444581836" lon="17.935819619336">
        <ele>0</ele>
        <time>2018-03-21T18:19:42Z</time>
      </trkpt>
      <trkpt lat="62.635462938197" lon="17.935849961814">
        <ele>0</ele>
        <time>2018-03-21T18:19:43Z</time>
      </trkpt>
      <trkpt lat="62.63547693597" lon="17.935871168021">
        <ele>0</ele>
        <time>2018-03-21T18:19:44Z</time>
      </trkpt>
      <trkpt lat="62.63549872891" lon="17.935889440563">
        <ele>0</ele>
        <time>2018-03-21T18:19:45Z</time>
      </trkpt>
      <trkpt lat="62.63552052185" lon="17.935910479132">
        <ele>0</ele>
        <time>2018-03-21T18:19:46Z</time>
      </trkpt>
      <trkpt lat="62.635541560419" lon="17.935931098606">
        <ele>0</ele>
        <time>2018-03-21T18:19:47Z</time>
      </trkpt>
      <trkpt lat="62.635565197377" lon="17.935953310641">
        <ele>0</ele>
        <time>2018-03-21T18:19:48Z</time>
      </trkpt>
      <trkpt lat="62.635586571222" lon="17.935975857952">
        <ele>0</ele>
        <time>2018-03-21T18:19:49Z</time>
      </trkpt>
      <trkpt lat="62.635609202352" lon="17.935994968684">
        <ele>0</ele>
        <time>2018-03-21T18:19:50Z</time>
      </trkpt>
      <trkpt lat="62.635630660016" lon="17.93602883156">
        <ele>0</ele>
        <time>2018-03-21T18:19:51Z</time>
      </trkpt>
      <trkpt lat="62.635649100196" lon="17.936051127414">
        <ele>0</ele>
        <time>2018-03-21T18:19:52Z</time>
      </trkpt>
      <trkpt lat="62.635662762693" lon="17.936079877331">
        <ele>0</ele>
        <time>2018-03-21T18:19:53Z</time>
      </trkpt>
      <trkpt lat="62.63568313071" lon="17.936117260605">
        <ele>0</ele>
        <time>2018-03-21T18:19:54Z</time>
      </trkpt>
      <trkpt lat="62.63569821813" lon="17.936135533147">
        <ele>0</ele>
        <time>2018-03-21T18:19:55Z</time>
      </trkpt>
      <trkpt lat="62.635723112373" lon="17.936161936132">
        <ele>0</ele>
        <time>2018-03-21T18:19:56Z</time>
      </trkpt>
      <trkpt lat="62.635745072951" lon="17.936178280837">
        <ele>0</ele>
        <time>2018-03-21T18:19:57Z</time>
      </trkpt>
      <trkpt lat="62.635764686597" lon="17.936197056293">
        <ele>0</ele>
        <time>2018-03-21T18:19:58Z</time>
      </trkpt>
      <trkpt lat="62.635783797329" lon="17.936213484817">
        <ele>0</ele>
        <time>2018-03-21T18:19:59Z</time>
      </trkpt>
      <trkpt lat="62.635800644948" lon="17.936228236961">
        <ele>0</ele>
        <time>2018-03-21T18:20:00Z</time>
      </trkpt>
      <trkpt lat="62.635826209743" lon="17.936257070697">
        <ele>0</ele>
        <time>2018-03-21T18:20:01Z</time>
      </trkpt>
      <trkpt lat="62.635848673235" lon="17.93627023028">
        <ele>0</ele>
        <time>2018-03-21T18:20:02Z</time>
      </trkpt>
      <trkpt lat="62.635875243858" lon="17.936280120922">
        <ele>0</ele>
        <time>2018-03-21T18:20:03Z</time>
      </trkpt>
      <trkpt lat="62.63590022192" lon="17.936275678515">
        <ele>0</ele>
        <time>2018-03-21T18:20:04Z</time>
      </trkpt>
      <trkpt lat="62.635921092851" lon="17.936262602751">
        <ele>0</ele>
        <time>2018-03-21T18:20:05Z</time>
      </trkpt>
      <trkpt lat="62.635945819456" lon="17.936241228906">
        <ele>0</ele>
        <time>2018-03-21T18:20:06Z</time>
      </trkpt>
      <trkpt lat="62.635965516921" lon="17.936211389342">
        <ele>0</ele>
        <time>2018-03-21T18:20:07Z</time>
      </trkpt>
      <trkpt lat="62.635974988468" lon="17.93616461834">
        <ele>0</ele>
        <time>2018-03-21T18:20:08Z</time>
      </trkpt>
      <trkpt lat="62.635990662621" lon="17.936118266433">
        <ele>0</ele>
        <time>2018-03-21T18:20:09Z</time>
      </trkpt>
      <trkpt lat="62.635997954874" lon="17.936088426869">
        <ele>0</ele>
        <time>2018-03-21T18:20:10Z</time>
      </trkpt>
      <trkpt lat="62.636015221588" lon="17.936052552337">
        <ele>0</ele>
        <time>2018-03-21T18:20:11Z</time>
      </trkpt>
      <trkpt lat="62.636038355632" lon="17.936019192375">
        <ele>0</ele>
        <time>2018-03-21T18:20:12Z</time>
      </trkpt>
      <trkpt lat="62.636052353405" lon="17.935989604268">
        <ele>0</ele>
        <time>2018-03-21T18:20:13Z</time>
      </trkpt>
      <trkpt lat="62.636065093893" lon="17.935942162714">
        <ele>0</ele>
        <time>2018-03-21T18:20:14Z</time>
      </trkpt>
      <trkpt lat="62.636080265132" lon="17.935908299838">
        <ele>0</ele>
        <time>2018-03-21T18:20:15Z</time>
      </trkpt>
      <trkpt lat="62.636092670344" lon="17.935868150537">
        <ele>0</ele>
        <time>2018-03-21T18:20:16Z</time>
      </trkpt>
      <trkpt lat="62.636099208226" lon="17.935830431987">
        <ele>0</ele>
        <time>2018-03-21T18:20:17Z</time>
      </trkpt>
      <trkpt lat="62.636117145492" lon="17.935788019573">
        <ele>0</ele>
        <time>2018-03-21T18:20:18Z</time>
      </trkpt>
      <trkpt lat="62.63612569503" lon="17.935747367358">
        <ele>0</ele>
        <time>2018-03-21T18:20:19Z</time>
      </trkpt>
      <trkpt lat="62.636131478541" lon="17.935704200573">
        <ele>0</ele>
        <time>2018-03-21T18:20:20Z</time>
      </trkpt>
      <trkpt lat="62.636147068875" lon="17.935650388775">
        <ele>0</ele>
        <time>2018-03-21T18:20:21Z</time>
      </trkpt>
      <trkpt lat="62.636167772168" lon="17.935619962478">
        <ele>0</ele>
        <time>2018-03-21T18:20:22Z</time>
      </trkpt>
      <trkpt lat="62.636176405525" lon="17.93557620896">
        <ele>0</ele>
        <time>2018-03-21T18:20:23Z</time>
      </trkpt>
      <trkpt lat="62.636187134357" lon="17.935531030519">
        <ele>0</ele>
        <time>2018-03-21T18:20:24Z</time>
      </trkpt>
      <trkpt lat="62.636203059967" lon="17.935503789344">
        <ele>0</ele>
        <time>2018-03-21T18:20:25Z</time>
      </trkpt>
      <trkpt lat="62.636217728292" lon="17.935453330306">
        <ele>0</ele>
        <time>2018-03-21T18:20:26Z</time>
      </trkpt>
      <trkpt lat="62.636230384961" lon="17.935417539593">
        <ele>0</ele>
        <time>2018-03-21T18:20:27Z</time>
      </trkpt>
      <trkpt lat="62.636240024146" lon="17.935382922346">
        <ele>0</ele>
        <time>2018-03-21T18:20:28Z</time>
      </trkpt>
      <trkpt lat="62.636245304743" lon="17.935341012846">
        <ele>0</ele>
        <time>2018-03-21T18:20:29Z</time>
      </trkpt>
      <trkpt lat="62.636259553973" lon="17.935307317608">
        <ele>0</ele>
        <time>2018-03-21T18:20:30Z</time>
      </trkpt>
      <trkpt lat="62.636267684416" lon="17.935264737556">
        <ele>0</ele>
        <time>2018-03-21T18:20:31Z</time>
      </trkpt>
      <trkpt lat="62.636271791547" lon="17.935210171387">
        <ele>0</ele>
        <time>2018-03-21T18:20:32Z</time>
      </trkpt>
      <trkpt lat="62.636283777664" lon="17.935158622702">
        <ele>0</ele>
        <time>2018-03-21T18:20:33Z</time>
      </trkpt>
      <trkpt lat="62.636295512324" lon="17.935125430378">
        <ele>0</ele>
        <time>2018-03-21T18:20:34Z</time>
      </trkpt>
      <trkpt lat="62.636301798749" lon="17.935090394036">
        <ele>0</ele>
        <time>2018-03-21T18:20:35Z</time>
      </trkpt>
      <trkpt lat="62.636316215617" lon="17.935047143432">
        <ele>0</ele>
        <time>2018-03-21T18:20:36Z</time>
      </trkpt>
      <trkpt lat="62.636328369372" lon="17.935011604176">
        <ele>0</ele>
        <time>2018-03-21T18:20:37Z</time>
      </trkpt>
      <trkpt lat="62.6363377571" lon="17.934968269753">
        <ele>0</ele>
        <time>2018-03-21T18:20:38Z</time>
      </trkpt>
      <trkpt lat="62.636351754873" lon="17.93492661171">
        <ele>0</ele>
        <time>2018-03-21T18:20:39Z</time>
      </trkpt>
      <trkpt lat="62.63635787366" lon="17.934890820997">
        <ele>0</ele>
        <time>2018-03-21T18:20:40Z</time>
      </trkpt>
      <trkpt lat="62.636363070438" lon="17.934835081362">
        <ele>0</ele>
        <time>2018-03-21T18:20:41Z</time>
      </trkpt>
      <trkpt lat="62.636371033243" lon="17.934789316188">
        <ele>0</ele>
        <time>2018-03-21T18:20:42Z</time>
      </trkpt>
      <trkpt lat="62.636385366292" lon="17.93474220991">
        <ele>0</ele>
        <time>2018-03-21T18:20:43Z</time>
      </trkpt>
      <trkpt lat="62.636386791215" lon="17.934698456392">
        <ele>0</ele>
        <time>2018-03-21T18:20:44Z</time>
      </trkpt>
      <trkpt lat="62.636400286074" lon="17.934661576032">
        <ele>0</ele>
        <time>2018-03-21T18:20:45Z</time>
      </trkpt>
      <trkpt lat="62.636416882236" lon="17.934617068143">
        <ele>0</ele>
        <time>2018-03-21T18:20:46Z</time>
      </trkpt>
      <trkpt lat="62.636430460914" lon="17.934579936326">
        <ele>0</ele>
        <time>2018-03-21T18:20:47Z</time>
      </trkpt>
      <trkpt lat="62.636437250253" lon="17.934528136184">
        <ele>0</ele>
        <time>2018-03-21T18:20:48Z</time>
      </trkpt>
      <trkpt lat="62.636446637981" lon="17.93447985644">
        <ele>0</ele>
        <time>2018-03-21T18:20:49Z</time>
      </trkpt>
      <trkpt lat="62.636458372641" lon="17.934445323012">
        <ele>0</ele>
        <time>2018-03-21T18:20:50Z</time>
      </trkpt>
      <trkpt lat="62.636470107301" lon="17.93440693391">
        <ele>0</ele>
        <time>2018-03-21T18:20:51Z</time>
      </trkpt>
      <trkpt lat="62.636483769798" lon="17.934376339975">
        <ele>0</ele>
        <time>2018-03-21T18:20:52Z</time>
      </trkpt>
      <trkpt lat="62.636489553309" lon="17.934325210385">
        <ele>0</ele>
        <time>2018-03-21T18:20:53Z</time>
      </trkpt>
      <trkpt lat="62.636503048168" lon="17.934281875962">
        <ele>0</ele>
        <time>2018-03-21T18:20:54Z</time>
      </trkpt>
      <trkpt lat="62.636513106448" lon="17.934249521828">
        <ele>0</ele>
        <time>2018-03-21T18:20:55Z</time>
      </trkpt>
      <trkpt lat="62.636520566339" lon="17.934201242084">
        <ele>0</ele>
        <time>2018-03-21T18:20:56Z</time>
      </trkpt>
      <trkpt lat="62.636534312655" lon="17.934160589869">
        <ele>0</ele>
        <time>2018-03-21T18:20:57Z</time>
      </trkpt>
      <trkpt lat="62.636544957668" lon="17.934119350921">
        <ele>0</ele>
        <time>2018-03-21T18:20:58Z</time>
      </trkpt>
      <trkpt lat="62.636556776147" lon="17.934072915195">
        <ele>0</ele>
        <time>2018-03-21T18:20:59Z</time>
      </trkpt>
      <trkpt lat="62.636564655133" lon="17.93403729212">
        <ele>0</ele>
        <time>2018-03-21T18:21:00Z</time>
      </trkpt>
      <trkpt lat="62.636581251295" lon="17.933972667671">
        <ele>0</ele>
        <time>2018-03-21T18:21:01Z</time>
      </trkpt>
      <trkpt lat="62.636592902136" lon="17.933929249429">
        <ele>0</ele>
        <time>2018-03-21T18:21:02Z</time>
      </trkpt>
      <trkpt lat="62.636606983728" lon="17.933890441232">
        <ele>0</ele>
        <time>2018-03-21T18:21:03Z</time>
      </trkpt>
      <trkpt lat="62.636621987329" lon="17.933848196456">
        <ele>0</ele>
        <time>2018-03-21T18:21:04Z</time>
      </trkpt>
      <trkpt lat="62.636632716161" lon="17.933813746847">
        <ele>0</ele>
        <time>2018-03-21T18:21:05Z</time>
      </trkpt>
      <trkpt lat="62.636646378658" lon="17.933764461275">
        <ele>0</ele>
        <time>2018-03-21T18:21:06Z</time>
      </trkpt>
      <trkpt lat="62.63665710749" lon="17.933718528463">
        <ele>0</ele>
        <time>2018-03-21T18:21:07Z</time>
      </trkpt>
      <trkpt lat="62.636665321752" lon="17.933672595651">
        <ele>0</ele>
        <time>2018-03-21T18:21:08Z</time>
      </trkpt>
      <trkpt lat="62.636676637317" lon="17.933624567364">
        <ele>0</ele>
        <time>2018-03-21T18:21:09Z</time>
      </trkpt>
      <trkpt lat="62.636692395289" lon="17.933580730027">
        <ele>0</ele>
        <time>2018-03-21T18:21:10Z</time>
      </trkpt>
      <trkpt lat="62.636706225424" lon="17.933534629577">
        <ele>0</ele>
        <time>2018-03-21T18:21:11Z</time>
      </trkpt>
      <trkpt lat="62.636723240681" lon="17.933493725905">
        <ele>0</ele>
        <time>2018-03-21T18:21:12Z</time>
      </trkpt>
      <trkpt lat="62.636743357241" lon="17.933452906052">
        <ele>0</ele>
        <time>2018-03-21T18:21:13Z</time>
      </trkpt>
      <trkpt lat="62.636758696118" lon="17.933413846398">
        <ele>0</ele>
        <time>2018-03-21T18:21:14Z</time>
      </trkpt>
      <trkpt lat="62.636774286452" lon="17.933387024318">
        <ele>0</ele>
        <time>2018-03-21T18:21:15Z</time>
      </trkpt>
      <trkpt lat="62.636797755772" lon="17.933360202238">
        <ele>0</ele>
        <time>2018-03-21T18:21:16Z</time>
      </trkpt>
      <trkpt lat="62.636812759373" lon="17.93334913813">
        <ele>0</ele>
        <time>2018-03-21T18:21:17Z</time>
      </trkpt>
      <trkpt lat="62.636847292801" lon="17.933335475633">
        <ele>0</ele>
        <time>2018-03-21T18:21:18Z</time>
      </trkpt>
      <trkpt lat="62.636877719098" lon="17.93331644872">
        <ele>0</ele>
        <time>2018-03-21T18:21:19Z</time>
      </trkpt>
      <trkpt lat="62.63689515345" lon="17.933290632468">
        <ele>0</ele>
        <time>2018-03-21T18:21:20Z</time>
      </trkpt>
      <trkpt lat="62.63691275544" lon="17.933250986081">
        <ele>0</ele>
        <time>2018-03-21T18:21:21Z</time>
      </trkpt>
      <trkpt lat="62.636931363258" lon="17.933208238391">
        <ele>0</ele>
        <time>2018-03-21T18:21:22Z</time>
      </trkpt>
      <trkpt lat="62.63694544485" lon="17.933176135714">
        <ele>0</ele>
        <time>2018-03-21T18:21:23Z</time>
      </trkpt>
      <trkpt lat="62.636960029356" lon="17.933127353056">
        <ele>0</ele>
        <time>2018-03-21T18:21:24Z</time>
      </trkpt>
      <trkpt lat="62.636971680197" lon="17.933096340026">
        <ele>0</ele>
        <time>2018-03-21T18:21:25Z</time>
      </trkpt>
      <trkpt lat="62.636993137861" lon="17.933066919557">
        <ele>0</ele>
        <time>2018-03-21T18:21:26Z</time>
      </trkpt>
      <trkpt lat="62.637018115923" lon="17.933043031142">
        <ele>0</ele>
        <time>2018-03-21T18:21:27Z</time>
      </trkpt>
      <trkpt lat="62.637037897207" lon="17.93303816964">
        <ele>0</ele>
        <time>2018-03-21T18:21:28Z</time>
      </trkpt>
      <trkpt lat="62.637055666835" lon="17.933031212663">
        <ele>0</ele>
        <time>2018-03-21T18:21:29Z</time>
      </trkpt>
      <trkpt lat="62.63708123163" lon="17.933015957605">
        <ele>0</ele>
        <time>2018-03-21T18:21:30Z</time>
      </trkpt>
      <trkpt lat="62.637105874416" lon="17.933001959832">
        <ele>0</ele>
        <time>2018-03-21T18:21:31Z</time>
      </trkpt>
      <trkpt lat="62.63712649389" lon="17.932981843272">
        <ele>0</ele>
        <time>2018-03-21T18:21:32Z</time>
      </trkpt>
      <trkpt lat="62.637148538287" lon="17.932968516051">
        <ele>0</ele>
        <time>2018-03-21T18:21:33Z</time>
      </trkpt>
      <trkpt lat="62.637172761978" lon="17.932957032848">
        <ele>0</ele>
        <time>2018-03-21T18:21:34Z</time>
      </trkpt>
      <trkpt lat="62.637191956529" lon="17.932949489138">
        <ele>0</ele>
        <time>2018-03-21T18:21:35Z</time>
      </trkpt>
      <trkpt lat="62.637214084745" lon="17.932941693971">
        <ele>0</ele>
        <time>2018-03-21T18:21:36Z</time>
      </trkpt>
      <trkpt lat="62.637239481902" lon="17.932928199112">
        <ele>0</ele>
        <time>2018-03-21T18:21:37Z</time>
      </trkpt>
      <trkpt lat="62.637257838263" lon="17.932899784471">
        <ele>0</ele>
        <time>2018-03-21T18:21:38Z</time>
      </trkpt>
      <trkpt lat="62.63727988266" lon="17.932860640998">
        <ele>0</ele>
        <time>2018-03-21T18:21:39Z</time>
      </trkpt>
      <trkpt lat="62.637295137718" lon="17.93282191662">
        <ele>0</ele>
        <time>2018-03-21T18:21:40Z</time>
      </trkpt>
      <trkpt lat="62.637306537102" lon="17.932773720695">
        <ele>0</ele>
        <time>2018-03-21T18:21:41Z</time>
      </trkpt>
      <trkpt lat="62.637318523219" lon="17.932731559738">
        <ele>0</ele>
        <time>2018-03-21T18:21:42Z</time>
      </trkpt>
      <trkpt lat="62.63733687958" lon="17.932674059904">
        <ele>0</ele>
        <time>2018-03-21T18:21:43Z</time>
      </trkpt>
      <trkpt lat="62.637335538476" lon="17.932625277246">
        <ele>0</ele>
        <time>2018-03-21T18:21:44Z</time>
      </trkpt>
      <trkpt lat="62.637327240395" lon="17.932593006931">
        <ele>0</ele>
        <time>2018-03-21T18:21:45Z</time>
      </trkpt>
      <trkpt lat="62.6373184394" lon="17.93254279935">
        <ele>0</ele>
        <time>2018-03-21T18:21:46Z</time>
      </trkpt>
      <trkpt lat="62.637313996993" lon="17.932502147135">
        <ele>0</ele>
        <time>2018-03-21T18:21:47Z</time>
      </trkpt>
      <trkpt lat="62.637308297301" lon="17.932464931499">
        <ele>0</ele>
        <time>2018-03-21T18:21:48Z</time>
      </trkpt>
      <trkpt lat="62.637301005048" lon="17.9324128799">
        <ele>0</ele>
        <time>2018-03-21T18:21:49Z</time>
      </trkpt>
      <trkpt lat="62.637297149374" lon="17.932372060047">
        <ele>0</ele>
        <time>2018-03-21T18:21:50Z</time>
      </trkpt>
      <trkpt lat="62.637293042243" lon="17.932328725624">
        <ele>0</ele>
        <time>2018-03-21T18:21:51Z</time>
      </trkpt>
      <trkpt lat="62.637290862949" lon="17.932274662369">
        <ele>0</ele>
        <time>2018-03-21T18:21:52Z</time>
      </trkpt>
      <trkpt lat="62.637292036415" lon="17.932225041521">
        <ele>0</ele>
        <time>2018-03-21T18:21:53Z</time>
      </trkpt>
      <trkpt lat="62.637287761646" lon="17.932176845596">
        <ele>0</ele>
        <time>2018-03-21T18:21:54Z</time>
      </trkpt>
      <trkpt lat="62.637286923456" lon="17.932131667155">
        <ele>0</ele>
        <time>2018-03-21T18:21:55Z</time>
      </trkpt>
      <trkpt lat="62.637287929284" lon="17.932073496769">
        <ele>0</ele>
        <time>2018-03-21T18:21:56Z</time>
      </trkpt>
      <trkpt lat="62.63729413189" lon="17.932025133206">
        <ele>0</ele>
        <time>2018-03-21T18:21:57Z</time>
      </trkpt>
      <trkpt lat="62.63730251379" lon="17.931974255073">
        <ele>0</ele>
        <time>2018-03-21T18:21:58Z</time>
      </trkpt>
      <trkpt lat="62.6373100575" lon="17.931931255926">
        <ele>0</ele>
        <time>2018-03-21T18:21:59Z</time>
      </trkpt>
      <trkpt lat="62.637314499907" lon="17.931898901792">
        <ele>0</ele>
        <time>2018-03-21T18:22:00Z</time>
      </trkpt>
      <trkpt lat="62.637327408033" lon="17.931842156329">
        <ele>0</ele>
        <time>2018-03-21T18:22:01Z</time>
      </trkpt>
      <trkpt lat="62.637336376666" lon="17.931797899897">
        <ele>0</ele>
        <time>2018-03-21T18:22:02Z</time>
      </trkpt>
      <trkpt lat="62.637344171833" lon="17.931756241854">
        <ele>0</ele>
        <time>2018-03-21T18:22:03Z</time>
      </trkpt>
      <trkpt lat="62.637357163778" lon="17.931705615178">
        <ele>0</ele>
        <time>2018-03-21T18:22:04Z</time>
      </trkpt>
      <trkpt lat="62.637365713316" lon="17.93166772899">
        <ele>0</ele>
        <time>2018-03-21T18:22:05Z</time>
      </trkpt>
      <trkpt lat="62.63737459813" lon="17.931621125626">
        <ele>0</ele>
        <time>2018-03-21T18:22:06Z</time>
      </trkpt>
      <trkpt lat="62.63738465641" lon="17.931564715439">
        <ele>0</ele>
        <time>2018-03-21T18:22:07Z</time>
      </trkpt>
      <trkpt lat="62.637392451577" lon="17.931517190066">
        <ele>0</ele>
        <time>2018-03-21T18:22:08Z</time>
      </trkpt>
      <trkpt lat="62.637399324735" lon="17.931472346901">
        <ele>0</ele>
        <time>2018-03-21T18:22:09Z</time>
      </trkpt>
      <trkpt lat="62.637405443522" lon="17.931422306958">
        <ele>0</ele>
        <time>2018-03-21T18:22:10Z</time>
      </trkpt>
      <trkpt lat="62.637412065223" lon="17.931359861803">
        <ele>0</ele>
        <time>2018-03-21T18:22:11Z</time>
      </trkpt>
      <trkpt lat="62.637413657784" lon="17.931310492412">
        <ele>0</ele>
        <time>2018-03-21T18:22:12Z</time>
      </trkpt>
      <trkpt lat="62.637419944209" lon="17.93124947218">
        <ele>0</ele>
        <time>2018-03-21T18:22:13Z</time>
      </trkpt>
      <trkpt lat="62.637427655557" lon="17.931201108617">
        <ele>0</ele>
        <time>2018-03-21T18:22:14Z</time>
      </trkpt>
      <trkpt lat="62.637433941982" lon="17.931171352872">
        <ele>0</ele>
        <time>2018-03-21T18:22:15Z</time>
      </trkpt>
      <trkpt lat="62.637448861764" lon="17.931124749508">
        <ele>0</ele>
        <time>2018-03-21T18:22:16Z</time>
      </trkpt>
      <trkpt lat="62.637454812913" lon="17.931098095066">
        <ele>0</ele>
        <time>2018-03-21T18:22:17Z</time>
      </trkpt>
      <trkpt lat="62.637456908388" lon="17.931067920226">
        <ele>0</ele>
        <time>2018-03-21T18:22:18Z</time>
      </trkpt>
      <trkpt lat="62.637452968895" lon="17.931030872228">
        <ele>0</ele>
        <time>2018-03-21T18:22:19Z</time>
      </trkpt>
      <trkpt lat="62.637444335538" lon="17.930993991868">
        <ele>0</ele>
        <time>2018-03-21T18:22:20Z</time>
      </trkpt>
      <trkpt lat="62.637437630018" lon="17.930949986893">
        <ele>0</ele>
        <time>2018-03-21T18:22:21Z</time>
      </trkpt>
      <trkpt lat="62.637431846507" lon="17.930921991347">
        <ele>0</ele>
        <time>2018-03-21T18:22:22Z</time>
      </trkpt>
      <trkpt lat="62.637440396045" lon="17.93088402134">
        <ele>0</ele>
        <time>2018-03-21T18:22:23Z</time>
      </trkpt>
      <trkpt lat="62.637441150416" lon="17.930844123496">
        <ele>0</ele>
        <time>2018-03-21T18:22:24Z</time>
      </trkpt>
      <trkpt lat="62.637431678869" lon="17.930779918142">
        <ele>0</ele>
        <time>2018-03-21T18:22:25Z</time>
      </trkpt>
      <trkpt lat="62.637439725493" lon="17.93074152904">
        <ele>0</ele>
        <time>2018-03-21T18:22:26Z</time>
      </trkpt>
      <trkpt lat="62.637447185384" lon="17.930678832428">
        <ele>0</ele>
        <time>2018-03-21T18:22:27Z</time>
      </trkpt>
      <trkpt lat="62.637457662759" lon="17.930622757517">
        <ele>0</ele>
        <time>2018-03-21T18:22:28Z</time>
      </trkpt>
      <trkpt lat="62.637466547573" lon="17.930582524397">
        <ele>0</ele>
        <time>2018-03-21T18:22:29Z</time>
      </trkpt>
      <trkpt lat="62.637475097111" lon="17.930536340128">
        <ele>0</ele>
        <time>2018-03-21T18:22:30Z</time>
      </trkpt>
      <trkpt lat="62.637479874794" lon="17.930478588837">
        <ele>0</ele>
        <time>2018-03-21T18:22:31Z</time>
      </trkpt>
      <trkpt lat="62.637480880622" lon="17.930428297437">
        <ele>0</ele>
        <time>2018-03-21T18:22:32Z</time>
      </trkpt>
      <trkpt lat="62.637483898106" lon="17.930375742924">
        <ele>0</ele>
        <time>2018-03-21T18:22:33Z</time>
      </trkpt>
      <trkpt lat="62.637488424332" lon="17.930331737949">
        <ele>0</ele>
        <time>2018-03-21T18:22:34Z</time>
      </trkpt>
      <trkpt lat="62.637487837599" lon="17.930302233661">
        <ele>0</ele>
        <time>2018-03-21T18:22:35Z</time>
      </trkpt>
      <trkpt lat="62.637488005237" lon="17.930266359129">
        <ele>0</ele>
        <time>2018-03-21T18:22:36Z</time>
      </trkpt>
      <trkpt lat="62.637480293889" lon="17.930203746336">
        <ele>0</ele>
        <time>2018-03-21T18:22:37Z</time>
      </trkpt>
      <trkpt lat="62.637471995808" lon="17.930129817978">
        <ele>0</ele>
        <time>2018-03-21T18:22:38Z</time>
      </trkpt>
      <trkpt lat="62.637468559229" lon="17.930072066687">
        <ele>0</ele>
        <time>2018-03-21T18:22:39Z</time>
      </trkpt>
      <trkpt lat="62.63746679903" lon="17.930033761404">
        <ele>0</ele>
        <time>2018-03-21T18:22:40Z</time>
      </trkpt>
      <trkpt lat="62.637459590596" lon="17.929980787796">
        <ele>0</ele>
        <time>2018-03-21T18:22:41Z</time>
      </trkpt>
      <trkpt lat="62.637457746578" lon="17.929930831672">
        <ele>0</ele>
        <time>2018-03-21T18:22:42Z</time>
      </trkpt>
      <trkpt lat="62.637456237836" lon="17.929877019874">
        <ele>0</ele>
        <time>2018-03-21T18:22:43Z</time>
      </trkpt>
      <trkpt lat="62.637451376334" lon="17.929828572492">
        <ele>0</ele>
        <time>2018-03-21T18:22:44Z</time>
      </trkpt>
      <trkpt lat="62.637447353022" lon="17.92978263968">
        <ele>0</ele>
        <time>2018-03-21T18:22:45Z</time>
      </trkpt>
      <trkpt lat="62.637440144588" lon="17.929728827882">
        <ele>0</ele>
        <time>2018-03-21T18:22:46Z</time>
      </trkpt>
      <trkpt lat="62.637433606706" lon="17.929682811251">
        <ele>0</ele>
        <time>2018-03-21T18:22:47Z</time>
      </trkpt>
      <trkpt lat="62.637427823195" lon="17.9296300891">
        <ele>0</ele>
        <time>2018-03-21T18:22:48Z</time>
      </trkpt>
      <trkpt lat="62.637420195666" lon="17.929577534587">
        <ele>0</ele>
        <time>2018-03-21T18:22:49Z</time>
      </trkpt>
      <trkpt lat="62.637417010544" lon="17.929543504073">
        <ele>0</ele>
        <time>2018-03-21T18:22:50Z</time>
      </trkpt>
      <trkpt lat="62.637413322508" lon="17.929486423334">
        <ele>0</ele>
        <time>2018-03-21T18:22:51Z</time>
      </trkpt>
      <trkpt lat="62.63740896392" lon="17.929441663988">
        <ele>0</ele>
        <time>2018-03-21T18:22:52Z</time>
      </trkpt>
      <trkpt lat="62.637402090762" lon="17.929393803339">
        <ele>0</ele>
        <time>2018-03-21T18:22:53Z</time>
      </trkpt>
      <trkpt lat="62.63739722926" lon="17.929334794763">
        <ele>0</ele>
        <time>2018-03-21T18:22:54Z</time>
      </trkpt>
      <trkpt lat="62.637393708862" lon="17.929294980738">
        <ele>0</ele>
        <time>2018-03-21T18:22:55Z</time>
      </trkpt>
      <trkpt lat="62.637385829876" lon="17.929236726533">
        <ele>0</ele>
        <time>2018-03-21T18:22:56Z</time>
      </trkpt>
      <trkpt lat="62.637382812392" lon="17.929189536436">
        <ele>0</ele>
        <time>2018-03-21T18:22:57Z</time>
      </trkpt>
      <trkpt lat="62.637375352501" lon="17.929146621108">
        <ele>0</ele>
        <time>2018-03-21T18:22:58Z</time>
      </trkpt>
      <trkpt lat="62.637373173207" lon="17.929097503174">
        <ele>0</ele>
        <time>2018-03-21T18:22:59Z</time>
      </trkpt>
      <trkpt lat="62.637368479343" lon="17.929058359701">
        <ele>0</ele>
        <time>2018-03-21T18:23:00Z</time>
      </trkpt>
      <trkpt lat="62.637355822674" lon="17.928997004193">
        <ele>0</ele>
        <time>2018-03-21T18:23:01Z</time>
      </trkpt>
      <trkpt lat="62.637347273136" lon="17.928946545155">
        <ele>0</ele>
        <time>2018-03-21T18:23:02Z</time>
      </trkpt>
      <trkpt lat="62.637336963399" lon="17.928890554063">
        <ele>0</ele>
        <time>2018-03-21T18:23:03Z</time>
      </trkpt>
      <trkpt lat="62.637331682802" lon="17.928850153305">
        <ele>0</ele>
        <time>2018-03-21T18:23:04Z</time>
      </trkpt>
      <trkpt lat="62.637323636178" lon="17.928803214665">
        <ele>0</ele>
        <time>2018-03-21T18:23:05Z</time>
      </trkpt>
      <trkpt lat="62.637317182115" lon="17.928749821962">
        <ele>0</ele>
        <time>2018-03-21T18:23:06Z</time>
      </trkpt>
      <trkpt lat="62.637310308957" lon="17.928699446743">
        <ele>0</ele>
        <time>2018-03-21T18:23:07Z</time>
      </trkpt>
      <trkpt lat="62.637304609265" lon="17.928649071524">
        <ele>0</ele>
        <time>2018-03-21T18:23:08Z</time>
      </trkpt>
      <trkpt lat="62.637294215709" lon="17.928601462332">
        <ele>0</ele>
        <time>2018-03-21T18:23:09Z</time>
      </trkpt>
      <trkpt lat="62.637286923456" lon="17.928561983583">
        <ele>0</ele>
        <time>2018-03-21T18:23:10Z</time>
      </trkpt>
      <trkpt lat="62.637278709194" lon="17.928503729378">
        <ele>0</ele>
        <time>2018-03-21T18:23:11Z</time>
      </trkpt>
      <trkpt lat="62.637270746389" lon="17.928455281996">
        <ele>0</ele>
        <time>2018-03-21T18:23:12Z</time>
      </trkpt>
      <trkpt lat="62.637262783584" lon="17.928408259537">
        <ele>0</ele>
        <time>2018-03-21T18:23:13Z</time>
      </trkpt>
      <trkpt lat="62.637255323693" lon="17.928355537386">
        <ele>0</ele>
        <time>2018-03-21T18:23:14Z</time>
      </trkpt>
      <trkpt lat="62.637247612345" lon="17.928312035325">
        <ele>0</ele>
        <time>2018-03-21T18:23:15Z</time>
      </trkpt>
      <trkpt lat="62.637239900997" lon="17.928265599599">
        <ele>0</ele>
        <time>2018-03-21T18:23:16Z</time>
      </trkpt>
      <trkpt lat="62.637233614572" lon="17.928212793629">
        <ele>0</ele>
        <time>2018-03-21T18:23:17Z</time>
      </trkpt>
      <trkpt lat="62.63722791488" lon="17.928173985432">
        <ele>0</ele>
        <time>2018-03-21T18:23:18Z</time>
      </trkpt>
      <trkpt lat="62.637220790265" lon="17.928128220258">
        <ele>0</ele>
        <time>2018-03-21T18:23:19Z</time>
      </trkpt>
      <trkpt lat="62.637215844944" lon="17.928078431772">
        <ele>0</ele>
        <time>2018-03-21T18:23:20Z</time>
      </trkpt>
      <trkpt lat="62.637207127768" lon="17.928026212535">
        <ele>0</ele>
        <time>2018-03-21T18:23:21Z</time>
      </trkpt>
      <trkpt lat="62.637202266266" lon="17.927981620827">
        <ele>0</ele>
        <time>2018-03-21T18:23:22Z</time>
      </trkpt>
      <trkpt lat="62.637198913506" lon="17.927947171218">
        <ele>0</ele>
        <time>2018-03-21T18:23:23Z</time>
      </trkpt>
      <trkpt lat="62.637190028692" lon="17.927885312796">
        <ele>0</ele>
        <time>2018-03-21T18:23:24Z</time>
      </trkpt>
      <trkpt lat="62.637186089199" lon="17.927841978373">
        <ele>0</ele>
        <time>2018-03-21T18:23:25Z</time>
      </trkpt>
      <trkpt lat="62.637180054231" lon="17.927784646177">
        <ele>0</ele>
        <time>2018-03-21T18:23:26Z</time>
      </trkpt>
      <trkpt lat="62.637173935444" lon="17.927742317582">
        <ele>0</ele>
        <time>2018-03-21T18:23:27Z</time>
      </trkpt>
      <trkpt lat="62.637168151933" lon="17.927692529096">
        <ele>0</ele>
        <time>2018-03-21T18:23:28Z</time>
      </trkpt>
      <trkpt lat="62.637164296259" lon="17.927645841913">
        <ele>0</ele>
        <time>2018-03-21T18:23:29Z</time>
      </trkpt>
      <trkpt lat="62.637160105309" lon="17.927607368992">
        <ele>0</ele>
        <time>2018-03-21T18:23:30Z</time>
      </trkpt>
      <trkpt lat="62.637154405617" lon="17.927555065936">
        <ele>0</ele>
        <time>2018-03-21T18:23:31Z</time>
      </trkpt>
      <trkpt lat="62.637145939898" lon="17.927502092328">
        <ele>0</ele>
        <time>2018-03-21T18:23:32Z</time>
      </trkpt>
      <trkpt lat="62.637141748948" lon="17.927462110665">
        <ele>0</ele>
        <time>2018-03-21T18:23:33Z</time>
      </trkpt>
      <trkpt lat="62.637137641817" lon="17.927409556152">
        <ele>0</ele>
        <time>2018-03-21T18:23:34Z</time>
      </trkpt>
      <trkpt lat="62.637133869962" lon="17.927364293892">
        <ele>0</ele>
        <time>2018-03-21T18:23:35Z</time>
      </trkpt>
      <trkpt lat="62.637127415899" lon="17.927321462383">
        <ele>0</ele>
        <time>2018-03-21T18:23:36Z</time>
      </trkpt>
      <trkpt lat="62.637124733691" lon="17.927272763544">
        <ele>0</ele>
        <time>2018-03-21T18:23:37Z</time>
      </trkpt>
      <trkpt lat="62.637122973492" lon="17.92722364561">
        <ele>0</ele>
        <time>2018-03-21T18:23:38Z</time>
      </trkpt>
      <trkpt lat="62.637116687067" lon="17.927181233196">
        <ele>0</ele>
        <time>2018-03-21T18:23:39Z</time>
      </trkpt>
      <trkpt lat="62.637112579936" lon="17.927135468022">
        <ele>0</ele>
        <time>2018-03-21T18:23:40Z</time>
      </trkpt>
      <trkpt lat="62.637106628787" lon="17.927077968188">
        <ele>0</ele>
        <time>2018-03-21T18:23:41Z</time>
      </trkpt>
      <trkpt lat="62.637095899955" lon="17.927037232154">
        <ele>0</ele>
        <time>2018-03-21T18:23:42Z</time>
      </trkpt>
      <trkpt lat="62.637093636842" lon="17.926981324881">
        <ele>0</ele>
        <time>2018-03-21T18:23:43Z</time>
      </trkpt>
      <trkpt lat="62.637090367901" lon="17.926932458404">
        <ele>0</ele>
        <time>2018-03-21T18:23:44Z</time>
      </trkpt>
      <trkpt lat="62.63708039344" lon="17.926894320759">
        <ele>0</ele>
        <time>2018-03-21T18:23:45Z</time>
      </trkpt>
      <trkpt lat="62.637074190834" lon="17.926834222536">
        <ele>0</ele>
        <time>2018-03-21T18:23:46Z</time>
      </trkpt>
      <trkpt lat="62.637072682092" lon="17.926794073235">
        <ele>0</ele>
        <time>2018-03-21T18:23:47Z</time>
      </trkpt>
      <trkpt lat="62.637066060391" lon="17.926755684133">
        <ele>0</ele>
        <time>2018-03-21T18:23:48Z</time>
      </trkpt>
      <trkpt lat="62.637060612156" lon="17.926696507919">
        <ele>0</ele>
        <time>2018-03-21T18:23:49Z</time>
      </trkpt>
      <trkpt lat="62.63705524774" lon="17.926658034998">
        <ele>0</ele>
        <time>2018-03-21T18:23:50Z</time>
      </trkpt>
      <trkpt lat="62.637048290763" lon="17.926609000883">
        <ele>0</ele>
        <time>2018-03-21T18:23:51Z</time>
      </trkpt>
      <trkpt lat="62.637043177804" lon="17.926555775818">
        <ele>0</ele>
        <time>2018-03-21T18:23:52Z</time>
      </trkpt>
      <trkpt lat="62.637039238311" lon="17.926521074752">
        <ele>0</ele>
        <time>2018-03-21T18:23:53Z</time>
      </trkpt>
      <trkpt lat="62.637033957714" lon="17.926474722845">
        <ele>0</ele>
        <time>2018-03-21T18:23:54Z</time>
      </trkpt>
      <trkpt lat="62.637029934402" lon="17.926424682902">
        <ele>0</ele>
        <time>2018-03-21T18:23:55Z</time>
      </trkpt>
      <trkpt lat="62.637023731796" lon="17.926381599936">
        <ele>0</ele>
        <time>2018-03-21T18:23:56Z</time>
      </trkpt>
      <trkpt lat="62.637016607181" lon="17.926337762599">
        <ele>0</ele>
        <time>2018-03-21T18:23:57Z</time>
      </trkpt>
      <trkpt lat="62.63701250005" lon="17.926287303561">
        <ele>0</ele>
        <time>2018-03-21T18:23:58Z</time>
      </trkpt>
      <trkpt lat="62.637007638548" lon="17.926246735165">
        <ele>0</ele>
        <time>2018-03-21T18:23:59Z</time>
      </trkpt>
      <trkpt lat="62.637001352123" lon="17.926208346063">
        <ele>0</ele>
        <time>2018-03-21T18:24:00Z</time>
      </trkpt>
      <trkpt lat="62.636995568612" lon="17.92614992422">
        <ele>0</ele>
        <time>2018-03-21T18:24:01Z</time>
      </trkpt>
      <trkpt lat="62.636993054042" lon="17.926106422159">
        <ele>0</ele>
        <time>2018-03-21T18:24:02Z</time>
      </trkpt>
      <trkpt lat="62.636989952739" lon="17.9260593997">
        <ele>0</ele>
        <time>2018-03-21T18:24:03Z</time>
      </trkpt>
      <trkpt lat="62.636992551128" lon="17.926009611214">
        <ele>0</ele>
        <time>2018-03-21T18:24:04Z</time>
      </trkpt>
      <trkpt lat="62.636996909716" lon="17.925976167433">
        <ele>0</ele>
        <time>2018-03-21T18:24:05Z</time>
      </trkpt>
      <trkpt lat="62.637002609408" lon="17.925929061155">
        <ele>0</ele>
        <time>2018-03-21T18:24:06Z</time>
      </trkpt>
      <trkpt lat="62.63701585281" lon="17.92587667428">
        <ele>0</ele>
        <time>2018-03-21T18:24:07Z</time>
      </trkpt>
      <trkpt lat="62.637026581642" lon="17.925836776436">
        <ele>0</ele>
        <time>2018-03-21T18:24:08Z</time>
      </trkpt>
      <trkpt lat="62.63703680756" lon="17.925794364022">
        <ele>0</ele>
        <time>2018-03-21T18:24:09Z</time>
      </trkpt>
      <trkpt lat="62.637054996283" lon="17.925762764259">
        <ele>0</ele>
        <time>2018-03-21T18:24:10Z</time>
      </trkpt>
      <trkpt lat="62.637073352644" lon="17.925725297166">
        <ele>0</ele>
        <time>2018-03-21T18:24:11Z</time>
      </trkpt>
      <trkpt lat="62.637085757856" lon="17.925693026851">
        <ele>0</ele>
        <time>2018-03-21T18:24:12Z</time>
      </trkpt>
      <trkpt lat="62.637104449493" lon="17.925663606382">
        <ele>0</ele>
        <time>2018-03-21T18:24:13Z</time>
      </trkpt>
      <trkpt lat="62.637114843049" lon="17.925635610836">
        <ele>0</ele>
        <time>2018-03-21T18:24:14Z</time>
      </trkpt>
      <trkpt lat="62.637117860533" lon="17.925608621118">
        <ele>0</ele>
        <time>2018-03-21T18:24:15Z</time>
      </trkpt>
      <trkpt lat="62.637121045655" lon="17.925571321663">
        <ele>0</ele>
        <time>2018-03-21T18:24:16Z</time>
      </trkpt>
      <trkpt lat="62.637128421727" lon="17.92549697421">
        <ele>0</ele>
        <time>2018-03-21T18:24:17Z</time>
      </trkpt>
      <trkpt lat="62.637132864134" lon="17.925451209036">
        <ele>0</ele>
        <time>2018-03-21T18:24:18Z</time>
      </trkpt>
      <trkpt lat="62.637138563826" lon="17.925392535736">
        <ele>0</ele>
        <time>2018-03-21T18:24:19Z</time>
      </trkpt>
      <trkpt lat="62.637144850251" lon="17.925334784445">
        <ele>0</ele>
        <time>2018-03-21T18:24:20Z</time>
      </trkpt>
      <trkpt lat="62.637147867735" lon="17.925289354547">
        <ele>0</ele>
        <time>2018-03-21T18:24:21Z</time>
      </trkpt>
      <trkpt lat="62.637150717581" lon="17.925241661536">
        <ele>0</ele>
        <time>2018-03-21T18:24:22Z</time>
      </trkpt>
      <trkpt lat="62.637157758377" lon="17.925194639077">
        <ele>0</ele>
        <time>2018-03-21T18:24:23Z</time>
      </trkpt>
      <trkpt lat="62.637160775861" lon="17.925158680726">
        <ele>0</ele>
        <time>2018-03-21T18:24:24Z</time>
      </trkpt>
      <trkpt lat="62.637164044802" lon="17.925120710719">
        <ele>0</ele>
        <time>2018-03-21T18:24:25Z</time>
      </trkpt>
      <trkpt lat="62.637171923788" lon="17.925064384351">
        <ele>0</ele>
        <time>2018-03-21T18:24:26Z</time>
      </trkpt>
      <trkpt lat="62.637174438358" lon="17.92501417677">
        <ele>0</ele>
        <time>2018-03-21T18:24:27Z</time>
      </trkpt>
      <trkpt lat="62.637176282376" lon="17.924978386057">
        <ele>0</ele>
        <time>2018-03-21T18:24:28Z</time>
      </trkpt>
      <trkpt lat="62.637182568801" lon="17.924926921191">
        <ele>0</ele>
        <time>2018-03-21T18:24:29Z</time>
      </trkpt>
      <trkpt lat="62.637187597941" lon="17.924894483238">
        <ele>0</ele>
        <time>2018-03-21T18:24:30Z</time>
      </trkpt>
      <trkpt lat="62.637192794719" lon="17.924844108019">
        <ele>0</ele>
        <time>2018-03-21T18:24:31Z</time>
      </trkpt>
      <trkpt lat="62.637194974013" lon="17.924795073904">
        <ele>0</ele>
        <time>2018-03-21T18:24:32Z</time>
      </trkpt>
      <trkpt lat="62.637198745868" lon="17.924753834956">
        <ele>0</ele>
        <time>2018-03-21T18:24:33Z</time>
      </trkpt>
      <trkpt lat="62.637206792492" lon="17.924713350379">
        <ele>0</ele>
        <time>2018-03-21T18:24:34Z</time>
      </trkpt>
      <trkpt lat="62.637206373397" lon="17.924662807522">
        <ele>0</ele>
        <time>2018-03-21T18:24:35Z</time>
      </trkpt>
      <trkpt lat="62.637204864655" lon="17.924612264665">
        <ele>0</ele>
        <time>2018-03-21T18:24:36Z</time>
      </trkpt>
      <trkpt lat="62.637213833288" lon="17.92455484865">
        <ele>0.2</ele>
        <time>2018-03-21T18:24:37Z</time>
      </trkpt>
      <trkpt lat="62.637229423622" lon="17.924518555023">
        <ele>0.4</ele>
        <time>2018-03-21T18:24:38Z</time>
      </trkpt>
      <trkpt lat="62.637240403911" lon="17.924481507025">
        <ele>0.2</ele>
        <time>2018-03-21T18:24:39Z</time>
      </trkpt>
      <trkpt lat="62.637260436652" lon="17.924458875895">
        <ele>0.2</ele>
        <time>2018-03-21T18:24:40Z</time>
      </trkpt>
      <trkpt lat="62.637283403058" lon="17.9244333111">
        <ele>0.4</ele>
        <time>2018-03-21T18:24:41Z</time>
      </trkpt>
      <trkpt lat="62.637302262333" lon="17.924416966395">
        <ele>0.4</ele>
        <time>2018-03-21T18:24:42Z</time>
      </trkpt>
      <trkpt lat="62.637320534875" lon="17.924391233962">
        <ele>0.4</ele>
        <time>2018-03-21T18:24:43Z</time>
      </trkpt>
      <trkpt lat="62.637327408033" lon="17.92435452124">
        <ele>0.4</ele>
        <time>2018-03-21T18:24:44Z</time>
      </trkpt>
      <trkpt lat="62.637337214856" lon="17.924341194019">
        <ele>0.6</ele>
        <time>2018-03-21T18:24:45Z</time>
      </trkpt>
      <trkpt lat="62.637333359182" lon="17.924359215104">
        <ele>0.6</ele>
        <time>2018-03-21T18:24:46Z</time>
      </trkpt>
      <trkpt lat="62.637331179888" lon="17.924356868172">
        <ele>0.6</ele>
        <time>2018-03-21T18:24:47Z</time>
      </trkpt>
      <trkpt lat="62.637331682802" lon="17.924355275611">
        <ele>0.6</ele>
        <time>2018-03-21T18:24:48Z</time>
      </trkpt>
      <trkpt lat="62.637335370838" lon="17.924363322235">
        <ele>0.6</ele>
        <time>2018-03-21T18:24:49Z</time>
      </trkpt>
      <trkpt lat="62.637367724972" lon="17.924357706362">
        <ele>0.8</ele>
        <time>2018-03-21T18:24:50Z</time>
      </trkpt>
      <trkpt lat="62.637388176808" lon="17.924340439648">
        <ele>0.8</ele>
        <time>2018-03-21T18:24:51Z</time>
      </trkpt>
      <trkpt lat="62.637413657784" lon="17.92430925898">
        <ele>0.8</ele>
        <time>2018-03-21T18:24:52Z</time>
      </trkpt>
      <trkpt lat="62.637431678869" lon="17.924269612593">
        <ele>0.8</ele>
        <time>2018-03-21T18:24:53Z</time>
      </trkpt>
      <trkpt lat="62.6374525498" lon="17.924255698639">
        <ele>1</ele>
        <time>2018-03-21T18:24:54Z</time>
      </trkpt>
      <trkpt lat="62.637470654704" lon="17.924238431925">
        <ele>1</ele>
        <time>2018-03-21T18:24:55Z</time>
      </trkpt>
      <trkpt lat="62.637492950558" lon="17.924208173266">
        <ele>1.4</ele>
        <time>2018-03-21T18:24:56Z</time>
      </trkpt>
      <trkpt lat="62.637515497869" lon="17.924189900724">
        <ele>1.4</ele>
        <time>2018-03-21T18:24:57Z</time>
      </trkpt>
      <trkpt lat="62.637533686592" lon="17.924172131096">
        <ele>1.6</ele>
        <time>2018-03-21T18:24:58Z</time>
      </trkpt>
      <trkpt lat="62.637546846175" lon="17.924156289305">
        <ele>1.6</ele>
        <time>2018-03-21T18:24:59Z</time>
      </trkpt>
      <trkpt lat="62.637564364346" lon="17.924137932944">
        <ele>1.8</ele>
        <time>2018-03-21T18:25:00Z</time>
      </trkpt>
      <trkpt lat="62.637583391259" lon="17.924113876891">
        <ele>1.8</ele>
        <time>2018-03-21T18:25:01Z</time>
      </trkpt>
      <trkpt lat="62.637600825611" lon="17.924086635716">
        <ele>2</ele>
        <time>2018-03-21T18:25:02Z</time>
      </trkpt>
      <trkpt lat="62.637623875836" lon="17.924059059265">
        <ele>2.2</ele>
        <time>2018-03-21T18:25:03Z</time>
      </trkpt>
      <trkpt lat="62.637642567473" lon="17.924036092859">
        <ele>2.2</ele>
        <time>2018-03-21T18:25:04Z</time>
      </trkpt>
      <trkpt lat="62.637661845843" lon="17.924013042634">
        <ele>2.4</ele>
        <time>2018-03-21T18:25:05Z</time>
      </trkpt>
      <trkpt lat="62.637685985715" lon="17.923997619938">
        <ele>2.4</ele>
        <time>2018-03-21T18:25:06Z</time>
      </trkpt>
      <trkpt lat="62.637700905497" lon="17.923976246093">
        <ele>2.6</ele>
        <time>2018-03-21T18:25:07Z</time>
      </trkpt>
      <trkpt lat="62.637718004573" lon="17.923943389045">
        <ele>2.6</ele>
        <time>2018-03-21T18:25:08Z</time>
      </trkpt>
      <trkpt lat="62.637736444753" lon="17.923918746259">
        <ele>2.6</ele>
        <time>2018-03-21T18:25:09Z</time>
      </trkpt>
      <trkpt lat="62.637751615992" lon="17.92389351674">
        <ele>2.6</ele>
        <time>2018-03-21T18:25:10Z</time>
      </trkpt>
      <trkpt lat="62.637769134163" lon="17.923866107927">
        <ele>2.6</ele>
        <time>2018-03-21T18:25:11Z</time>
      </trkpt>
      <trkpt lat="62.637789083085" lon="17.923849763222">
        <ele>2.6</ele>
        <time>2018-03-21T18:25:12Z</time>
      </trkpt>
      <trkpt lat="62.637811043663" lon="17.92382897611">
        <ele>2.8</ele>
        <time>2018-03-21T18:25:13Z</time>
      </trkpt>
      <trkpt lat="62.63782638254" lon="17.92381053593">
        <ele>2.8</ele>
        <time>2018-03-21T18:25:14Z</time>
      </trkpt>
      <trkpt lat="62.637850187136" lon="17.923797627804">
        <ele>3</ele>
        <time>2018-03-21T18:25:15Z</time>
      </trkpt>
      <trkpt lat="62.637869633144" lon="17.923783881488">
        <ele>3.2</ele>
        <time>2018-03-21T18:25:16Z</time>
      </trkpt>
      <trkpt lat="62.637890504075" lon="17.923782205108">
        <ele>3.4</ele>
        <time>2018-03-21T18:25:17Z</time>
      </trkpt>
      <trkpt lat="62.637913386662" lon="17.923776840692">
        <ele>3.6</ele>
        <time>2018-03-21T18:25:18Z</time>
      </trkpt>
      <trkpt lat="62.637935514878" lon="17.923774409941">
        <ele>3.6</ele>
        <time>2018-03-21T18:25:19Z</time>
      </trkpt>
      <trkpt lat="62.637950099384" lon="17.923773236475">
        <ele>3.8</ele>
        <time>2018-03-21T18:25:20Z</time>
      </trkpt>
      <trkpt lat="62.63797474217" lon="17.92377533195">
        <ele>4</ele>
        <time>2018-03-21T18:25:21Z</time>
      </trkpt>
      <trkpt lat="62.637992763255" lon="17.923756975589">
        <ele>4.2</ele>
        <time>2018-03-21T18:25:22Z</time>
      </trkpt>
      <trkpt lat="62.638011371073" lon="17.923741720531">
        <ele>4.4</ele>
        <time>2018-03-21T18:25:23Z</time>
      </trkpt>
      <trkpt lat="62.638033750746" lon="17.923719089401">
        <ele>4.4</ele>
        <time>2018-03-21T18:25:24Z</time>
      </trkpt>
      <trkpt lat="62.638049173442" lon="17.923693524606">
        <ele>4.6</ele>
        <time>2018-03-21T18:25:25Z</time>
      </trkpt>
      <trkpt lat="62.638068116536" lon="17.923663936499">
        <ele>4.6</ele>
        <time>2018-03-21T18:25:26Z</time>
      </trkpt>
      <trkpt lat="62.63808286868" lon="17.923633929297">
        <ele>4.8</ele>
        <time>2018-03-21T18:25:27Z</time>
      </trkpt>
      <trkpt lat="62.638097620824" lon="17.923600736973">
        <ele>4.8</ele>
        <time>2018-03-21T18:25:28Z</time>
      </trkpt>
      <trkpt lat="62.638111115683" lon="17.92356494626">
        <ele>4.8</ele>
        <time>2018-03-21T18:25:29Z</time>
      </trkpt>
      <trkpt lat="62.638130058777" lon="17.923534687601">
        <ele>4.8</ele>
        <time>2018-03-21T18:25:30Z</time>
      </trkpt>
      <trkpt lat="62.638149169509" lon="17.923505350951">
        <ele>4.8</ele>
        <time>2018-03-21T18:25:31Z</time>
      </trkpt>
      <trkpt lat="62.638160317436" lon="17.923476601034">
        <ele>5</ele>
        <time>2018-03-21T18:25:32Z</time>
      </trkpt>
      <trkpt lat="62.638175572494" lon="17.923451120058">
        <ele>5</ele>
        <time>2018-03-21T18:25:33Z</time>
      </trkpt>
      <trkpt lat="62.638192503932" lon="17.923426561091">
        <ele>5</ele>
        <time>2018-03-21T18:25:34Z</time>
      </trkpt>
      <trkpt lat="62.638205831153" lon="17.923403007952">
        <ele>5.2</ele>
        <time>2018-03-21T18:25:35Z</time>
      </trkpt>
      <trkpt lat="62.638225193342" lon="17.923372916931">
        <ele>5.2</ele>
        <time>2018-03-21T18:25:36Z</time>
      </trkpt>
      <trkpt lat="62.638239442572" lon="17.92334031134">
        <ele>5.4</ele>
        <time>2018-03-21T18:25:37Z</time>
      </trkpt>
      <trkpt lat="62.638254194716" lon="17.923313908355">
        <ele>5.4</ele>
        <time>2018-03-21T18:25:38Z</time>
      </trkpt>
      <trkpt lat="62.638273305448" lon="17.923282643868">
        <ele>5.8</ele>
        <time>2018-03-21T18:25:39Z</time>
      </trkpt>
      <trkpt lat="62.638286213574" lon="17.923259677462">
        <ele>5.8</ele>
        <time>2018-03-21T18:25:40Z</time>
      </trkpt>
      <trkpt lat="62.638301217175" lon="17.923222629464">
        <ele>6</ele>
        <time>2018-03-21T18:25:41Z</time>
      </trkpt>
      <trkpt lat="62.638314041482" lon="17.923186000561">
        <ele>6</ele>
        <time>2018-03-21T18:25:42Z</time>
      </trkpt>
      <trkpt lat="62.638331894929" lon="17.923158340291">
        <ele>6</ele>
        <time>2018-03-21T18:25:43Z</time>
      </trkpt>
      <trkpt lat="62.638343881046" lon="17.92312908746">
        <ele>6</ele>
        <time>2018-03-21T18:25:44Z</time>
      </trkpt>
      <trkpt lat="62.638359806656" lon="17.92310477995">
        <ele>6</ele>
        <time>2018-03-21T18:25:45Z</time>
      </trkpt>
      <trkpt lat="62.638371373678" lon="17.923070246522">
        <ele>6.2</ele>
        <time>2018-03-21T18:25:46Z</time>
      </trkpt>
      <trkpt lat="62.638381683415" lon="17.923041664243">
        <ele>6.4</ele>
        <time>2018-03-21T18:25:47Z</time>
      </trkpt>
      <trkpt lat="62.638400123595" lon="17.923011992317">
        <ele>6.4</ele>
        <time>2018-03-21T18:25:48Z</time>
      </trkpt>
      <trkpt lat="62.638416049205" lon="17.922981314563">
        <ele>6.6</ele>
        <time>2018-03-21T18:25:49Z</time>
      </trkpt>
      <trkpt lat="62.638429544064" lon="17.922952145551">
        <ele>6.6</ele>
        <time>2018-03-21T18:25:50Z</time>
      </trkpt>
      <trkpt lat="62.638444380027" lon="17.922923647091">
        <ele>6.8</ele>
        <time>2018-03-21T18:25:51Z</time>
      </trkpt>
      <trkpt lat="62.638456617601" lon="17.922900093952">
        <ele>7</ele>
        <time>2018-03-21T18:25:52Z</time>
      </trkpt>
      <trkpt lat="62.638466256786" lon="17.922863297411">
        <ele>7</ele>
        <time>2018-03-21T18:25:53Z</time>
      </trkpt>
      <trkpt lat="62.638483104405" lon="17.922842258842">
        <ele>7</ele>
        <time>2018-03-21T18:25:54Z</time>
      </trkpt>
      <trkpt lat="62.638495509617" lon="17.922817364599">
        <ele>7.2</ele>
        <time>2018-03-21T18:25:55Z</time>
      </trkpt>
      <trkpt lat="62.638513614521" lon="17.922784926646">
        <ele>7.4</ele>
        <time>2018-03-21T18:25:56Z</time>
      </trkpt>
      <trkpt lat="62.638528282846" lon="17.922753745978">
        <ele>7.6</ele>
        <time>2018-03-21T18:25:57Z</time>
      </trkpt>
      <trkpt lat="62.638542364438" lon="17.922724325509">
        <ele>7.6</ele>
        <time>2018-03-21T18:25:58Z</time>
      </trkpt>
      <trkpt lat="62.638555188745" lon="17.922688367158">
        <ele>7.8</ele>
        <time>2018-03-21T18:25:59Z</time>
      </trkpt>
      <trkpt lat="62.638567761595" lon="17.922660120155">
        <ele>8</ele>
        <time>2018-03-21T18:26:00Z</time>
      </trkpt>
      <trkpt lat="62.638587207603" lon="17.922636818473">
        <ele>8</ele>
        <time>2018-03-21T18:26:01Z</time>
      </trkpt>
      <trkpt lat="62.638606905068" lon="17.922619803216">
        <ele>8.2</ele>
        <time>2018-03-21T18:26:02Z</time>
      </trkpt>
      <trkpt lat="62.638624004144" lon="17.922589544557">
        <ele>8.2</ele>
        <time>2018-03-21T18:26:03Z</time>
      </trkpt>
      <trkpt lat="62.638634732976" lon="17.922556855147">
        <ele>8.4</ele>
        <time>2018-03-21T18:26:04Z</time>
      </trkpt>
      <trkpt lat="62.638647054369" lon="17.92251720876">
        <ele>8.4</ele>
        <time>2018-03-21T18:26:05Z</time>
      </trkpt>
      <trkpt lat="62.638663818169" lon="17.922493404164">
        <ele>8.6</ele>
        <time>2018-03-21T18:26:06Z</time>
      </trkpt>
      <trkpt lat="62.638678989408" lon="17.922466162989">
        <ele>8.8</ele>
        <time>2018-03-21T18:26:07Z</time>
      </trkpt>
      <trkpt lat="62.638692819543" lon="17.922435317597">
        <ele>8.8</ele>
        <time>2018-03-21T18:26:08Z</time>
      </trkpt>
      <trkpt lat="62.638709583343" lon="17.922411345363">
        <ele>9</ele>
        <time>2018-03-21T18:26:09Z</time>
      </trkpt>
      <trkpt lat="62.638720312175" lon="17.922387037853">
        <ele>9</ele>
        <time>2018-03-21T18:26:10Z</time>
      </trkpt>
      <trkpt lat="62.638733639396" lon="17.922342529964">
        <ele>9.2</ele>
        <time>2018-03-21T18:26:11Z</time>
      </trkpt>
      <trkpt lat="62.638748810635" lon="17.922311600753">
        <ele>9.2</ele>
        <time>2018-03-21T18:26:12Z</time>
      </trkpt>
      <trkpt lat="62.638760042381" lon="17.922287377062">
        <ele>9.4</ele>
        <time>2018-03-21T18:26:13Z</time>
      </trkpt>
      <trkpt lat="62.63877521362" lon="17.922265416484">
        <ele>9.4</ele>
        <time>2018-03-21T18:26:14Z</time>
      </trkpt>
      <trkpt lat="62.638789798126" lon="17.922236331291">
        <ele>9.6</ele>
        <time>2018-03-21T18:26:15Z</time>
      </trkpt>
      <trkpt lat="62.638803376804" lon="17.92220288751">
        <ele>9.6</ele>
        <time>2018-03-21T18:26:16Z</time>
      </trkpt>
      <trkpt lat="62.638821565527" lon="17.922173467041">
        <ele>10</ele>
        <time>2018-03-21T18:26:17Z</time>
      </trkpt>
      <trkpt lat="62.63883891606" lon="17.922156367965">
        <ele>10</ele>
        <time>2018-03-21T18:26:18Z</time>
      </trkpt>
      <trkpt lat="62.638855260765" lon="17.922133066283">
        <ele>10.2</ele>
        <time>2018-03-21T18:26:19Z</time>
      </trkpt>
      <trkpt lat="62.638869677633" lon="17.92209559919">
        <ele>10.4</ele>
        <time>2018-03-21T18:26:20Z</time>
      </trkpt>
      <trkpt lat="62.63888501651" lon="17.922057210088">
        <ele>10.6</ele>
        <time>2018-03-21T18:26:21Z</time>
      </trkpt>
      <trkpt lat="62.638902786138" lon="17.922026280877">
        <ele>10.6</ele>
        <time>2018-03-21T18:26:22Z</time>
      </trkpt>
      <trkpt lat="62.638918460291" lon="17.921991915087">
        <ele>10.8</ele>
        <time>2018-03-21T18:26:23Z</time>
      </trkpt>
      <trkpt lat="62.63893111696" lon="17.921970625061">
        <ele>10.8</ele>
        <time>2018-03-21T18:26:24Z</time>
      </trkpt>
      <trkpt lat="62.638945617647" lon="17.921946317551">
        <ele>10.8</ele>
        <time>2018-03-21T18:26:25Z</time>
      </trkpt>
      <trkpt lat="62.638961543257" lon="17.921920752756">
        <ele>10.8</ele>
        <time>2018-03-21T18:26:26Z</time>
      </trkpt>
      <trkpt lat="62.638976463039" lon="17.921889991183">
        <ele>11</ele>
        <time>2018-03-21T18:26:27Z</time>
      </trkpt>
      <trkpt lat="62.638982581826" lon="17.921863588198">
        <ele>11.2</ele>
        <time>2018-03-21T18:26:28Z</time>
      </trkpt>
      <trkpt lat="62.638998926531" lon="17.921845650932">
        <ele>11.4</ele>
        <time>2018-03-21T18:26:29Z</time>
      </trkpt>
      <trkpt lat="62.639017282892" lon="17.921813548255">
        <ele>11.4</ele>
        <time>2018-03-21T18:26:30Z</time>
      </trkpt>
      <trkpt lat="62.639029101371" lon="17.92178630708">
        <ele>11.6</ele>
        <time>2018-03-21T18:26:31Z</time>
      </trkpt>
      <trkpt lat="62.639042512411" lon="17.921759568819">
        <ele>11.6</ele>
        <time>2018-03-21T18:26:32Z</time>
      </trkpt>
      <trkpt lat="62.639061287867" lon="17.921733165834">
        <ele>11.8</ele>
        <time>2018-03-21T18:26:33Z</time>
      </trkpt>
      <trkpt lat="62.639079141314" lon="17.921717072586">
        <ele>11.8</ele>
        <time>2018-03-21T18:26:34Z</time>
      </trkpt>
      <trkpt lat="62.639090205422" lon="17.921686730108">
        <ele>11.8</ele>
        <time>2018-03-21T18:26:35Z</time>
      </trkpt>
      <trkpt lat="62.639104957566" lon="17.921650939395">
        <ele>12</ele>
        <time>2018-03-21T18:26:36Z</time>
      </trkpt>
      <trkpt lat="62.639117446597" lon="17.921623362944">
        <ele>12</ele>
        <time>2018-03-21T18:26:37Z</time>
      </trkpt>
      <trkpt lat="62.639131947284" lon="17.921588326602">
        <ele>12.2</ele>
        <time>2018-03-21T18:26:38Z</time>
      </trkpt>
      <trkpt lat="62.639149465455" lon="17.921562929445">
        <ele>12.4</ele>
        <time>2018-03-21T18:26:39Z</time>
      </trkpt>
      <trkpt lat="62.639160697201" lon="17.921531748777">
        <ele>12.6</ele>
        <time>2018-03-21T18:26:40Z</time>
      </trkpt>
      <trkpt lat="62.639177880096" lon="17.921478356074">
        <ele>12.6</ele>
        <time>2018-03-21T18:26:41Z</time>
      </trkpt>
      <trkpt lat="62.639192799878" lon="17.921442900637">
        <ele>12.8</ele>
        <time>2018-03-21T18:26:42Z</time>
      </trkpt>
      <trkpt lat="62.639208054936" lon="17.921410630322">
        <ele>13</ele>
        <time>2018-03-21T18:26:43Z</time>
      </trkpt>
      <trkpt lat="62.639222471804" lon="17.921379282016">
        <ele>13</ele>
        <time>2018-03-21T18:26:44Z</time>
      </trkpt>
      <trkpt lat="62.639239067966" lon="17.921364194596">
        <ele>13.2</ele>
        <time>2018-03-21T18:26:45Z</time>
      </trkpt>
      <trkpt lat="62.639254825938" lon="17.921340138543">
        <ele>13.2</ele>
        <time>2018-03-21T18:26:46Z</time>
      </trkpt>
      <trkpt lat="62.639265219494" lon="17.921307532952">
        <ele>13.2</ele>
        <time>2018-03-21T18:26:47Z</time>
      </trkpt>
      <trkpt lat="62.639271589738" lon="17.921276268465">
        <ele>13.4</ele>
        <time>2018-03-21T18:26:48Z</time>
      </trkpt>
      <trkpt lat="62.6392714221" lon="17.921231341481">
        <ele>13.4</ele>
        <time>2018-03-21T18:26:49Z</time>
      </trkpt>
      <trkpt lat="62.639265387132" lon="17.921205357591">
        <ele>13.4</ele>
        <time>2018-03-21T18:26:50Z</time>
      </trkpt>
      <trkpt lat="62.63925549649" lon="17.921157496942">
        <ele>13.4</ele>
        <time>2018-03-21T18:26:51Z</time>
      </trkpt>
      <trkpt lat="62.639241079622" lon="17.921123885523">
        <ele>13.4</ele>
        <time>2018-03-21T18:26:52Z</time>
      </trkpt>
      <trkpt lat="62.639224651098" lon="17.921088933">
        <ele>13.6</ele>
        <time>2018-03-21T18:26:53Z</time>
      </trkpt>
      <trkpt lat="62.639207887298" lon="17.921044844206">
        <ele>13.6</ele>
        <time>2018-03-21T18:26:54Z</time>
      </trkpt>
      <trkpt lat="62.639193721887" lon="17.92101181952">
        <ele>13.6</ele>
        <time>2018-03-21T18:26:55Z</time>
      </trkpt>
      <trkpt lat="62.639173940603" lon="17.920977369911">
        <ele>13.8</ele>
        <time>2018-03-21T18:26:56Z</time>
      </trkpt>
      <trkpt lat="62.639156170975" lon="17.920943674673">
        <ele>13.8</ele>
        <time>2018-03-21T18:26:57Z</time>
      </trkpt>
      <trkpt lat="62.639146364152" lon="17.920910314711">
        <ele>14</ele>
        <time>2018-03-21T18:26:58Z</time>
      </trkpt>
      <trkpt lat="62.639134126578" lon="17.920880056052">
        <ele>14</ele>
        <time>2018-03-21T18:26:59Z</time>
      </trkpt>
      <trkpt lat="62.639125074126" lon="17.920833787964">
        <ele>14.2</ele>
        <time>2018-03-21T18:27:00Z</time>
      </trkpt>
      <trkpt lat="62.63911719514" lon="17.920780311442">
        <ele>14.2</ele>
        <time>2018-03-21T18:27:01Z</time>
      </trkpt>
      <trkpt lat="62.639116021674" lon="17.920740162141">
        <ele>14.2</ele>
        <time>2018-03-21T18:27:02Z</time>
      </trkpt>
      <trkpt lat="62.639119625891" lon="17.920694899881">
        <ele>14.2</ele>
        <time>2018-03-21T18:27:03Z</time>
      </trkpt>
      <trkpt lat="62.639128007791" lon="17.920648547974">
        <ele>14.2</ele>
        <time>2018-03-21T18:27:04Z</time>
      </trkpt>
      <trkpt lat="62.639134545673" lon="17.920615690926">
        <ele>14.2</ele>
        <time>2018-03-21T18:27:05Z</time>
      </trkpt>
      <trkpt lat="62.639143011392" lon="17.920567159725">
        <ele>14.4</ele>
        <time>2018-03-21T18:27:06Z</time>
      </trkpt>
      <trkpt lat="62.639150555102" lon="17.92052147837">
        <ele>14.4</ele>
        <time>2018-03-21T18:27:07Z</time>
      </trkpt>
      <trkpt lat="62.639161367753" lon="17.920485687657">
        <ele>14.4</ele>
        <time>2018-03-21T18:27:08Z</time>
      </trkpt>
      <trkpt lat="62.639174946431" lon="17.920442437053">
        <ele>14.6</ele>
        <time>2018-03-21T18:27:09Z</time>
      </trkpt>
      <trkpt lat="62.639187351643" lon="17.920413100403">
        <ele>14.6</ele>
        <time>2018-03-21T18:27:10Z</time>
      </trkpt>
      <trkpt lat="62.639196990828" lon="17.920364988297">
        <ele>14.6</ele>
        <time>2018-03-21T18:27:11Z</time>
      </trkpt>
      <trkpt lat="62.639210066592" lon="17.920328359394">
        <ele>14.6</ele>
        <time>2018-03-21T18:27:12Z</time>
      </trkpt>
      <trkpt lat="62.639225405469" lon="17.920292736319">
        <ele>14.6</ele>
        <time>2018-03-21T18:27:13Z</time>
      </trkpt>
      <trkpt lat="62.639232781541" lon="17.920255855959">
        <ele>14.8</ele>
        <time>2018-03-21T18:27:14Z</time>
      </trkpt>
      <trkpt lat="62.639247282228" lon="17.920222495997">
        <ele>14.8</ele>
        <time>2018-03-21T18:27:15Z</time>
      </trkpt>
      <trkpt lat="62.639263710752" lon="17.92018787875">
        <ele>15</ele>
        <time>2018-03-21T18:27:16Z</time>
      </trkpt>
      <trkpt lat="62.639273852851" lon="17.920144628146">
        <ele>15</ele>
        <time>2018-03-21T18:27:17Z</time>
      </trkpt>
      <trkpt lat="62.63928231857" lon="17.92010992708">
        <ele>15.2</ele>
        <time>2018-03-21T18:27:18Z</time>
      </trkpt>
      <trkpt lat="62.639300842569" lon="17.920084194647">
        <ele>15.2</ele>
        <time>2018-03-21T18:27:19Z</time>
      </trkpt>
      <trkpt lat="62.639311990496" lon="17.920057288748">
        <ele>15.4</ele>
        <time>2018-03-21T18:27:20Z</time>
      </trkpt>
      <trkpt lat="62.639327664649" lon="17.92003197541">
        <ele>15.6</ele>
        <time>2018-03-21T18:27:21Z</time>
      </trkpt>
      <trkpt lat="62.63934434463" lon="17.919999788914">
        <ele>15.6</ele>
        <time>2018-03-21T18:27:22Z</time>
      </trkpt>
      <trkpt lat="62.639351804521" lon="17.919969362617">
        <ele>15.6</ele>
        <time>2018-03-21T18:27:23Z</time>
      </trkpt>
      <trkpt lat="62.639361862801" lon="17.919941115614">
        <ele>16</ele>
        <time>2018-03-21T18:27:24Z</time>
      </trkpt>
      <trkpt lat="62.639375441479" lon="17.919907755652">
        <ele>16</ele>
        <time>2018-03-21T18:27:25Z</time>
      </trkpt>
      <trkpt lat="62.639384913026" lon="17.919867187256">
        <ele>16.2</ele>
        <time>2018-03-21T18:27:26Z</time>
      </trkpt>
      <trkpt lat="62.63939379784" lon="17.919834581665">
        <ele>16.4</ele>
        <time>2018-03-21T18:27:27Z</time>
      </trkpt>
      <trkpt lat="62.639406957423" lon="17.919794851459">
        <ele>16.6</ele>
        <time>2018-03-21T18:27:28Z</time>
      </trkpt>
      <trkpt lat="62.639418021531" lon="17.919762245868">
        <ele>16.6</ele>
        <time>2018-03-21T18:27:29Z</time>
      </trkpt>
      <trkpt lat="62.639427493078" lon="17.919725868422">
        <ele>16.8</ele>
        <time>2018-03-21T18:27:30Z</time>
      </trkpt>
      <trkpt lat="62.639439814471" lon="17.91968412656">
        <ele>17</ele>
        <time>2018-03-21T18:27:31Z</time>
      </trkpt>
      <trkpt lat="62.639450208027" lon="17.919641965603">
        <ele>17</ele>
        <time>2018-03-21T18:27:32Z</time>
      </trkpt>
      <trkpt lat="62.639458589927" lon="17.919610784935">
        <ele>17</ele>
        <time>2018-03-21T18:27:33Z</time>
      </trkpt>
      <trkpt lat="62.639470240768" lon="17.9195718091">
        <ele>17.2</ele>
        <time>2018-03-21T18:27:34Z</time>
      </trkpt>
      <trkpt lat="62.639478957944" lon="17.919537108034">
        <ele>17.2</ele>
        <time>2018-03-21T18:27:35Z</time>
      </trkpt>
      <trkpt lat="62.639491111699" lon="17.919496455819">
        <ele>17.2</ele>
        <time>2018-03-21T18:27:36Z</time>
      </trkpt>
      <trkpt lat="62.639504271282" lon="17.91945781526">
        <ele>17.4</ele>
        <time>2018-03-21T18:27:37Z</time>
      </trkpt>
      <trkpt lat="62.639512485544" lon="17.91940752386">
        <ele>17.6</ele>
        <time>2018-03-21T18:27:38Z</time>
      </trkpt>
      <trkpt lat="62.639519861616" lon="17.919359411754">
        <ele>17.6</ele>
        <time>2018-03-21T18:27:39Z</time>
      </trkpt>
      <trkpt lat="62.639528578792" lon="17.919324962145">
        <ele>17.6</ele>
        <time>2018-03-21T18:27:40Z</time>
      </trkpt>
      <trkpt lat="62.639541235461" lon="17.91928179536">
        <ele>17.8</ele>
        <time>2018-03-21T18:27:41Z</time>
      </trkpt>
      <trkpt lat="62.639550287913" lon="17.919245334095">
        <ele>17.8</ele>
        <time>2018-03-21T18:27:42Z</time>
      </trkpt>
      <trkpt lat="62.639560765288" lon="17.919202502586">
        <ele>18</ele>
        <time>2018-03-21T18:27:43Z</time>
      </trkpt>
      <trkpt lat="62.639574763061" lon="17.919163694389">
        <ele>18</ele>
        <time>2018-03-21T18:27:44Z</time>
      </trkpt>
      <trkpt lat="62.639586162445" lon="17.919132765178">
        <ele>18.2</ele>
        <time>2018-03-21T18:27:45Z</time>
      </trkpt>
      <trkpt lat="62.6395983162" lon="17.919094543714">
        <ele>18.2</ele>
        <time>2018-03-21T18:27:46Z</time>
      </trkpt>
      <trkpt lat="62.639611811059" lon="17.919056657526">
        <ele>18.4</ele>
        <time>2018-03-21T18:27:47Z</time>
      </trkpt>
      <trkpt lat="62.639624467728" lon="17.919025979772">
        <ele>18.6</ele>
        <time>2018-03-21T18:27:48Z</time>
      </trkpt>
      <trkpt lat="62.639636118569" lon="17.918988345041">
        <ele>18.6</ele>
        <time>2018-03-21T18:27:49Z</time>
      </trkpt>
      <trkpt lat="62.63965028398" lon="17.918958756934">
        <ele>18.8</ele>
        <time>2018-03-21T18:27:50Z</time>
      </trkpt>
      <trkpt lat="62.639663359744" lon="17.918928833551">
        <ele>18.8</ele>
        <time>2018-03-21T18:27:51Z</time>
      </trkpt>
      <trkpt lat="62.639676351689" lon="17.918900921824">
        <ele>19</ele>
        <time>2018-03-21T18:27:52Z</time>
      </trkpt>
      <trkpt lat="62.639695210964" lon="17.918866304577">
        <ele>19</ele>
        <time>2018-03-21T18:27:53Z</time>
      </trkpt>
      <trkpt lat="62.639710801298" lon="17.918829088941">
        <ele>19.2</ele>
        <time>2018-03-21T18:27:54Z</time>
      </trkpt>
      <trkpt lat="62.639722955053" lon="17.918800925757">
        <ele>19.2</ele>
        <time>2018-03-21T18:27:55Z</time>
      </trkpt>
      <trkpt lat="62.639737958654" lon="17.918753484203">
        <ele>19.2</ele>
        <time>2018-03-21T18:27:56Z</time>
      </trkpt>
      <trkpt lat="62.639754722454" lon="17.918727835589">
        <ele>19.2</ele>
        <time>2018-03-21T18:27:57Z</time>
      </trkpt>
      <trkpt lat="62.639771737711" lon="17.9187084734">
        <ele>19.4</ele>
        <time>2018-03-21T18:27:58Z</time>
      </trkpt>
      <trkpt lat="62.639785735484" lon="17.9186749458">
        <ele>19.4</ele>
        <time>2018-03-21T18:27:59Z</time>
      </trkpt>
      <trkpt lat="62.639800068533" lon="17.918646698797">
        <ele>19.4</ele>
        <time>2018-03-21T18:28:00Z</time>
      </trkpt>
      <trkpt lat="62.639813982487" lon="17.918615853405">
        <ele>19.6</ele>
        <time>2018-03-21T18:28:01Z</time>
      </trkpt>
      <trkpt lat="62.639835691608" lon="17.918566735471">
        <ele>19.8</ele>
        <time>2018-03-21T18:28:02Z</time>
      </trkpt>
      <trkpt lat="62.639849186467" lon="17.918528849283">
        <ele>19.8</ele>
        <time>2018-03-21T18:28:03Z</time>
      </trkpt>
      <trkpt lat="62.639858490376" lon="17.918484592851">
        <ele>20</ele>
        <time>2018-03-21T18:28:04Z</time>
      </trkpt>
      <trkpt lat="62.639864525344" lon="17.918447377215">
        <ele>20.2</ele>
        <time>2018-03-21T18:28:05Z</time>
      </trkpt>
      <trkpt lat="62.639871901416" lon="17.918398091643">
        <ele>20.4</ele>
        <time>2018-03-21T18:28:06Z</time>
      </trkpt>
      <trkpt lat="62.63986988976" lon="17.918345285673">
        <ele>20.6</ele>
        <time>2018-03-21T18:28:07Z</time>
      </trkpt>
      <trkpt lat="62.639866620819" lon="17.918293234074">
        <ele>20.8</ele>
        <time>2018-03-21T18:28:08Z</time>
      </trkpt>
      <trkpt lat="62.63987240433" lon="17.918243194131">
        <ele>21</ele>
        <time>2018-03-21T18:28:09Z</time>
      </trkpt>
      <trkpt lat="62.639875589452" lon="17.918203296287">
        <ele>21</ele>
        <time>2018-03-21T18:28:10Z</time>
      </trkpt>
      <trkpt lat="62.639878187841" lon="17.918155519457">
        <ele>21</ele>
        <time>2018-03-21T18:28:11Z</time>
      </trkpt>
      <trkpt lat="62.63988078623" lon="17.918100198917">
        <ele>21</ele>
        <time>2018-03-21T18:28:12Z</time>
      </trkpt>
      <trkpt lat="62.639884893361" lon="17.918053679372">
        <ele>21</ele>
        <time>2018-03-21T18:28:13Z</time>
      </trkpt>
      <trkpt lat="62.639886150646" lon="17.918007830379">
        <ele>21</ele>
        <time>2018-03-21T18:28:14Z</time>
      </trkpt>
      <trkpt lat="62.639888581397" lon="17.917958880083">
        <ele>21</ele>
        <time>2018-03-21T18:28:15Z</time>
      </trkpt>
      <trkpt lat="62.639891934157" lon="17.917914623651">
        <ele>21</ele>
        <time>2018-03-21T18:28:16Z</time>
      </trkpt>
      <trkpt lat="62.63989252089" lon="17.917877994748">
        <ele>21</ele>
        <time>2018-03-21T18:28:17Z</time>
      </trkpt>
      <trkpt lat="62.63989671184" lon="17.917825943149">
        <ele>21</ele>
        <time>2018-03-21T18:28:18Z</time>
      </trkpt>
      <trkpt lat="62.639901992437" lon="17.917784033649">
        <ele>21</ele>
        <time>2018-03-21T18:28:19Z</time>
      </trkpt>
      <trkpt lat="62.639904423188" lon="17.917745225452">
        <ele>21</ele>
        <time>2018-03-21T18:28:20Z</time>
      </trkpt>
      <trkpt lat="62.639908614138" lon="17.917697197165">
        <ele>21</ele>
        <time>2018-03-21T18:28:21Z</time>
      </trkpt>
      <trkpt lat="62.639912134536" lon="17.917654198018">
        <ele>21</ele>
        <time>2018-03-21T18:28:22Z</time>
      </trkpt>
      <trkpt lat="62.639915738753" lon="17.917620921875">
        <ele>21</ele>
        <time>2018-03-21T18:28:23Z</time>
      </trkpt>
      <trkpt lat="62.639919929703" lon="17.917575324339">
        <ele>21</ele>
        <time>2018-03-21T18:28:24Z</time>
      </trkpt>
      <trkpt lat="62.639918672418" lon="17.917534001572">
        <ele>21.2</ele>
        <time>2018-03-21T18:28:25Z</time>
      </trkpt>
      <trkpt lat="62.639920600255" lon="17.917478429575">
        <ele>21.2</ele>
        <time>2018-03-21T18:28:26Z</time>
      </trkpt>
      <trkpt lat="62.639928898336" lon="17.91742855727">
        <ele>21.4</ele>
        <time>2018-03-21T18:28:27Z</time>
      </trkpt>
      <trkpt lat="62.639933005467" lon="17.917390419625">
        <ele>21.6</ele>
        <time>2018-03-21T18:28:28Z</time>
      </trkpt>
      <trkpt lat="62.639936190589" lon="17.917349013039">
        <ele>21.6</ele>
        <time>2018-03-21T18:28:29Z</time>
      </trkpt>
      <trkpt lat="62.639938369883" lon="17.917312803231">
        <ele>21.8</ele>
        <time>2018-03-21T18:28:30Z</time>
      </trkpt>
      <trkpt lat="62.639946835602" lon="17.917254465207">
        <ele>21.8</ele>
        <time>2018-03-21T18:28:31Z</time>
      </trkpt>
      <trkpt lat="62.639952535294" lon="17.917221105245">
        <ele>22</ele>
        <time>2018-03-21T18:28:32Z</time>
      </trkpt>
      <trkpt lat="62.639962509755" lon="17.917181123582">
        <ele>22</ele>
        <time>2018-03-21T18:28:33Z</time>
      </trkpt>
      <trkpt lat="62.639976591347" lon="17.917150362009">
        <ele>22.2</ele>
        <time>2018-03-21T18:28:34Z</time>
      </trkpt>
      <trkpt lat="62.639990840577" lon="17.917122282644">
        <ele>22.2</ele>
        <time>2018-03-21T18:28:35Z</time>
      </trkpt>
      <trkpt lat="62.640010873318" lon="17.91710669231">
        <ele>22.4</ele>
        <time>2018-03-21T18:28:36Z</time>
      </trkpt>
      <trkpt lat="62.640029229679" lon="17.917077690936">
        <ele>22.4</ele>
        <time>2018-03-21T18:28:37Z</time>
      </trkpt>
      <trkpt lat="62.640037946855" lon="17.917051287951">
        <ele>22.4</ele>
        <time>2018-03-21T18:28:38Z</time>
      </trkpt>
      <trkpt lat="62.640045322927" lon="17.91701700598">
        <ele>22.4</ele>
        <time>2018-03-21T18:28:39Z</time>
      </trkpt>
      <trkpt lat="62.640061080899" lon="17.916987082597">
        <ele>22.6</ele>
        <time>2018-03-21T18:28:40Z</time>
      </trkpt>
      <trkpt lat="62.640083376753" lon="17.916963026544">
        <ele>22.6</ele>
        <time>2018-03-21T18:28:41Z</time>
      </trkpt>
      <trkpt lat="62.640104080046" lon="17.916952716807">
        <ele>22.6</ele>
        <time>2018-03-21T18:28:42Z</time>
      </trkpt>
      <trkpt lat="62.640127297909" lon="17.91693402517">
        <ele>22.6</ele>
        <time>2018-03-21T18:28:43Z</time>
      </trkpt>
      <trkpt lat="62.640145738089" lon="17.916910304393">
        <ele>22.6</ele>
        <time>2018-03-21T18:28:44Z</time>
      </trkpt>
      <trkpt lat="62.64016744721" lon="17.916903347416">
        <ele>22.8</ele>
        <time>2018-03-21T18:28:45Z</time>
      </trkpt>
      <trkpt lat="62.640193263462" lon="17.916903515054">
        <ele>23</ele>
        <time>2018-03-21T18:28:46Z</time>
      </trkpt>
      <trkpt lat="62.640212122737" lon="17.916904101787">
        <ele>23</ele>
        <time>2018-03-21T18:28:47Z</time>
      </trkpt>
      <trkpt lat="62.640237519894" lon="17.916905191434">
        <ele>23.2</ele>
        <time>2018-03-21T18:28:48Z</time>
      </trkpt>
      <trkpt lat="62.640265096345" lon="17.916909382384">
        <ele>23.2</ele>
        <time>2018-03-21T18:28:49Z</time>
      </trkpt>
      <trkpt lat="62.640284877629" lon="17.916903598873">
        <ele>23.2</ele>
        <time>2018-03-21T18:28:50Z</time>
      </trkpt>
      <trkpt lat="62.640310358605" lon="17.916898737371">
        <ele>23.2</ele>
        <time>2018-03-21T18:28:51Z</time>
      </trkpt>
      <trkpt lat="62.640337013047" lon="17.916896558077">
        <ele>23.4</ele>
        <time>2018-03-21T18:28:52Z</time>
      </trkpt>
      <trkpt lat="62.640357045788" lon="17.916892031851">
        <ele>23.4</ele>
        <time>2018-03-21T18:28:53Z</time>
      </trkpt>
      <trkpt lat="62.640377749081" lon="17.916891528937">
        <ele>23.4</ele>
        <time>2018-03-21T18:28:54Z</time>
      </trkpt>
      <trkpt lat="62.64039962584" lon="17.916898150638">
        <ele>23.4</ele>
        <time>2018-03-21T18:28:55Z</time>
      </trkpt>
      <trkpt lat="62.640422340789" lon="17.916899827018">
        <ele>23.6</ele>
        <time>2018-03-21T18:28:56Z</time>
      </trkpt>
      <trkpt lat="62.640443127901" lon="17.916899910837">
        <ele>23.6</ele>
        <time>2018-03-21T18:28:57Z</time>
      </trkpt>
      <trkpt lat="62.640462406271" lon="17.916899072647">
        <ele>23.6</ele>
        <time>2018-03-21T18:28:58Z</time>
      </trkpt>
      <trkpt lat="62.640482522831" lon="17.916904772339">
        <ele>23.6</ele>
        <time>2018-03-21T18:28:59Z</time>
      </trkpt>
      <trkpt lat="62.640497861708" lon="17.916926397641">
        <ele>23.6</ele>
        <time>2018-03-21T18:29:00Z</time>
      </trkpt>
      <trkpt lat="62.640506243608" lon="17.916984484208">
        <ele>23.6</ele>
        <time>2018-03-21T18:29:01Z</time>
      </trkpt>
      <trkpt lat="62.640504651047" lon="17.917019772007">
        <ele>23.6</ele>
        <time>2018-03-21T18:29:02Z</time>
      </trkpt>
      <trkpt lat="62.64049685588" lon="17.917060508041">
        <ele>23.6</ele>
        <time>2018-03-21T18:29:03Z</time>
      </trkpt>
      <trkpt lat="62.640484869763" lon="17.917094790012">
        <ele>23.6</ele>
        <time>2018-03-21T18:29:04Z</time>
      </trkpt>
      <trkpt lat="62.64047506294" lon="17.917124881033">
        <ele>23.6</ele>
        <time>2018-03-21T18:29:05Z</time>
      </trkpt>
      <trkpt lat="62.640456958036" lon="17.917168466913">
        <ele>23.8</ele>
        <time>2018-03-21T18:29:06Z</time>
      </trkpt>
      <trkpt lat="62.640441200064" lon="17.917211130784">
        <ele>24</ele>
        <time>2018-03-21T18:29:07Z</time>
      </trkpt>
      <trkpt lat="62.640425358273" lon="17.917246083307">
        <ele>24.2</ele>
        <time>2018-03-21T18:29:08Z</time>
      </trkpt>
      <trkpt lat="62.640406079903" lon="17.917263098564">
        <ele>24.2</ele>
        <time>2018-03-21T18:29:09Z</time>
      </trkpt>
      <trkpt lat="62.640386717714" lon="17.917273659758">
        <ele>24.4</ele>
        <time>2018-03-21T18:29:10Z</time>
      </trkpt>
      <trkpt lat="62.640366014421" lon="17.917276090509">
        <ele>24.4</ele>
        <time>2018-03-21T18:29:11Z</time>
      </trkpt>
      <trkpt lat="62.640348412431" lon="17.917284975323">
        <ele>24.4</ele>
        <time>2018-03-21T18:29:12Z</time>
      </trkpt>
      <trkpt lat="62.640329301699" lon="17.917305091883">
        <ele>24.4</ele>
        <time>2018-03-21T18:29:13Z</time>
      </trkpt>
      <trkpt lat="62.640308346949" lon="17.91732629809">
        <ele>24.4</ele>
        <time>2018-03-21T18:29:14Z</time>
      </trkpt>
      <trkpt lat="62.640293510986" lon="17.917349264496">
        <ele>24.4</ele>
        <time>2018-03-21T18:29:15Z</time>
      </trkpt>
      <trkpt lat="62.640271550408" lon="17.917388407969">
        <ele>24.6</ele>
        <time>2018-03-21T18:29:16Z</time>
      </trkpt>
      <trkpt lat="62.640260570119" lon="17.917412715479">
        <ele>24.8</ele>
        <time>2018-03-21T18:29:17Z</time>
      </trkpt>
      <trkpt lat="62.640240202102" lon="17.917458815929">
        <ele>25</ele>
        <time>2018-03-21T18:29:18Z</time>
      </trkpt>
      <trkpt lat="62.640214218212" lon="17.917481614697">
        <ele>25</ele>
        <time>2018-03-21T18:29:19Z</time>
      </trkpt>
      <trkpt lat="62.640198963154" lon="17.917471891693">
        <ele>25.2</ele>
        <time>2018-03-21T18:29:20Z</time>
      </trkpt>
      <trkpt lat="62.640182953725" lon="17.917429227822">
        <ele>25.4</ele>
        <time>2018-03-21T18:29:21Z</time>
      </trkpt>
      <trkpt lat="62.640168955952" lon="17.917394023842">
        <ele>25.4</ele>
        <time>2018-03-21T18:29:22Z</time>
      </trkpt>
      <trkpt lat="62.640158310939" lon="17.917369632513">
        <ele>25.6</ele>
        <time>2018-03-21T18:29:23Z</time>
      </trkpt>
      <trkpt lat="62.640142469148" lon="17.917334428533">
        <ele>25.6</ele>
        <time>2018-03-21T18:29:24Z</time>
      </trkpt>
      <trkpt lat="62.640130147755" lon="17.917306097711">
        <ele>25.8</ele>
        <time>2018-03-21T18:29:25Z</time>
      </trkpt>
      <trkpt lat="62.640114473602" lon="17.917279694726">
        <ele>25.8</ele>
        <time>2018-03-21T18:29:26Z</time>
      </trkpt>
      <trkpt lat="62.640101397838" lon="17.917246334764">
        <ele>25.8</ele>
        <time>2018-03-21T18:29:27Z</time>
      </trkpt>
      <trkpt lat="62.640086226599" lon="17.917215824648">
        <ele>26</ele>
        <time>2018-03-21T18:29:28Z</time>
      </trkpt>
      <trkpt lat="62.640073653749" lon="17.917195624269">
        <ele>26</ele>
        <time>2018-03-21T18:29:29Z</time>
      </trkpt>
      <trkpt lat="62.640060577985" lon="17.917171903492">
        <ele>26.2</ele>
        <time>2018-03-21T18:29:30Z</time>
      </trkpt>
      <trkpt lat="62.640039120321" lon="17.917135609865">
        <ele>26.4</ele>
        <time>2018-03-21T18:29:31Z</time>
      </trkpt>
      <trkpt lat="62.640025457824" lon="17.917107446681">
        <ele>26.6</ele>
        <time>2018-03-21T18:29:32Z</time>
      </trkpt>
      <trkpt lat="62.640006850006" lon="17.917071069235">
        <ele>26.8</ele>
        <time>2018-03-21T18:29:33Z</time>
      </trkpt>
      <trkpt lat="62.639988996559" lon="17.917034943246">
        <ele>27</ele>
        <time>2018-03-21T18:29:34Z</time>
      </trkpt>
      <trkpt lat="62.639977010442" lon="17.917012731211">
        <ele>27.2</ele>
        <time>2018-03-21T18:29:35Z</time>
      </trkpt>
      <trkpt lat="62.639958067348" lon="17.916973587738">
        <ele>27.2</ele>
        <time>2018-03-21T18:29:36Z</time>
      </trkpt>
      <trkpt lat="62.639941387367" lon="17.916945340735">
        <ele>27.2</ele>
        <time>2018-03-21T18:29:37Z</time>
      </trkpt>
      <trkpt lat="62.639922947187" lon="17.916913992429">
        <ele>27.4</ele>
        <time>2018-03-21T18:29:38Z</time>
      </trkpt>
      <trkpt lat="62.639903920274" lon="17.916874094585">
        <ele>27.4</ele>
        <time>2018-03-21T18:29:39Z</time>
      </trkpt>
      <trkpt lat="62.639890760691" lon="17.916847943057">
        <ele>27.4</ele>
        <time>2018-03-21T18:29:40Z</time>
      </trkpt>
      <trkpt lat="62.639871985235" lon="17.916815924199">
        <ele>27.6</ele>
        <time>2018-03-21T18:29:41Z</time>
      </trkpt>
      <trkpt lat="62.63985480234" lon="17.9167806364">
        <ele>27.6</ele>
        <time>2018-03-21T18:29:42Z</time>
      </trkpt>
      <trkpt lat="62.63983720035" lon="17.916748868999">
        <ele>27.8</ele>
        <time>2018-03-21T18:29:43Z</time>
      </trkpt>
      <trkpt lat="62.639821777654" lon="17.916723723299">
        <ele>27.8</ele>
        <time>2018-03-21T18:29:44Z</time>
      </trkpt>
      <trkpt lat="62.639806103501" lon="17.916692542631">
        <ele>27.8</ele>
        <time>2018-03-21T18:29:45Z</time>
      </trkpt>
      <trkpt lat="62.639788333873" lon="17.916660439954">
        <ele>28</ele>
        <time>2018-03-21T18:29:46Z</time>
      </trkpt>
      <trkpt lat="62.639772827358" lon="17.916630768028">
        <ele>28</ele>
        <time>2018-03-21T18:29:47Z</time>
      </trkpt>
      <trkpt lat="62.639757153205" lon="17.916598330075">
        <ele>28</ele>
        <time>2018-03-21T18:29:48Z</time>
      </trkpt>
      <trkpt lat="62.639738210111" lon="17.916568071416">
        <ele>28</ele>
        <time>2018-03-21T18:29:49Z</time>
      </trkpt>
      <trkpt lat="62.639723038872" lon="17.916541836069">
        <ele>28</ele>
        <time>2018-03-21T18:29:50Z</time>
      </trkpt>
      <trkpt lat="62.639703844321" lon="17.916508895202">
        <ele>28</ele>
        <time>2018-03-21T18:29:51Z</time>
      </trkpt>
      <trkpt lat="62.639685823236" lon="17.916471260471">
        <ele>28.2</ele>
        <time>2018-03-21T18:29:52Z</time>
      </trkpt>
      <trkpt lat="62.639669143255" lon="17.916446450047">
        <ele>28.2</ele>
        <time>2018-03-21T18:29:53Z</time>
      </trkpt>
      <trkpt lat="62.639653301464" lon="17.916418873596">
        <ele>28.2</ele>
        <time>2018-03-21T18:29:54Z</time>
      </trkpt>
      <trkpt lat="62.63963854932" lon="17.916394733724">
        <ele>28.2</ele>
        <time>2018-03-21T18:29:55Z</time>
      </trkpt>
      <trkpt lat="62.639619606226" lon="17.916368163101">
        <ele>28.2</ele>
        <time>2018-03-21T18:29:56Z</time>
      </trkpt>
      <trkpt lat="62.639602004236" lon="17.91633891027">
        <ele>28.2</ele>
        <time>2018-03-21T18:29:57Z</time>
      </trkpt>
      <trkpt lat="62.639585072798" lon="17.916305885584">
        <ele>28.2</ele>
        <time>2018-03-21T18:29:58Z</time>
      </trkpt>
      <trkpt lat="62.639569231007" lon="17.916280823703">
        <ele>28</ele>
        <time>2018-03-21T18:29:59Z</time>
      </trkpt>
      <trkpt lat="62.639552634845" lon="17.916254420718">
        <ele>28</ele>
        <time>2018-03-21T18:30:00Z</time>
      </trkpt>
      <trkpt lat="62.639531512457" lon="17.916217791815">
        <ele>28</ele>
        <time>2018-03-21T18:30:01Z</time>
      </trkpt>
      <trkpt lat="62.63951282082" lon="17.916193316667">
        <ele>28</ele>
        <time>2018-03-21T18:30:02Z</time>
      </trkpt>
      <trkpt lat="62.63949521883" lon="17.916167248958">
        <ele>28</ele>
        <time>2018-03-21T18:30:03Z</time>
      </trkpt>
      <trkpt lat="62.639478706487" lon="17.916145456018">
        <ele>28.2</ele>
        <time>2018-03-21T18:30:04Z</time>
      </trkpt>
      <trkpt lat="62.639463870524" lon="17.916128692218">
        <ele>28</ele>
        <time>2018-03-21T18:30:05Z</time>
      </trkpt>
      <trkpt lat="62.63944157467" lon="17.916112766608">
        <ele>28</ele>
        <time>2018-03-21T18:30:06Z</time>
      </trkpt>
      <trkpt lat="62.639420787558" lon="17.916111928418">
        <ele>28.2</ele>
        <time>2018-03-21T18:30:07Z</time>
      </trkpt>
      <trkpt lat="62.639404526672" lon="17.916126932019">
        <ele>28</ele>
        <time>2018-03-21T18:30:08Z</time>
      </trkpt>
      <trkpt lat="62.639382566094" lon="17.916144953104">
        <ele>28</ele>
        <time>2018-03-21T18:30:09Z</time>
      </trkpt>
      <trkpt lat="62.639360102602" lon="17.91615953761">
        <ele>28</ele>
        <time>2018-03-21T18:30:10Z</time>
      </trkpt>
      <trkpt lat="62.639339399309" lon="17.916176552867">
        <ele>28</ele>
        <time>2018-03-21T18:30:11Z</time>
      </trkpt>
      <trkpt lat="62.639316432903" lon="17.916189125717">
        <ele>28</ele>
        <time>2018-03-21T18:30:12Z</time>
      </trkpt>
      <trkpt lat="62.639292544488" lon="17.916209242277">
        <ele>28</ele>
        <time>2018-03-21T18:30:13Z</time>
      </trkpt>
      <trkpt lat="62.639271086824" lon="17.916218713824">
        <ele>28</ele>
        <time>2018-03-21T18:30:14Z</time>
      </trkpt>
      <trkpt lat="62.639249126246" lon="17.916238411289">
        <ele>28</ele>
        <time>2018-03-21T18:30:15Z</time>
      </trkpt>
      <trkpt lat="62.639225154012" lon="17.916250816501">
        <ele>28</ele>
        <time>2018-03-21T18:30:16Z</time>
      </trkpt>
      <trkpt lat="62.639206127099" lon="17.916262383523">
        <ele>28</ele>
        <time>2018-03-21T18:30:17Z</time>
      </trkpt>
      <trkpt lat="62.639181819589" lon="17.916275459287">
        <ele>28</ele>
        <time>2018-03-21T18:30:18Z</time>
      </trkpt>
      <trkpt lat="62.639159691373" lon="17.916283254454">
        <ele>27.8</ele>
        <time>2018-03-21T18:30:19Z</time>
      </trkpt>
      <trkpt lat="62.639139910089" lon="17.91630035353">
        <ele>27.8</ele>
        <time>2018-03-21T18:30:20Z</time>
      </trkpt>
      <trkpt lat="62.639115434941" lon="17.916323906669">
        <ele>27.8</ele>
        <time>2018-03-21T18:30:21Z</time>
      </trkpt>
      <trkpt lat="62.639090959793" lon="17.916334384044">
        <ele>27.8</ele>
        <time>2018-03-21T18:30:22Z</time>
      </trkpt>
      <trkpt lat="62.639072687251" lon="17.916341676297">
        <ele>27.6</ele>
        <time>2018-03-21T18:30:23Z</time>
      </trkpt>
      <trkpt lat="62.639052319234" lon="17.916358691554">
        <ele>27.6</ele>
        <time>2018-03-21T18:30:24Z</time>
      </trkpt>
      <trkpt lat="62.639029771923" lon="17.91637076149">
        <ele>27.8</ele>
        <time>2018-03-21T18:30:25Z</time>
      </trkpt>
      <trkpt lat="62.639006721698" lon="17.916384759263">
        <ele>27.6</ele>
        <time>2018-03-21T18:30:26Z</time>
      </trkpt>
      <trkpt lat="62.638985431672" lon="17.91639674538">
        <ele>27.6</ele>
        <time>2018-03-21T18:30:27Z</time>
      </trkpt>
      <trkpt lat="62.638962213809" lon="17.916406552203">
        <ele>27.6</ele>
        <time>2018-03-21T18:30:28Z</time>
      </trkpt>
      <trkpt lat="62.638938409213" lon="17.916420047062">
        <ele>27.6</ele>
        <time>2018-03-21T18:30:29Z</time>
      </trkpt>
      <trkpt lat="62.638921226318" lon="17.91644284583">
        <ele>27.6</ele>
        <time>2018-03-21T18:30:30Z</time>
      </trkpt>
      <trkpt lat="62.638897924636" lon="17.916462375657">
        <ele>27.6</ele>
        <time>2018-03-21T18:30:31Z</time>
      </trkpt>
      <trkpt lat="62.63887412004" lon="17.916469751729">
        <ele>27.6</ele>
        <time>2018-03-21T18:30:32Z</time>
      </trkpt>
      <trkpt lat="62.638848052331" lon="17.916494729791">
        <ele>27.6</ele>
        <time>2018-03-21T18:30:33Z</time>
      </trkpt>
      <trkpt lat="62.63882885778" lon="17.916501016216">
        <ele>27.6</ele>
        <time>2018-03-21T18:30:34Z</time>
      </trkpt>
      <trkpt lat="62.638809244134" lon="17.916506967365">
        <ele>27.6</ele>
        <time>2018-03-21T18:30:35Z</time>
      </trkpt>
      <trkpt lat="62.638783427882" lon="17.916518450568">
        <ele>27.6</ele>
        <time>2018-03-21T18:30:36Z</time>
      </trkpt>
      <trkpt lat="62.638760293838" lon="17.916527419201">
        <ele>27.6</ele>
        <time>2018-03-21T18:30:37Z</time>
      </trkpt>
      <trkpt lat="62.638735483414" lon="17.916536471653">
        <ele>27.4</ele>
        <time>2018-03-21T18:30:38Z</time>
      </trkpt>
      <trkpt lat="62.638714193388" lon="17.916551894349">
        <ele>27.6</ele>
        <time>2018-03-21T18:30:39Z</time>
      </trkpt>
      <trkpt lat="62.638683264177" lon="17.916570334529">
        <ele>27.6</ele>
        <time>2018-03-21T18:30:41Z</time>
      </trkpt>
      <trkpt lat="62.638657615563" lon="17.916585505768">
        <ele>27.6</ele>
        <time>2018-03-21T18:30:42Z</time>
      </trkpt>
      <trkpt lat="62.638631966949" lon="17.916595144953">
        <ele>27.6</ele>
        <time>2018-03-21T18:30:43Z</time>
      </trkpt>
      <trkpt lat="62.638611850389" lon="17.91659707279">
        <ele>27.6</ele>
        <time>2018-03-21T18:30:44Z</time>
      </trkpt>
      <trkpt lat="62.638592404381" lon="17.916603610672">
        <ele>27.4</ele>
        <time>2018-03-21T18:30:45Z</time>
      </trkpt>
      <trkpt lat="62.638568767423" lon="17.916622134671">
        <ele>27.4</ele>
        <time>2018-03-21T18:30:46Z</time>
      </trkpt>
      <trkpt lat="62.638547309759" lon="17.916630265114">
        <ele>27.4</ele>
        <time>2018-03-21T18:30:47Z</time>
      </trkpt>
      <trkpt lat="62.638525181543" lon="17.916640323394">
        <ele>27.2</ele>
        <time>2018-03-21T18:30:48Z</time>
      </trkpt>
      <trkpt lat="62.63849861092" lon="17.916651303683">
        <ele>27.2</ele>
        <time>2018-03-21T18:30:49Z</time>
      </trkpt>
      <trkpt lat="62.638475393057" lon="17.916663625076">
        <ele>27.2</ele>
        <time>2018-03-21T18:30:50Z</time>
      </trkpt>
      <trkpt lat="62.638451923737" lon="17.916672258433">
        <ele>27.2</ele>
        <time>2018-03-21T18:30:51Z</time>
      </trkpt>
      <trkpt lat="62.638428957331" lon="17.91667837722">
        <ele>27.2</ele>
        <time>2018-03-21T18:30:52Z</time>
      </trkpt>
      <trkpt lat="62.638405488011" lon="17.916686591482">
        <ele>27.2</ele>
        <time>2018-03-21T18:30:53Z</time>
      </trkpt>
      <trkpt lat="62.638382689243" lon="17.91670017016">
        <ele>27.2</ele>
        <time>2018-03-21T18:30:54Z</time>
      </trkpt>
      <trkpt lat="62.638361566855" lon="17.916712407734">
        <ele>27</ele>
        <time>2018-03-21T18:30:55Z</time>
      </trkpt>
      <trkpt lat="62.638334660956" lon="17.91672950681">
        <ele>27</ele>
        <time>2018-03-21T18:30:56Z</time>
      </trkpt>
      <trkpt lat="62.638312281283" lon="17.916741157651">
        <ele>27</ele>
        <time>2018-03-21T18:30:57Z</time>
      </trkpt>
      <trkpt lat="62.638289314877" lon="17.91674962337">
        <ele>27</ele>
        <time>2018-03-21T18:30:58Z</time>
      </trkpt>
      <trkpt lat="62.638265091186" lon="17.916753479044">
        <ele>27</ele>
        <time>2018-03-21T18:30:59Z</time>
      </trkpt>
      <trkpt lat="62.63824547754" lon="17.916761860944">
        <ele>27</ele>
        <time>2018-03-21T18:31:00Z</time>
      </trkpt>
      <trkpt lat="62.638212285216" lon="17.916781642228">
        <ele>26.8</ele>
        <time>2018-03-21T18:31:01Z</time>
      </trkpt>
      <trkpt lat="62.638186468964" lon="17.916804692453">
        <ele>26.8</ele>
        <time>2018-03-21T18:31:02Z</time>
      </trkpt>
      <trkpt lat="62.638163670196" lon="17.916831179257">
        <ele>26.8</ele>
        <time>2018-03-21T18:31:03Z</time>
      </trkpt>
      <trkpt lat="62.638136680478" lon="17.916859593898">
        <ele>26.8</ele>
        <time>2018-03-21T18:31:04Z</time>
      </trkpt>
      <trkpt lat="62.638114636081" lon="17.916880045734">
        <ele>26.8</ele>
        <time>2018-03-21T18:31:05Z</time>
      </trkpt>
      <trkpt lat="62.638095860625" lon="17.916894462602">
        <ele>26.8</ele>
        <time>2018-03-21T18:31:06Z</time>
      </trkpt>
      <trkpt lat="62.6380644285" lon="17.916909969117">
        <ele>26.8</ele>
        <time>2018-03-21T18:31:07Z</time>
      </trkpt>
      <trkpt lat="62.638039366619" lon="17.916920865587">
        <ele>26.8</ele>
        <time>2018-03-21T18:31:08Z</time>
      </trkpt>
      <trkpt lat="62.63801748986" lon="17.916928744573">
        <ele>26.8</ele>
        <time>2018-03-21T18:31:09Z</time>
      </trkpt>
      <trkpt lat="62.637996367472" lon="17.916937126473">
        <ele>26.8</ele>
        <time>2018-03-21T18:31:10Z</time>
      </trkpt>
      <trkpt lat="62.637971808505" lon="17.916938970491">
        <ele>26.6</ele>
        <time>2018-03-21T18:31:11Z</time>
      </trkpt>
      <trkpt lat="62.637954793248" lon="17.916942826165">
        <ele>26.6</ele>
        <time>2018-03-21T18:31:12Z</time>
      </trkpt>
      <trkpt lat="62.637935179602" lon="17.916953219721">
        <ele>26.8</ele>
        <time>2018-03-21T18:31:13Z</time>
      </trkpt>
      <trkpt lat="62.637909614807" lon="17.916956404843">
        <ele>26.6</ele>
        <time>2018-03-21T18:31:14Z</time>
      </trkpt>
      <trkpt lat="62.637889749704" lon="17.916965205838">
        <ele>26.6</ele>
        <time>2018-03-21T18:31:15Z</time>
      </trkpt>
      <trkpt lat="62.63786913023" lon="17.91697844924">
        <ele>26.6</ele>
        <time>2018-03-21T18:31:16Z</time>
      </trkpt>
      <trkpt lat="62.637847672566" lon="17.916985741493">
        <ele>26.4</ele>
        <time>2018-03-21T18:31:17Z</time>
      </trkpt>
      <trkpt lat="62.637826885454" lon="17.916999236352">
        <ele>26.2</ele>
        <time>2018-03-21T18:31:18Z</time>
      </trkpt>
      <trkpt lat="62.63780207503" lon="17.917015245781">
        <ele>26.2</ele>
        <time>2018-03-21T18:31:19Z</time>
      </trkpt>
      <trkpt lat="62.637780030633" lon="17.917029997925">
        <ele>26</ele>
        <time>2018-03-21T18:31:20Z</time>
      </trkpt>
      <trkpt lat="62.637754717295" lon="17.917046929363">
        <ele>25.8</ele>
        <time>2018-03-21T18:31:21Z</time>
      </trkpt>
      <trkpt lat="62.63773250526" lon="17.917061932964">
        <ele>25.8</ele>
        <time>2018-03-21T18:31:22Z</time>
      </trkpt>
      <trkpt lat="62.637710377044" lon="17.91707065014">
        <ele>25.6</ele>
        <time>2018-03-21T18:31:23Z</time>
      </trkpt>
      <trkpt lat="62.637687745914" lon="17.917077858574">
        <ele>25.6</ele>
        <time>2018-03-21T18:31:24Z</time>
      </trkpt>
      <trkpt lat="62.637665282422" lon="17.917086994845">
        <ele>25.4</ele>
        <time>2018-03-21T18:31:25Z</time>
      </trkpt>
      <trkpt lat="62.6376369516" lon="17.917098142772">
        <ele>25.2</ele>
        <time>2018-03-21T18:31:26Z</time>
      </trkpt>
      <trkpt lat="62.63761096771" lon="17.917104680654">
        <ele>25.2</ele>
        <time>2018-03-21T18:31:27Z</time>
      </trkpt>
      <trkpt lat="62.637585738191" lon="17.917115325667">
        <ele>25</ele>
        <time>2018-03-21T18:31:28Z</time>
      </trkpt>
      <trkpt lat="62.637562268871" lon="17.917119013703">
        <ele>24.8</ele>
        <time>2018-03-21T18:31:29Z</time>
      </trkpt>
      <trkpt lat="62.637541733216" lon="17.917116834409">
        <ele>24.8</ele>
        <time>2018-03-21T18:31:30Z</time>
      </trkpt>
      <trkpt lat="62.63751541405" lon="17.917118259332">
        <ele>24.6</ele>
        <time>2018-03-21T18:31:31Z</time>
      </trkpt>
      <trkpt lat="62.637493537291" lon="17.91712932344">
        <ele>24.6</ele>
        <time>2018-03-21T18:31:32Z</time>
      </trkpt>
      <trkpt lat="62.637467804858" lon="17.917138627349">
        <ele>24.4</ele>
        <time>2018-03-21T18:31:33Z</time>
      </trkpt>
      <trkpt lat="62.637444335538" lon="17.917138292073">
        <ele>24.2</ele>
        <time>2018-03-21T18:31:34Z</time>
      </trkpt>
      <trkpt lat="62.637419692752" lon="17.917149272362">
        <ele>24</ele>
        <time>2018-03-21T18:31:35Z</time>
      </trkpt>
      <trkpt lat="62.637394379414" lon="17.917162683402">
        <ele>24</ele>
        <time>2018-03-21T18:31:36Z</time>
      </trkpt>
      <trkpt lat="62.637372251198" lon="17.917169724198">
        <ele>23.6</ele>
        <time>2018-03-21T18:31:37Z</time>
      </trkpt>
      <trkpt lat="62.637346602584" lon="17.917175172433">
        <ele>23.4</ele>
        <time>2018-03-21T18:31:38Z</time>
      </trkpt>
      <trkpt lat="62.637323552359" lon="17.917177435546">
        <ele>23.2</ele>
        <time>2018-03-21T18:31:39Z</time>
      </trkpt>
      <trkpt lat="62.637303687256" lon="17.917181375039">
        <ele>23.2</ele>
        <time>2018-03-21T18:31:40Z</time>
      </trkpt>
      <trkpt lat="62.637277787185" lon="17.91718799674">
        <ele>23.2</ele>
        <time>2018-03-21T18:31:41Z</time>
      </trkpt>
      <trkpt lat="62.637249204906" lon="17.917196294821">
        <ele>23</ele>
        <time>2018-03-21T18:31:42Z</time>
      </trkpt>
      <trkpt lat="62.637225065034" lon="17.917201994513">
        <ele>22.8</ele>
        <time>2018-03-21T18:31:43Z</time>
      </trkpt>
      <trkpt lat="62.637197907678" lon="17.917208029481">
        <ele>22.8</ele>
        <time>2018-03-21T18:31:44Z</time>
      </trkpt>
      <trkpt lat="62.637173348711" lon="17.917217752485">
        <ele>22.6</ele>
        <time>2018-03-21T18:31:45Z</time>
      </trkpt>
      <trkpt lat="62.637148789744" lon="17.917226804937">
        <ele>22.4</ele>
        <time>2018-03-21T18:31:46Z</time>
      </trkpt>
      <trkpt lat="62.637122219121" lon="17.917237869045">
        <ele>22.2</ele>
        <time>2018-03-21T18:31:47Z</time>
      </trkpt>
      <trkpt lat="62.637099252715" lon="17.917230576792">
        <ele>22</ele>
        <time>2018-03-21T18:31:48Z</time>
      </trkpt>
      <trkpt lat="62.637078968517" lon="17.917213896811">
        <ele>21.6</ele>
        <time>2018-03-21T18:31:49Z</time>
      </trkpt>
      <trkpt lat="62.637056421206" lon="17.917186487998">
        <ele>21.4</ele>
        <time>2018-03-21T18:31:50Z</time>
      </trkpt>
      <trkpt lat="62.637029012393" lon="17.917149859095">
        <ele>21.2</ele>
        <time>2018-03-21T18:31:51Z</time>
      </trkpt>
      <trkpt lat="62.637011410403" lon="17.917124042843">
        <ele>21</ele>
        <time>2018-03-21T18:31:52Z</time>
      </trkpt>
      <trkpt lat="62.636990120377" lon="17.917111386174">
        <ele>20.8</ele>
        <time>2018-03-21T18:31:53Z</time>
      </trkpt>
      <trkpt lat="62.636964052668" lon="17.917109123061">
        <ele>20.8</ele>
        <time>2018-03-21T18:31:54Z</time>
      </trkpt>
      <trkpt lat="62.63693957752" lon="17.9171075305">
        <ele>20.6</ele>
        <time>2018-03-21T18:31:55Z</time>
      </trkpt>
      <trkpt lat="62.636908061576" lon="17.917098980962">
        <ele>20.6</ele>
        <time>2018-03-21T18:31:56Z</time>
      </trkpt>
      <trkpt lat="62.636883251152" lon="17.917074924909">
        <ele>20.4</ele>
        <time>2018-03-21T18:31:57Z</time>
      </trkpt>
      <trkpt lat="62.636869337198" lon="17.917037876911">
        <ele>20.2</ele>
        <time>2018-03-21T18:31:58Z</time>
      </trkpt>
      <trkpt lat="62.636859698013" lon="17.916994458669">
        <ele>20.2</ele>
        <time>2018-03-21T18:31:59Z</time>
      </trkpt>
      <trkpt lat="62.63685575852" lon="17.916949280228">
        <ele>20</ele>
        <time>2018-03-21T18:32:00Z</time>
      </trkpt>
      <trkpt lat="62.636854249778" lon="17.916898569733">
        <ele>20</ele>
        <time>2018-03-21T18:32:01Z</time>
      </trkpt>
      <trkpt lat="62.636853663045" lon="17.916848026876">
        <ele>20</ele>
        <time>2018-03-21T18:32:02Z</time>
      </trkpt>
      <trkpt lat="62.636850394104" lon="17.916793795983">
        <ele>20</ele>
        <time>2018-03-21T18:32:03Z</time>
      </trkpt>
      <trkpt lat="62.636845784059" lon="17.916747527895">
        <ele>20</ele>
        <time>2018-03-21T18:32:04Z</time>
      </trkpt>
      <trkpt lat="62.636843353308" lon="17.916710312259">
        <ele>20</ele>
        <time>2018-03-21T18:32:05Z</time>
      </trkpt>
      <trkpt lat="62.636839078539" lon="17.916661110506">
        <ele>20.2</ele>
        <time>2018-03-21T18:32:06Z</time>
      </trkpt>
      <trkpt lat="62.636832205381" lon="17.916618362816">
        <ele>20.2</ele>
        <time>2018-03-21T18:32:07Z</time>
      </trkpt>
      <trkpt lat="62.63682139273" lon="17.916572262366">
        <ele>20.2</ele>
        <time>2018-03-21T18:32:08Z</time>
      </trkpt>
      <trkpt lat="62.636811753545" lon="17.916516187455">
        <ele>20.4</ele>
        <time>2018-03-21T18:32:09Z</time>
      </trkpt>
      <trkpt lat="62.636806556767" lon="17.916472266299">
        <ele>20.4</ele>
        <time>2018-03-21T18:32:10Z</time>
      </trkpt>
      <trkpt lat="62.636798929238" lon="17.91641853832">
        <ele>20.4</ele>
        <time>2018-03-21T18:32:11Z</time>
      </trkpt>
      <trkpt lat="62.636793313365" lon="17.916369336567">
        <ele>20.4</ele>
        <time>2018-03-21T18:32:12Z</time>
      </trkpt>
      <trkpt lat="62.636788451863" lon="17.916324493402">
        <ele>20.4</ele>
        <time>2018-03-21T18:32:13Z</time>
      </trkpt>
      <trkpt lat="62.636782249257" lon="17.91627856059">
        <ele>20.6</ele>
        <time>2018-03-21T18:32:14Z</time>
      </trkpt>
      <trkpt lat="62.636777387755" lon="17.916232879235">
        <ele>20.4</ele>
        <time>2018-03-21T18:32:15Z</time>
      </trkpt>
      <trkpt lat="62.636772190977" lon="17.916185856776">
        <ele>20.6</ele>
        <time>2018-03-21T18:32:16Z</time>
      </trkpt>
      <trkpt lat="62.636767916208" lon="17.916143444362">
        <ele>20.6</ele>
        <time>2018-03-21T18:32:17Z</time>
      </trkpt>
      <trkpt lat="62.636762132697" lon="17.916093404419">
        <ele>20.6</ele>
        <time>2018-03-21T18:32:18Z</time>
      </trkpt>
      <trkpt lat="62.636754924263" lon="17.916045962865">
        <ele>20.8</ele>
        <time>2018-03-21T18:32:19Z</time>
      </trkpt>
      <trkpt lat="62.636747967286" lon="17.916003550451">
        <ele>20.8</ele>
        <time>2018-03-21T18:32:20Z</time>
      </trkpt>
      <trkpt lat="62.636740172119" lon="17.915947056445">
        <ele>20.8</ele>
        <time>2018-03-21T18:32:21Z</time>
      </trkpt>
      <trkpt lat="62.636734137151" lon="17.915901207452">
        <ele>21</ele>
        <time>2018-03-21T18:32:22Z</time>
      </trkpt>
      <trkpt lat="62.636724917061" lon="17.915851418966">
        <ele>21.2</ele>
        <time>2018-03-21T18:32:23Z</time>
      </trkpt>
      <trkpt lat="62.636719385007" lon="17.9157999541">
        <ele>21.2</ele>
        <time>2018-03-21T18:32:24Z</time>
      </trkpt>
      <trkpt lat="62.636713098582" lon="17.915759050428">
        <ele>21.2</ele>
        <time>2018-03-21T18:32:25Z</time>
      </trkpt>
      <trkpt lat="62.636703375578" lon="17.915706663553">
        <ele>21.2</ele>
        <time>2018-03-21T18:32:26Z</time>
      </trkpt>
      <trkpt lat="62.636697508248" lon="17.915659641094">
        <ele>21.4</ele>
        <time>2018-03-21T18:32:27Z</time>
      </trkpt>
      <trkpt lat="62.636688874891" lon="17.91562141963">
        <ele>21.4</ele>
        <time>2018-03-21T18:32:28Z</time>
      </trkpt>
      <trkpt lat="62.636679906258" lon="17.915584120175">
        <ele>21.4</ele>
        <time>2018-03-21T18:32:29Z</time>
      </trkpt>
      <trkpt lat="62.636673787471" lon="17.915540785752">
        <ele>21.6</ele>
        <time>2018-03-21T18:32:30Z</time>
      </trkpt>
      <trkpt lat="62.636668506874" lon="17.915493930931">
        <ele>21.8</ele>
        <time>2018-03-21T18:32:31Z</time>
      </trkpt>
      <trkpt lat="62.636661549897" lon="17.915452524345">
        <ele>21.8</ele>
        <time>2018-03-21T18:32:32Z</time>
      </trkpt>
      <trkpt lat="62.636650988703" lon="17.915409692836">
        <ele>22</ele>
        <time>2018-03-21T18:32:33Z</time>
      </trkpt>
      <trkpt lat="62.636641265699" lon="17.915370633182">
        <ele>22</ele>
        <time>2018-03-21T18:32:34Z</time>
      </trkpt>
      <trkpt lat="62.63663279998" lon="17.91533475865">
        <ele>22</ele>
        <time>2018-03-21T18:32:35Z</time>
      </trkpt>
      <trkpt lat="62.636623412252" lon="17.915287149458">
        <ele>22</ele>
        <time>2018-03-21T18:32:36Z</time>
      </trkpt>
      <trkpt lat="62.636615784723" lon="17.915246245786">
        <ele>22</ele>
        <time>2018-03-21T18:32:37Z</time>
      </trkpt>
      <trkpt lat="62.63660681609" lon="17.915211628539">
        <ele>22</ele>
        <time>2018-03-21T18:32:38Z</time>
      </trkpt>
      <trkpt lat="62.636587453901" lon="17.915177514206">
        <ele>22.2</ele>
        <time>2018-03-21T18:32:39Z</time>
      </trkpt>
      <trkpt lat="62.636575467784" lon="17.915141472036">
        <ele>22.2</ele>
        <time>2018-03-21T18:32:40Z</time>
      </trkpt>
      <trkpt lat="62.636560212726" lon="17.915099646355">
        <ele>22.2</ele>
        <time>2018-03-21T18:32:41Z</time>
      </trkpt>
      <trkpt lat="62.636549483894" lon="17.915053713543">
        <ele>22.4</ele>
        <time>2018-03-21T18:32:42Z</time>
      </trkpt>
      <trkpt lat="62.636543029831" lon="17.915003003048">
        <ele>22.4</ele>
        <time>2018-03-21T18:32:43Z</time>
      </trkpt>
      <trkpt lat="62.63653640813" lon="17.914963105204">
        <ele>22.6</ele>
        <time>2018-03-21T18:32:44Z</time>
      </trkpt>
      <trkpt lat="62.636529786429" lon="17.914916669478">
        <ele>22.4</ele>
        <time>2018-03-21T18:32:45Z</time>
      </trkpt>
      <trkpt lat="62.636521655986" lon="17.91486872501">
        <ele>22.6</ele>
        <time>2018-03-21T18:32:46Z</time>
      </trkpt>
      <trkpt lat="62.636511765344" lon="17.914831677012">
        <ele>22.8</ele>
        <time>2018-03-21T18:32:47Z</time>
      </trkpt>
      <trkpt lat="62.636503131987" lon="17.914787588218">
        <ele>22.6</ele>
        <time>2018-03-21T18:32:48Z</time>
      </trkpt>
      <trkpt lat="62.636491397327" lon="17.914746265451">
        <ele>22.8</ele>
        <time>2018-03-21T18:32:49Z</time>
      </trkpt>
      <trkpt lat="62.636477567192" lon="17.914718772819">
        <ele>23</ele>
        <time>2018-03-21T18:32:50Z</time>
      </trkpt>
      <trkpt lat="62.636455355157" lon="17.91469941063">
        <ele>23</ele>
        <time>2018-03-21T18:32:51Z</time>
      </trkpt>
      <trkpt lat="62.636433562217" lon="17.914687256875">
        <ele>23.2</ele>
        <time>2018-03-21T18:32:52Z</time>
      </trkpt>
      <trkpt lat="62.636414535304" lon="17.914687089237">
        <ele>23.6</ele>
        <time>2018-03-21T18:32:53Z</time>
      </trkpt>
      <trkpt lat="62.636394837839" lon="17.914696309327">
        <ele>23.6</ele>
        <time>2018-03-21T18:32:54Z</time>
      </trkpt>
      <trkpt lat="62.636376732935" lon="17.914703098666">
        <ele>23.8</ele>
        <time>2018-03-21T18:32:55Z</time>
      </trkpt>
      <trkpt lat="62.636357119289" lon="17.914712989308">
        <ele>24</ele>
        <time>2018-03-21T18:32:56Z</time>
      </trkpt>
      <trkpt lat="62.636339936394" lon="17.914724723968">
        <ele>24</ele>
        <time>2018-03-21T18:32:57Z</time>
      </trkpt>
      <trkpt lat="62.636319484558" lon="17.914739392293">
        <ele>24</ele>
        <time>2018-03-21T18:32:58Z</time>
      </trkpt>
      <trkpt lat="62.636305738242" lon="17.914749366754">
        <ele>24</ele>
        <time>2018-03-21T18:32:59Z</time>
      </trkpt>
      <trkpt lat="62.636291153736" lon="17.914759844129">
        <ele>24</ele>
        <time>2018-03-21T18:33:00Z</time>
      </trkpt>
      <trkpt lat="62.636273132651" lon="17.914769483314">
        <ele>24</ele>
        <time>2018-03-21T18:33:01Z</time>
      </trkpt>
      <trkpt lat="62.636257961412" lon="17.914778284309">
        <ele>24.2</ele>
        <time>2018-03-21T18:33:02Z</time>
      </trkpt>
      <trkpt lat="62.636242454897" lon="17.914788426408">
        <ele>24.2</ele>
        <time>2018-03-21T18:33:03Z</time>
      </trkpt>
      <trkpt lat="62.636224266174" lon="17.914800580163">
        <ele>24.4</ele>
        <time>2018-03-21T18:33:04Z</time>
      </trkpt>
      <trkpt lat="62.636210100763" lon="17.914814494117">
        <ele>24.6</ele>
        <time>2018-03-21T18:33:05Z</time>
      </trkpt>
      <trkpt lat="62.63619442661" lon="17.914831593193">
        <ele>24.8</ele>
        <time>2018-03-21T18:33:06Z</time>
      </trkpt>
      <trkpt lat="62.636178836276" lon="17.914848776088">
        <ele>25</ele>
        <time>2018-03-21T18:33:07Z</time>
      </trkpt>
      <trkpt lat="62.636163916494" lon="17.914866126621">
        <ele>25.2</ele>
        <time>2018-03-21T18:33:08Z</time>
      </trkpt>
      <trkpt lat="62.63614832616" lon="17.914887751923">
        <ele>25.4</ele>
        <time>2018-03-21T18:33:09Z</time>
      </trkpt>
      <trkpt lat="62.63613323874" lon="17.914905102456">
        <ele>25.6</ele>
        <time>2018-03-21T18:33:10Z</time>
      </trkpt>
      <trkpt lat="62.636116223483" lon="17.914925470473">
        <ele>25.8</ele>
        <time>2018-03-21T18:33:11Z</time>
      </trkpt>
      <trkpt lat="62.636102393348" lon="17.914941312264">
        <ele>26</ele>
        <time>2018-03-21T18:33:12Z</time>
      </trkpt>
      <trkpt lat="62.636085629548" lon="17.914958662797">
        <ele>26.2</ele>
        <time>2018-03-21T18:33:13Z</time>
      </trkpt>
      <trkpt lat="62.6360695363" lon="17.914976767701">
        <ele>26.4</ele>
        <time>2018-03-21T18:33:14Z</time>
      </trkpt>
      <trkpt lat="62.636055789984" lon="17.914991184569">
        <ele>26.8</ele>
        <time>2018-03-21T18:33:15Z</time>
      </trkpt>
      <trkpt lat="62.636037936537" lon="17.915009121835">
        <ele>27</ele>
        <time>2018-03-21T18:33:16Z</time>
      </trkpt>
      <trkpt lat="62.63602259766" lon="17.915028316386">
        <ele>27.2</ele>
        <time>2018-03-21T18:33:17Z</time>
      </trkpt>
      <trkpt lat="62.636006420593" lon="17.91504977405">
        <ele>27.4</ele>
        <time>2018-03-21T18:33:18Z</time>
      </trkpt>
      <trkpt lat="62.635988567146" lon="17.915076009397">
        <ele>27.6</ele>
        <time>2018-03-21T18:33:19Z</time>
      </trkpt>
      <trkpt lat="62.635972641536" lon="17.915108028255">
        <ele>27.8</ele>
        <time>2018-03-21T18:33:20Z</time>
      </trkpt>
      <trkpt lat="62.635957470297" lon="17.915141555855">
        <ele>27.8</ele>
        <time>2018-03-21T18:33:21Z</time>
      </trkpt>
      <trkpt lat="62.635943640162" lon="17.91517550255">
        <ele>28</ele>
        <time>2018-03-21T18:33:22Z</time>
      </trkpt>
      <trkpt lat="62.635931318769" lon="17.915208611055">
        <ele>28</ele>
        <time>2018-03-21T18:33:23Z</time>
      </trkpt>
      <trkpt lat="62.635919332652" lon="17.915242138655">
        <ele>28.2</ele>
        <time>2018-03-21T18:33:24Z</time>
      </trkpt>
      <trkpt lat="62.635906340707" lon="17.915279019015">
        <ele>28.4</ele>
        <time>2018-03-21T18:33:25Z</time>
      </trkpt>
      <trkpt lat="62.635889409269" lon="17.915325203284">
        <ele>28.4</ele>
        <time>2018-03-21T18:33:26Z</time>
      </trkpt>
      <trkpt lat="62.63587591441" lon="17.9153640953">
        <ele>28.4</ele>
        <time>2018-03-21T18:33:27Z</time>
      </trkpt>
      <trkpt lat="62.635860659352" lon="17.91540097566">
        <ele>28.6</ele>
        <time>2018-03-21T18:33:28Z</time>
      </trkpt>
      <trkpt lat="62.635845320475" lon="17.915432743061">
        <ele>28.4</ele>
        <time>2018-03-21T18:33:29Z</time>
      </trkpt>
      <trkpt lat="62.635832077073" lon="17.915456631476">
        <ele>28.6</ele>
        <time>2018-03-21T18:33:30Z</time>
      </trkpt>
      <trkpt lat="62.636234827368" lon="17.967748204273">
        <ele>261.8</ele>
        <time>2018-03-24T10:13:55Z</time>
      </trkpt>
      <trkpt lat="62.636240443241" lon="17.967745773522">
        <ele>261.8</ele>
        <time>2018-03-24T10:13:56Z</time>
      </trkpt>
    </trkseg>
  </trk>
</gpx>